GFSFLT1_sfc_wetblb_000.txt.gz
Wetbulb
44.50 44.72 44.17 45.06 46.75 48.93 48.87 49.80 51.20 49.89 47.36 46.14 45.34 44.56 45.17 46.88 46.60 47.29 50.47 51.00 50.90 49.34 48.23 47.94 46.82 44.76 43.73 42.35 42.18 42.01 42.04 41.51
42.38 43.23 44.10 45.26 45.88 45.89 45.76 46.52 46.73 45.48 44.57 44.27 43.71 44.13 43.83 44.14 44.83 46.38 47.41 49.83 50.47 49.95 48.52 47.39 47.16 45.49 45.50 43.25 42.32 41.79 40.91 41.12
43.50 43.29 42.98 44.65 45.74 45.82 44.80 44.90 44.96 44.09 43.64 43.15 43.01 42.55 42.84 42.78 43.60 44.20 45.33 46.39 48.72 49.76 48.82 47.37 46.66 46.85 44.19 43.30 42.12 40.71 40.72 40.33
42.06 42.73 42.20 42.50 43.79 44.01 44.54 44.55 44.41 44.31 44.44 43.59 42.89 42.62 43.14 43.17 43.94 43.48 44.83 45.12 46.94 48.66 49.24 48.42 46.79 46.69 46.37 45.06 43.50 41.32 41.35 39.50
43.10 43.16 42.61 42.20 42.94 42.92 43.98 44.71 44.65 45.29 44.72 43.38 42.65 41.71 41.76 43.96 44.27 44.83 46.07 45.25 44.56 46.11 48.54 48.17 46.78 46.20 45.90 45.02 44.56 42.76 39.75 38.10
41.78 42.41 42.13 42.59 42.98 42.73 44.09 45.59 45.68 45.28 44.66 44.05 43.18 42.81 43.28 44.17 44.72 43.74 44.67 44.53 43.05 43.47 44.58 45.57 45.50 44.16 43.34 43.21 41.44 40.47 40.01 38.05
43.85 42.98 44.46 43.90 43.68 43.77 43.94 44.50 44.71 45.10 44.40 43.42 41.68 40.32 40.86 41.73 43.02 42.28 42.78 42.01 40.51 39.93 41.49 41.44 40.21 39.36 38.32 38.11 39.25 38.24 36.94 38.52
40.88 42.08 42.75 43.15 43.27 43.49 44.12 43.34 43.38 43.61 42.98 40.50 39.65 40.38 40.42 40.81 41.56 41.73 40.44 38.93 35.97 36.00 37.07 38.07 38.47 38.98 39.68 40.75 39.76 39.77 39.90 39.57
42.45 42.45 41.85 42.24 42.78 42.78 42.69 42.65 42.68 43.04 41.76 39.63 39.76 40.92 41.06 41.00 40.50 39.36 37.82 35.83 35.86 38.02 38.84 39.41 39.63 39.85 40.55 40.69 40.45 40.63 40.93 40.17
41.86 44.24 43.88 43.67 44.06 44.18 42.83 42.40 42.77 43.28 41.12 38.26 39.09 40.13 40.52 40.42 39.17 36.46 35.65 35.81 38.63 38.55 38.86 39.05 39.77 41.32 42.11 41.41 40.18 39.15 38.97 38.48
43.65 43.98 44.49 44.88 43.59 43.07 42.95 42.37 42.40 42.65 38.81 39.07 40.13 39.02 39.64 39.15 36.08 35.49 35.20 36.22 38.35 38.47 38.86 38.63 39.16 38.34 38.74 39.87 39.45 39.56 38.48 38.04
41.91 42.60 43.12 43.23 42.90 42.84 42.40 41.82 41.67 41.31 37.68 37.92 37.46 38.56 37.73 36.23 34.38 34.57 35.32 37.33 37.16 36.68 37.72 37.31 37.52 38.31 38.10 37.31 36.99 36.52 35.71 35.46
41.88 42.17 42.88 42.69 42.49 42.84 42.21 41.20 41.32 38.70 38.50 37.60 36.91 35.33 33.27 32.96 33.47 34.26 35.36 35.49 36.05 36.01 36.96 36.90 36.93 35.81 35.16 34.95 34.24 33.87 32.79 31.79
42.16 43.30 42.81 42.50 42.12 41.94 42.01 41.60 39.27 38.77 38.10 36.42 33.21 31.56 31.18 32.04 32.96 34.56 35.89 36.31 36.80 36.50 36.43 36.71 36.41 35.70 34.43 33.04 31.92 31.23 30.56 30.35
41.45 41.88 42.31 41.88 41.48 41.44 40.90 39.69 39.07 38.12 37.83 35.28 33.20 32.22 31.89 32.59 35.59 36.38 36.78 36.95 37.21 37.12 36.96 35.66 34.25 32.35 31.82 31.60 30.75 28.65 27.95 28.27
41.15 41.19 42.64 41.78 41.95 41.29 39.69 38.94 38.26 38.03 37.49 37.36 36.16 37.79 38.16 36.70 36.66 37.29 37.54 37.58 37.87 37.98 36.84 32.66 31.41 30.91 30.97 29.37 28.64 27.85 27.04 26.54
41.17 40.89 39.97 40.94 41.42 39.36 38.72 37.87 37.67 38.58 37.38 37.17 38.95 40.15 39.22 38.30 38.52 37.96 37.59 37.31 36.91 36.98 31.90 28.62 28.32 29.86 33.02 31.60 31.16 27.96 27.63 26.96
38.11 38.88 40.43 41.17 39.25 37.54 36.35 36.90 37.04 36.80 36.96 34.83 34.06 35.29 36.23 36.84 37.00 36.26 34.15 30.81 29.19 27.66 27.37 27.57 27.86 28.12 31.55 31.70 31.11 28.01 27.10 26.23
39.80 40.02 40.44 38.42 37.72 36.06 34.52 33.21 32.98 31.99 31.47 32.48 34.21 34.04 31.79 30.77 29.70 28.79 28.08 27.61 26.45 25.95 26.21 27.16 26.58 26.67 29.69 29.51 29.16 25.97 24.51 24.62

GFSFLT1_sfc_wetblb_003.txt.gz
Wetbulb
50.87 51.81 53.30 55.07 57.33 57.79 59.49 59.42 59.39 59.37 58.22 56.53 55.70 55.31 55.57 55.31 55.97 56.24 56.57 57.33 58.38 58.60 58.23 57.79 57.72 56.15 55.77 54.37 52.92 52.24 51.05 51.33
49.73 50.52 51.85 53.18 54.94 56.39 57.64 56.54 56.80 55.49 53.93 53.46 54.08 53.33 53.22 53.74 53.55 53.43 53.63 54.24 55.27 56.25 56.47 56.85 56.60 55.02 55.37 54.88 52.99 51.13 50.25 50.77
49.03 50.52 51.99 53.67 55.26 55.80 53.95 52.17 51.84 51.72 52.23 52.51 52.35 51.81 52.45 51.74 52.23 53.01 53.42 53.19 53.31 53.21 54.18 54.53 55.27 54.51 54.96 55.03 52.98 51.68 50.32 51.04
49.25 49.98 51.54 51.83 51.59 51.05 50.64 51.09 51.91 52.14 51.64 52.17 52.52 52.42 52.25 51.75 51.24 51.43 52.18 52.83 52.75 52.67 52.59 52.65 53.63 54.10 52.88 54.47 54.06 52.47 50.44 50.96
49.73 49.87 50.38 50.55 50.64 51.81 52.49 52.19 51.84 51.24 51.36 50.21 49.32 48.20 47.53 49.20 49.50 49.90 50.40 51.55 51.60 51.16 50.73 50.74 51.41 52.36 52.63 52.89 53.74 53.36 52.10 49.83
48.05 48.48 49.64 50.05 51.01 51.18 51.49 51.20 50.84 50.73 49.52 49.30 49.28 48.78 49.06 49.23 48.87 48.72 49.10 49.66 50.17 48.90 48.37 48.68 48.97 49.39 50.37 50.82 50.98 50.80 50.45 49.61
47.98 49.23 49.72 49.66 50.51 50.67 50.72 50.85 50.84 51.32 50.01 48.65 48.42 48.12 48.05 48.20 48.58 47.52 47.89 47.84 47.37 46.23 46.47 46.84 46.37 46.26 46.34 46.50 46.22 46.11 45.97 45.71
48.02 47.99 48.46 49.01 49.52 50.05 49.89 49.94 49.73 50.14 49.80 47.31 47.84 48.87 48.76 47.78 47.00 46.86 45.92 45.17 45.56 44.88 45.11 45.80 45.68 45.97 46.04 46.06 45.45 44.94 44.49 43.74
47.69 47.53 48.28 48.84 49.01 49.43 49.34 48.81 48.85 49.93 49.89 46.98 47.78 48.58 47.51 46.19 46.15 46.00 44.28 43.71 43.85 44.74 45.34 45.84 46.29 46.36 45.87 46.08 46.11 45.06 43.17 42.12
47.54 48.35 48.45 49.01 48.88 48.96 48.60 48.15 48.35 49.21 49.06 46.53 46.96 46.40 45.73 45.12 44.81 43.74 42.92 43.03 44.13 44.34 45.00 44.57 44.69 44.65 44.49 44.24 43.29 42.51 41.67 40.89
48.46 49.03 49.06 48.64 48.88 48.45 48.67 48.46 47.62 47.95 48.06 46.24 45.46 45.08 44.57 43.22 41.88 41.43 41.72 43.12 43.65 43.25 42.21 42.13 41.96 42.00 41.85 41.19 41.04 41.49 41.01 41.07
48.27 48.46 48.01 48.05 47.91 48.39 48.17 47.94 47.08 47.23 45.34 44.57 44.15 43.56 41.38 40.40 40.69 41.23 41.57 42.60 41.70 41.18 40.87 40.89 40.48 40.00 38.95 39.20 39.39 39.01 38.59 38.71
47.81 47.96 47.95 48.00 48.29 47.76 47.61 47.52 46.22 44.50 44.16 43.84 43.00 40.76 39.36 39.64 39.92 40.79 41.98 41.59 40.98 40.64 40.26 39.89 39.44 39.02 40.21 38.76 37.36 37.06 36.30 35.77
47.19 47.16 46.86 47.02 46.41 46.24 46.30 45.71 44.17 43.75 43.36 43.08 41.07 40.06 39.03 38.91 40.98 41.65 42.10 41.72 41.57 41.23 40.33 39.54 39.37 37.98 37.36 36.59 35.78 35.36 35.37 35.21
46.08 46.27 45.77 45.39 45.34 44.53 43.47 42.80 43.09 42.29 42.44 42.08 41.31 40.24 39.77 40.14 40.67 41.45 41.20 41.09 40.33 38.96 39.81 39.91 38.27 36.31 35.37 35.33 34.85 33.99 33.30 32.69
44.44 43.63 43.50 43.68 43.45 43.12 42.61 42.27 41.80 42.36 41.67 40.98 40.24 41.16 40.83 38.97 38.34 38.74 39.64 40.44 40.18 39.65 38.86 37.40 34.91 34.17 33.77 34.40 33.21 32.40 32.03 31.63
41.82 41.30 41.01 41.88 42.95 41.83 40.66 40.14 40.44 40.74 38.54 36.35 36.88 37.28 38.45 38.37 38.23 38.10 37.48 36.27 34.74 34.26 33.37 32.59 32.56 32.69 33.45 31.93 32.60 32.60 31.77 30.91
40.03 40.58 41.20 41.90 42.74 40.22 39.35 39.20 39.36 37.94 36.02 36.27 37.31 38.07 36.49 34.95 34.89 34.39 33.53 32.94 33.08 32.31 31.96 31.97 32.08 32.30 30.71 30.93 30.35 31.01 30.26 29.61
39.84 40.98 42.08 43.31 42.06 39.92 38.00 37.79 36.60 35.26 35.68 37.09 37.86 36.08 33.74 33.85 33.49 32.52 32.07 31.99 31.16 30.87 30.96 31.02 30.26 29.88 28.61 28.70 28.57 29.61 28.99 28.47

GFSFLT1_sfc_wetblb_006.txt.gz
Wetbulb
59.83 59.01 59.59 61.11 63.46 65.67 65.88 63.46 62.34 62.72 64.02 62.63 61.24 60.84 61.50 60.53 59.49 58.69 58.66 58.48 59.07 59.34 59.44 60.04 60.48 59.78 59.21 58.73 58.46 58.28 57.13 56.04
56.68 57.11 58.24 60.05 62.98 63.23 62.30 61.59 58.64 59.77 59.47 57.51 57.77 57.30 57.93 58.43 58.16 58.16 58.09 57.71 57.49 57.61 57.33 57.91 58.36 57.77 58.02 58.61 58.00 57.43 56.66 56.85
55.78 57.24 58.45 59.29 60.13 59.78 57.87 56.86 57.06 57.13 57.85 57.68 57.52 57.03 57.46 57.36 57.47 57.44 56.95 55.58 55.44 55.13 55.78 55.64 56.03 55.61 56.27 56.68 56.84 55.96 56.38 56.95
54.48 55.59 56.45 57.47 56.58 56.97 56.65 56.81 56.71 56.62 56.73 56.96 57.56 58.01 56.89 55.86 55.07 54.60 54.29 54.38 54.06 54.26 54.50 54.54 54.68 54.69 53.60 54.68 55.07 54.64 53.21 55.40
53.83 54.25 55.19 55.82 56.61 57.10 56.43 56.19 56.22 55.58 55.84 55.30 54.81 53.60 52.41 53.44 53.61 53.79 53.37 53.58 53.15 53.27 53.14 53.63 53.73 53.51 53.08 52.97 52.98 53.52 53.31 51.96
53.50 53.88 54.31 55.08 56.02 56.02 56.36 56.03 55.70 55.44 54.67 54.68 54.23 53.23 53.24 53.50 53.19 51.91 51.91 52.23 52.59 52.24 52.28 52.36 52.41 52.27 52.22 52.19 52.33 52.38 52.58 51.87
53.33 54.20 54.68 54.88 55.96 56.25 55.82 54.96 54.37 55.04 54.78 53.89 53.01 52.70 52.55 51.67 50.77 49.78 49.93 50.39 50.78 51.33 51.11 51.43 51.46 50.74 50.38 50.34 50.50 49.88 49.66 49.24
52.76 52.84 53.46 54.28 54.47 54.55 53.76 53.92 53.19 54.11 53.63 52.06 51.99 52.09 52.11 50.94 50.08 49.07 48.33 48.23 48.70 49.88 49.86 49.95 49.80 49.58 49.31 50.19 50.03 48.19 45.26 44.09
52.35 52.67 53.37 53.57 53.57 54.07 54.15 52.85 52.43 52.52 51.59 51.40 52.08 52.53 51.84 50.37 49.59 48.25 47.39 47.63 48.33 49.26 48.85 49.14 49.22 49.11 48.95 48.87 46.38 44.60 45.04 45.28
51.77 52.61 53.24 53.43 53.31 52.28 53.47 52.72 52.80 52.68 52.45 52.67 51.99 51.76 50.11 48.49 47.99 47.65 47.37 47.95 47.64 47.81 48.32 47.38 45.83 45.98 45.73 45.02 43.44 41.93 42.10 41.98
52.44 52.99 52.35 52.74 53.75 54.03 54.15 53.98 52.89 52.70 52.34 51.57 50.41 49.33 48.63 47.13 46.56 46.15 46.46 46.98 47.62 46.32 45.18 44.74 44.34 44.51 44.44 43.61 42.43 41.12 40.48 40.55
51.91 52.38 52.91 53.13 53.68 53.51 52.95 52.87 52.20 51.45 50.66 49.70 48.71 47.76 46.46 46.10 45.79 45.61 45.62 45.81 45.07 44.48 44.10 43.90 43.24 41.62 41.10 40.64 40.26 40.64 40.34 39.83
51.80 52.26 52.32 52.31 52.02 52.03 51.73 50.96 49.57 48.42 47.58 47.11 46.97 46.11 45.91 45.20 44.99 45.01 44.47 44.08 44.50 44.01 43.01 41.74 41.73 41.25 40.84 39.70 39.58 40.07 39.19 38.41
51.13 51.80 51.35 50.72 49.89 48.54 46.45 46.64 47.61 47.35 46.70 46.26 45.77 45.44 45.10 44.27 43.71 43.26 43.29 42.34 42.05 41.85 41.69 41.07 40.49 40.18 40.49 40.06 39.26 38.75 38.82 38.67
50.19 49.83 49.55 47.81 45.77 45.68 46.83 47.15 47.04 46.23 45.92 45.18 44.63 44.64 43.71 42.99 41.96 42.32 41.90 41.80 41.09 40.71 40.23 39.64 39.41 38.51 38.06 38.10 37.70 37.26 36.87 36.55
47.73 47.30 45.79 46.03 46.21 46.75 47.05 46.36 45.47 45.79 45.03 43.66 42.11 42.33 42.19 41.86 41.34 40.77 40.42 39.70 38.87 38.54 37.75 37.65 37.57 37.10 36.54 35.82 35.79 36.13 35.88 35.59
44.82 42.26 42.79 44.41 44.94 46.12 45.33 44.19 44.59 44.93 43.53 41.11 41.08 41.46 41.10 40.11 39.42 38.85 38.30 37.73 37.48 37.18 36.60 36.36 35.98 35.83 32.13 31.61 32.41 33.96 34.28 34.00
41.02 41.61 43.87 44.69 45.91 46.28 44.32 43.99 44.18 43.49 41.91 40.64 40.77 40.99 39.16 38.37 37.85 37.15 36.65 36.56 36.72 35.93 35.72 35.49 34.96 35.12 29.95 29.86 29.53 31.73 32.11 32.44
42.17 43.55 43.72 45.20 47.18 45.95 44.71 43.98 43.34 42.10 41.07 40.57 40.56 39.15 37.57 37.15 36.52 36.00 36.10 36.11 35.45 35.09 34.73 34.13 33.71 33.53 30.19 28.76 27.98 30.55 31.64 31.84

GFSFLT1_sfc_wetblb_012.txt.gz
Wetbulb
60.41 61.18 62.85 63.21 63.89 63.57 64.76 64.62 61.64 62.01 62.63 61.66 60.20 59.25 59.35 59.62 59.21 57.88 58.33 58.02 57.04 56.07 54.96 55.72 56.72 54.37 53.78 53.96 53.72 53.49 53.30 53.55
59.71 60.60 61.26 62.58 63.66 61.99 61.30 60.37 60.55 60.10 59.88 58.19 57.14 56.32 57.45 57.76 57.80 57.76 57.17 56.40 55.56 54.47 53.54 52.74 52.85 52.06 52.15 52.11 51.28 50.10 50.68 51.79
57.91 59.24 60.17 60.28 60.16 60.31 59.43 58.49 58.18 57.67 57.38 57.35 57.02 57.17 56.73 56.82 57.52 56.54 56.76 55.46 54.49 53.38 52.86 52.15 51.68 50.78 50.32 50.50 50.84 49.46 48.82 49.60
55.99 57.05 57.75 58.62 58.29 58.04 57.45 57.09 56.63 56.66 56.95 56.51 55.86 55.92 55.06 54.35 54.08 54.05 54.79 54.63 53.98 52.84 51.86 51.82 50.97 50.23 48.74 48.90 49.07 48.25 46.85 47.67
55.58 56.32 56.55 56.72 56.89 57.95 57.18 57.37 56.63 56.67 56.28 55.50 54.18 52.98 52.15 53.97 54.78 53.67 53.35 53.33 52.41 51.04 50.57 50.53 49.95 49.85 48.48 48.79 49.27 47.89 47.02 44.83
54.56 55.24 55.88 56.60 57.36 57.28 57.45 57.05 56.44 56.63 56.24 55.12 53.57 53.91 53.14 52.56 52.29 51.76 51.01 50.71 50.20 49.96 49.35 48.49 48.55 48.24 48.35 48.30 47.13 47.01 46.42 43.91
54.71 55.79 56.32 56.13 57.50 57.36 57.17 56.32 55.93 56.12 55.76 54.99 52.75 51.32 51.29 50.57 50.32 48.72 47.65 47.66 47.54 48.01 48.66 48.16 48.29 48.07 47.52 47.06 46.70 44.52 43.11 43.26
54.45 54.56 54.81 55.61 56.01 56.72 56.52 56.04 55.14 55.70 54.99 53.72 53.54 52.53 51.39 49.27 48.22 46.77 45.51 45.33 45.56 45.69 47.08 47.04 46.76 46.51 46.86 46.34 45.86 44.82 43.76 42.23
54.02 55.04 54.71 54.96 55.70 55.80 56.19 55.29 54.22 54.48 54.65 53.78 53.17 51.70 49.59 48.60 47.28 45.66 44.97 44.75 45.09 46.06 46.11 46.17 45.44 44.71 44.29 43.82 43.63 42.69 41.70 42.10
54.17 54.98 55.08 54.78 54.85 54.96 54.77 54.52 54.19 53.61 52.30 51.75 51.21 49.82 48.87 47.23 46.21 45.77 44.95 45.43 45.37 44.56 44.51 43.88 43.83 42.92 43.17 42.50 41.07 40.81 41.47 40.68
53.36 53.35 53.67 54.01 54.22 54.49 54.55 52.62 51.65 51.50 50.81 49.57 48.68 48.24 47.91 46.58 45.91 44.85 44.50 44.06 44.08 43.52 43.54 43.40 43.06 42.45 42.20 41.56 40.75 40.79 40.15 40.32
52.02 52.63 53.05 53.05 53.25 53.16 51.93 50.59 50.08 49.68 49.37 48.64 47.89 47.22 46.87 46.29 45.21 43.98 43.35 42.93 43.29 43.22 42.67 42.09 41.64 41.23 40.80 40.10 39.97 40.27 39.06 38.21
51.14 51.27 51.30 50.99 50.62 51.21 50.45 49.82 49.38 48.79 48.25 47.31 46.45 46.69 45.57 44.09 43.78 42.81 42.25 41.84 42.28 41.40 41.00 40.23 40.00 39.43 38.99 38.58 37.88 37.89 37.61 36.90
50.31 50.26 50.05 49.52 49.61 49.78 48.28 48.47 48.06 48.07 47.41 46.03 45.58 44.74 43.45 42.29 42.04 41.93 41.87 41.11 40.65 39.34 38.25 37.25 36.90 36.78 36.00 35.61 35.26 35.14 33.93 33.49
49.17 48.86 48.62 48.01 47.23 46.52 47.07 47.39 48.16 47.66 46.49 45.45 44.29 43.36 42.39 41.53 41.50 40.82 40.36 39.95 38.31 37.53 37.44 37.24 36.98 36.24 36.01 35.09 34.58 33.06 32.26 32.17
46.98 46.56 46.78 46.01 45.82 46.30 46.42 46.58 47.62 47.47 45.42 44.75 44.05 43.58 42.93 41.63 41.11 40.58 39.65 38.68 37.77 37.28 36.33 36.07 35.88 35.68 34.19 31.77 31.57 30.46 29.86 29.75
45.33 45.97 45.61 45.26 45.56 45.42 45.58 45.61 46.57 47.02 44.82 44.05 44.39 43.71 42.24 41.22 40.43 39.80 38.59 37.19 36.76 35.91 35.24 34.96 34.14 35.29 31.99 31.43 30.14 27.75 29.10 28.58
44.23 44.54 45.10 44.82 43.95 43.81 43.32 44.49 46.14 45.58 44.83 44.36 43.57 41.56 40.82 40.60 40.14 38.29 36.76 35.72 35.22 34.49 34.30 34.10 33.19 32.82 32.34 31.49 30.22 28.01 27.20 26.79
44.19 44.61 44.00 44.04 43.94 43.71 43.59 43.27 42.97 42.90 43.49 42.97 42.65 41.17 40.60 39.88 38.75 37.30 35.78 35.26 34.21 33.54 33.59 33.04 31.78 32.18 33.12 32.63 30.47 26.73 26.04 25.91

GFSFLT1_sfc_wetblb_015.txt.gz
Wetbulb
56.85 57.68 58.71 58.41 58.83 61.21 61.21 60.28 59.41 57.48 56.48 55.30 54.17 53.86 54.28 54.06 52.98 53.21 53.71 52.74 52.65 51.07 50.39 50.45 50.05 49.80 49.11 48.92 47.81 48.63 48.15 48.46
56.45 56.70 56.72 57.20 56.80 56.92 56.06 55.74 53.39 53.86 52.84 51.85 51.45 50.99 52.31 52.46 52.56 53.37 52.30 51.72 52.27 50.44 49.77 49.36 48.98 48.42 47.58 47.62 47.40 47.55 47.17 47.76
54.40 54.58 54.04 53.82 53.29 53.46 53.22 52.51 52.83 52.37 51.83 51.68 52.44 52.06 51.77 52.14 52.16 52.32 52.18 51.38 50.55 51.01 47.96 47.87 47.56 47.62 46.74 45.92 45.58 45.41 45.36 45.94
52.88 52.82 51.27 51.15 51.09 51.14 52.05 52.00 52.29 52.28 52.00 51.54 50.80 50.26 50.27 50.53 50.94 51.30 51.36 50.03 48.96 47.75 47.20 46.68 46.38 46.90 45.47 44.74 45.36 44.62 43.20 44.14
52.50 51.59 50.57 50.75 50.62 51.15 51.52 52.13 52.11 52.92 51.55 50.19 49.10 48.39 48.44 49.69 48.59 48.42 48.03 47.67 47.16 47.65 46.83 46.07 45.93 45.72 44.69 44.87 47.36 44.26 43.69 41.65
50.10 50.48 51.25 51.33 51.25 50.44 50.60 51.37 51.76 52.00 50.91 50.21 49.50 48.06 48.07 48.77 47.88 45.67 45.45 45.66 46.02 46.48 46.52 45.38 45.07 45.43 44.73 43.92 43.05 42.36 42.53 41.78
50.15 51.08 51.95 51.16 50.81 50.59 50.72 50.99 51.29 51.74 52.20 50.89 48.61 47.54 47.23 45.64 44.49 43.43 43.41 43.78 44.30 44.21 45.25 44.07 44.55 43.92 43.10 43.32 43.40 42.51 43.30 42.83
48.38 49.31 49.98 50.31 50.07 49.93 50.34 50.69 51.02 51.40 50.37 49.60 48.09 47.16 45.38 43.97 42.44 41.73 41.71 42.03 41.84 42.27 42.74 42.73 42.23 42.15 41.95 41.49 41.43 42.48 42.12 41.00
48.19 49.21 48.72 49.26 51.30 49.47 49.99 50.67 50.44 49.73 48.90 48.25 47.12 46.08 45.72 43.72 42.75 42.25 41.59 41.36 41.25 41.33 41.48 41.74 41.90 41.51 40.98 40.51 41.42 39.67 40.33 39.45
48.57 49.33 49.09 49.51 49.37 49.11 48.56 48.71 48.53 48.04 47.13 46.34 46.02 45.49 44.40 42.91 42.33 41.29 41.25 40.65 42.05 40.77 40.93 41.07 40.89 40.74 40.73 40.01 38.47 38.76 39.10 38.60
47.85 48.17 47.78 48.20 48.37 48.11 47.49 47.19 46.79 46.97 46.68 45.41 45.79 44.98 44.29 42.62 41.41 40.20 39.84 39.83 40.15 40.28 40.21 39.80 39.15 39.40 39.76 39.26 37.88 37.95 37.84 37.73
46.53 47.18 47.07 47.01 47.30 47.00 46.30 45.67 45.76 44.85 44.17 43.81 42.63 42.60 42.16 41.49 40.62 39.75 39.36 39.29 39.16 39.64 39.32 38.60 37.51 37.37 37.06 36.93 36.65 37.35 37.23 36.06
45.75 46.23 45.81 45.23 45.00 45.40 44.73 44.62 44.31 44.50 44.38 43.48 42.50 42.11 40.52 39.56 39.33 38.93 38.51 38.39 38.95 38.54 36.97 35.39 35.30 34.46 33.96 32.91 32.35 32.64 31.74 30.84
44.84 44.78 44.52 44.15 43.48 43.21 42.93 43.27 43.25 43.97 43.76 42.55 41.87 41.32 40.92 38.30 38.07 38.39 38.77 37.87 36.38 35.23 34.86 34.38 34.30 34.27 33.42 32.68 32.08 31.46 30.78 30.27
43.63 42.95 43.17 42.77 42.48 42.03 42.37 42.48 42.84 43.82 42.83 41.87 41.36 41.48 41.35 39.92 38.03 37.43 38.53 37.37 35.09 34.13 34.41 34.53 34.41 33.83 33.04 31.83 31.04 29.23 28.42 29.14
42.88 42.02 41.02 40.96 41.17 41.71 41.73 41.66 41.92 43.45 43.07 41.81 41.41 41.78 40.61 39.49 40.69 39.68 39.22 36.96 35.13 34.91 33.84 33.57 33.29 32.98 31.72 29.14 28.72 27.18 26.55 26.84
42.04 42.23 41.66 41.71 41.15 39.71 40.14 39.78 41.12 42.78 41.53 41.81 41.83 40.65 40.40 40.45 39.92 40.16 38.14 34.38 34.18 33.49 32.29 32.45 31.07 32.51 31.97 31.25 29.35 26.03 26.61 25.97
41.28 41.47 41.80 40.40 39.01 39.56 37.51 37.85 38.82 38.23 38.32 41.03 41.22 41.16 40.00 39.51 40.64 39.69 35.80 31.96 32.10 32.58 31.05 30.93 30.19 29.63 32.91 32.75 31.04 27.30 25.56 24.43
41.28 41.26 38.83 38.83 37.85 37.17 37.08 37.26 37.15 36.69 37.78 38.83 39.40 39.37 38.53 38.98 38.75 37.46 33.14 32.49 32.01 29.87 29.32 29.45 29.01 30.59 32.88 33.20 31.90 26.98 25.04 25.22

GFSFLT1_sfc_wetblb_018.txt.gz
Wetbulb
55.26 56.09 57.86 59.56 59.24 59.59 59.45 59.72 59.33 57.29 54.40 52.77 52.88 52.43 52.83 51.67 51.08 51.27 51.15 50.95 50.65 48.99 48.85 49.05 48.75 47.73 46.79 46.20 45.36 45.95 45.32 45.42
53.23 53.31 53.86 53.74 53.90 54.17 54.59 54.80 54.16 54.07 51.37 50.30 50.71 49.89 50.25 50.06 50.73 51.08 50.72 50.13 49.59 48.80 48.00 47.06 46.86 46.55 45.47 45.48 44.87 44.15 44.72 45.16
51.29 51.61 52.24 52.90 52.83 53.05 51.86 50.81 51.03 50.93 50.55 51.33 51.54 50.26 49.80 50.43 51.84 50.35 49.24 48.08 47.73 47.45 45.42 45.12 45.42 44.97 44.21 43.52 43.25 43.41 44.02 44.47
50.27 50.73 49.75 48.82 49.10 49.37 50.23 50.24 50.97 50.67 51.17 50.21 49.98 50.26 49.48 48.68 48.18 46.66 46.48 47.47 47.00 45.67 45.09 44.61 44.38 44.20 43.36 43.03 43.44 42.74 41.70 42.73
50.35 49.52 48.70 48.84 48.22 48.61 49.59 50.60 50.50 50.51 50.29 49.16 48.59 47.77 46.93 47.14 45.64 44.10 43.98 45.17 45.05 45.05 45.00 43.85 43.61 44.01 43.28 43.47 44.00 42.08 41.59 40.11
48.66 50.09 49.65 49.31 48.89 48.41 48.89 49.59 50.08 49.93 49.21 48.87 48.40 46.00 45.94 45.54 44.17 42.94 43.35 43.94 44.22 44.36 43.99 42.97 42.76 42.93 41.92 42.11 41.19 40.48 40.74 39.73
48.74 49.73 50.05 49.31 48.58 48.76 48.11 49.55 49.63 50.05 49.26 47.89 46.38 45.87 44.51 43.05 41.96 41.71 43.37 43.28 42.16 42.04 42.64 41.47 41.12 40.75 39.91 40.13 39.91 39.71 39.32 39.15
47.56 48.40 48.25 48.18 47.89 48.19 49.10 48.75 48.64 48.96 47.84 46.46 45.53 43.97 42.77 42.60 43.51 43.13 42.74 41.40 40.59 39.60 40.29 40.31 40.32 40.32 40.30 39.79 39.68 40.69 40.42 39.57
46.22 46.29 46.43 47.03 47.65 47.30 47.70 47.13 46.61 46.79 46.81 45.35 44.81 44.41 44.95 44.72 43.95 42.46 41.85 39.57 39.46 39.43 40.13 40.53 40.55 40.25 39.83 39.17 38.37 38.19 38.87 37.22
46.26 46.73 46.34 46.62 46.45 46.19 47.43 46.75 46.03 45.85 45.26 44.30 43.92 44.72 45.30 44.35 42.08 40.60 39.63 39.30 40.52 39.46 39.43 39.04 39.21 38.60 38.83 38.45 36.92 36.43 36.04 35.94
45.24 45.46 45.89 45.88 45.77 45.08 45.07 45.12 45.01 45.20 44.41 43.57 43.79 43.38 43.44 41.17 40.10 39.06 38.75 38.58 39.10 38.39 37.82 37.47 36.86 36.11 36.25 35.82 35.01 35.28 35.06 34.32
44.80 45.28 45.10 44.19 44.56 43.55 43.01 42.61 42.98 43.24 42.77 42.65 41.65 41.09 41.30 40.44 39.21 38.76 38.20 38.30 38.72 39.43 38.16 35.93 34.73 33.77 33.43 32.07 31.89 32.33 30.97 30.09
44.55 44.33 42.98 42.26 41.86 41.79 41.43 41.65 41.85 42.73 42.98 42.22 40.88 40.48 39.53 39.35 38.90 38.73 38.68 39.37 39.72 38.78 37.57 35.52 34.58 33.40 32.36 31.20 30.88 30.69 29.77 28.77
42.52 42.18 41.99 42.21 41.60 41.41 40.91 40.84 40.72 41.22 41.71 40.60 40.57 40.31 38.98 38.21 38.18 37.95 38.72 37.75 37.50 37.01 34.02 34.98 34.09 33.41 32.05 31.07 29.97 29.10 28.09 27.76
41.04 40.56 40.62 40.27 40.57 40.00 39.82 39.20 39.60 41.25 41.43 40.38 39.66 39.51 39.74 38.56 36.86 39.24 39.65 38.13 38.45 37.12 35.30 34.70 33.89 32.75 31.42 30.06 29.30 27.35 27.00 27.34
41.11 40.80 39.77 39.18 39.53 38.84 37.83 37.79 39.06 39.89 39.00 38.15 38.74 39.15 39.07 38.65 38.92 38.18 38.97 38.91 38.42 35.01 34.19 32.61 32.02 31.02 30.72 28.31 28.12 27.38 26.33 26.04
40.44 40.54 40.12 40.28 38.26 36.38 36.75 36.62 36.85 37.20 36.16 38.98 39.61 39.71 39.24 38.73 38.55 38.25 37.89 38.11 34.75 33.70 32.57 31.97 30.18 31.39 32.29 32.06 30.87 26.40 26.66 25.89
39.42 39.36 39.56 36.82 35.62 36.07 34.78 35.67 36.44 35.60 37.71 38.28 38.54 38.64 38.32 37.84 38.30 38.59 37.74 35.26 33.04 31.27 30.97 30.82 28.49 29.27 32.73 33.63 32.32 28.34 26.42 25.02
38.99 37.89 35.80 35.33 34.84 34.71 35.02 35.45 34.78 35.21 36.22 36.67 36.76 36.94 36.43 36.87 36.72 36.33 35.72 32.22 32.58 30.32 29.69 28.38 27.99 29.01 32.16 31.11 30.25 26.25 24.87 25.03

GFSFLT1_sfc_wetblb_021.txt.gz
Wetbulb
54.96 57.74 58.02 57.81 58.51 59.11 59.84 60.04 58.75 56.56 53.71 52.32 51.48 51.07 50.45 49.84 49.15 48.75 48.88 48.99 48.64 48.63 46.83 46.18 46.72 45.55 44.62 44.31 42.95 43.70 43.08 43.43
51.81 52.78 54.21 53.92 54.90 56.70 57.52 56.93 54.38 51.76 51.14 50.29 49.62 48.32 49.82 50.90 50.80 50.17 49.15 48.66 48.00 45.59 45.06 44.76 44.76 43.63 42.71 43.18 42.69 42.39 42.94 43.76
51.17 51.74 52.06 53.51 54.31 53.21 49.99 49.95 50.26 50.47 50.20 50.54 52.33 53.16 52.57 51.15 49.08 47.96 47.82 46.72 46.20 45.63 43.70 43.31 43.47 43.46 43.27 42.70 42.41 42.00 42.22 42.68
50.03 50.54 49.83 48.73 47.85 48.16 49.15 49.47 49.89 50.96 51.80 51.15 50.30 50.07 48.92 46.59 45.00 43.63 44.66 45.39 44.72 44.36 43.84 43.29 43.23 43.18 42.07 41.71 41.14 40.68 39.56 40.83
49.02 47.65 46.43 47.12 46.89 47.13 48.37 48.86 48.94 49.31 48.92 48.24 47.81 47.34 46.35 45.77 43.22 42.37 42.73 43.64 43.62 44.66 43.54 44.02 42.41 41.76 40.93 41.19 41.92 39.53 39.19 37.66
47.21 47.18 47.64 47.45 46.96 46.69 47.05 48.33 48.96 48.64 48.19 47.95 47.64 45.92 44.97 43.39 42.21 41.59 43.50 44.36 43.11 44.78 43.89 41.64 40.14 40.14 39.11 39.21 39.25 38.70 38.76 37.54
47.27 48.36 48.64 47.49 46.67 46.29 46.61 47.54 47.66 48.04 47.19 46.36 45.40 43.97 42.85 41.60 42.57 43.28 43.84 43.77 43.27 41.14 41.42 40.15 39.95 39.34 38.86 38.65 38.20 37.78 37.33 37.24
47.05 47.87 48.35 48.05 46.27 46.44 46.46 46.78 46.85 47.09 45.75 44.63 44.02 43.42 42.45 42.21 42.09 41.72 41.19 40.50 39.31 38.25 39.58 39.60 39.34 39.33 39.28 38.76 37.86 37.32 36.84 35.80
46.52 46.51 46.07 45.31 45.64 44.88 44.91 45.17 44.88 45.79 44.79 44.15 43.70 43.32 42.73 42.68 41.90 40.75 39.77 39.42 38.19 38.55 39.05 39.65 39.57 39.39 38.75 38.44 37.53 36.41 36.61 34.77
44.01 44.76 44.89 44.45 44.28 44.43 44.26 44.46 44.37 44.32 44.03 43.05 42.90 42.89 42.62 41.87 41.06 39.46 39.10 38.29 39.37 38.62 38.27 38.89 39.56 38.71 37.78 38.50 35.55 34.09 34.03 33.69
43.13 43.60 44.55 45.20 44.92 43.89 43.20 43.25 43.19 43.87 43.65 42.59 42.52 41.64 42.15 41.43 39.64 38.95 38.52 37.92 38.65 38.52 39.46 38.25 36.99 36.65 35.03 33.30 32.14 32.98 33.41 30.47
42.65 43.62 43.78 43.62 42.88 42.46 40.67 40.61 40.85 41.79 41.67 41.03 40.47 40.16 40.02 39.89 39.03 38.13 37.54 37.41 39.71 39.90 39.51 37.91 35.07 33.79 32.86 31.99 31.35 31.78 30.39 28.76
43.25 43.63 43.14 42.59 41.08 39.88 39.97 39.33 38.98 39.63 40.16 40.20 39.66 39.29 39.11 37.79 37.88 37.60 37.53 37.17 37.05 36.82 36.76 36.33 34.69 33.93 33.42 30.95 30.93 30.51 28.46 27.25
40.72 41.06 40.66 40.30 40.38 41.18 38.61 37.83 38.30 39.77 39.17 37.73 37.57 38.07 38.40 37.61 37.54 37.07 37.04 36.11 36.44 36.66 37.63 34.37 33.99 33.31 31.89 30.75 29.28 28.11 27.41 27.27
39.27 38.99 39.36 39.16 40.00 38.30 36.54 36.67 37.57 37.93 36.83 36.88 37.52 37.94 38.22 37.25 36.46 35.56 36.08 36.80 37.43 37.74 35.85 34.35 33.68 32.73 31.98 29.70 28.26 27.50 27.04 27.13
39.55 39.31 39.75 39.02 37.17 35.59 35.48 35.48 35.94 36.83 36.18 37.18 37.39 37.88 38.01 37.57 37.41 37.12 37.10 38.35 38.80 36.89 34.08 32.40 31.99 32.05 30.44 28.39 28.19 27.47 26.60 26.08
39.80 39.50 38.67 37.43 35.33 34.41 35.03 35.14 35.14 35.25 35.99 37.03 38.17 38.24 37.97 37.41 37.16 37.02 37.14 37.80 35.36 34.05 32.35 30.93 30.42 30.93 32.49 32.90 32.25 28.31 27.42 26.76
38.35 38.22 37.42 35.07 34.01 34.32 33.64 34.16 34.66 34.06 35.99 36.79 37.03 36.49 35.81 35.56 36.32 36.12 35.26 34.85 35.01 29.83 29.58 29.39 28.36 27.62 32.59 32.17 30.78 27.93 26.01 25.06
37.36 35.70 34.69 34.11 33.36 33.26 33.49 33.47 33.14 33.29 35.09 35.49 35.56 35.37 34.97 35.03 34.87 34.15 32.34 32.00 30.15 27.80 27.74 28.05 27.04 28.66 29.85 29.17 28.80 24.19 23.05 23.41

GFSFLT1_sfc_wetblb_024.txt.gz
Wetbulb
54.49 56.19 57.83 58.34 58.75 59.33 59.61 59.04 58.07 56.79 54.27 53.03 52.39 50.81 48.94 49.21 49.37 51.40 47.82 49.35 48.46 48.37 47.08 45.22 44.40 43.38 43.13 42.89 42.36 43.02 42.63 43.18
52.85 54.03 55.68 56.65 57.73 58.82 59.05 59.15 57.73 51.93 51.59 50.59 49.51 48.16 49.23 52.04 48.22 48.36 48.63 47.46 45.78 43.92 43.42 43.38 43.54 42.90 42.39 42.98 42.39 41.86 42.49 42.49
51.00 52.31 53.63 55.14 56.07 56.09 54.77 54.21 53.02 50.77 51.10 50.61 50.56 50.53 50.96 48.45 46.32 44.59 44.80 44.30 44.22 44.22 42.72 42.71 43.00 42.59 42.07 41.72 40.72 40.48 40.87 41.38
50.31 51.37 50.81 49.27 47.74 47.87 49.00 49.11 49.28 50.12 50.77 49.55 48.12 47.86 46.79 44.43 42.74 41.95 42.77 43.99 43.75 43.35 43.15 42.88 42.65 42.29 41.24 40.35 39.64 38.82 37.84 39.15
47.61 46.81 46.21 45.51 45.34 46.14 46.72 47.68 48.00 48.40 47.85 47.27 46.61 45.33 44.91 43.31 41.76 41.18 41.58 42.96 43.53 43.90 42.84 43.50 41.35 40.68 39.83 39.90 40.72 38.67 38.19 36.47
45.95 45.72 45.96 45.16 45.41 45.14 45.87 47.62 47.60 47.50 47.20 47.07 45.39 43.36 42.50 41.61 40.98 42.05 43.51 44.25 43.93 43.03 42.21 40.31 39.23 39.08 38.36 38.10 37.86 37.34 37.73 36.67
47.05 47.21 46.99 45.66 46.57 47.38 46.63 47.80 47.10 47.05 45.97 45.51 44.60 42.60 41.45 40.58 40.87 42.98 43.13 41.47 41.63 40.38 40.42 39.32 39.05 38.59 37.88 37.55 37.37 36.79 36.53 36.16
45.42 46.54 46.89 47.03 46.56 45.16 45.50 45.80 45.24 45.32 44.65 44.05 43.92 43.13 42.24 41.83 41.40 40.80 40.21 39.92 39.16 37.77 38.80 38.68 38.40 38.38 38.75 38.18 37.12 36.47 35.66 35.52
45.67 46.56 45.81 44.64 44.09 43.60 43.75 44.15 44.58 44.50 43.95 43.28 42.96 42.80 41.66 41.42 41.29 40.48 39.67 38.78 38.01 37.48 37.99 38.84 38.90 39.05 38.49 38.02 37.69 36.73 35.62 34.57
43.70 43.72 43.24 43.25 43.45 43.45 43.45 43.55 43.65 43.80 43.61 42.39 41.83 41.57 41.63 41.11 40.51 39.45 38.40 38.26 38.81 37.68 38.47 39.79 40.11 38.95 37.77 36.63 35.90 34.23 33.81 32.74
42.57 43.04 43.00 42.97 42.71 42.12 41.87 41.99 41.84 42.38 42.57 41.15 40.85 39.92 39.90 39.35 39.15 38.40 37.99 37.78 37.56 40.04 39.32 38.14 37.41 36.22 35.64 33.96 33.36 32.39 32.52 31.51
41.67 42.58 42.78 41.68 40.95 41.14 40.30 39.66 39.51 40.38 40.48 40.05 39.03 38.34 38.52 38.21 37.72 37.63 37.37 37.88 38.53 37.86 37.38 36.64 35.68 35.19 34.28 32.50 32.06 31.32 30.42 29.26
40.57 40.92 41.34 41.26 40.25 39.46 39.14 37.81 39.23 38.51 38.72 37.47 36.89 37.46 38.01 37.04 36.35 36.69 36.72 36.54 36.61 36.23 35.18 36.83 37.54 35.54 32.19 32.18 30.17 31.03 29.29 27.93
39.84 40.03 39.56 40.47 39.54 38.97 37.65 38.44 38.00 38.22 36.46 35.52 36.21 37.03 36.93 36.00 35.99 36.26 36.26 35.31 34.79 35.35 38.39 37.70 34.12 32.88 31.66 30.26 29.86 29.15 27.88 27.26
38.18 38.29 38.00 37.88 38.50 38.51 36.72 36.24 36.96 36.35 35.03 35.58 36.06 35.90 35.82 35.61 35.70 35.73 35.41 35.23 35.62 37.58 37.90 36.47 32.98 31.65 31.26 29.85 28.84 27.82 27.31 27.49
37.97 38.09 38.51 38.74 38.08 35.85 35.86 35.59 35.17 35.19 34.29 35.59 35.58 36.48 36.73 36.47 35.99 35.76 35.94 35.98 36.88 35.88 33.73 32.69 31.27 30.80 30.34 28.61 28.75 28.47 27.61 26.90
38.61 39.22 39.04 38.44 35.38 33.67 33.95 33.96 33.94 34.11 33.18 35.41 36.62 36.28 35.85 35.32 34.83 34.91 35.16 35.04 35.75 35.91 32.52 29.87 28.10 30.19 32.95 33.11 30.34 27.91 27.03 25.86
38.27 39.06 38.09 35.16 33.11 33.26 32.56 32.77 33.14 32.58 33.09 35.24 35.60 35.37 34.73 34.23 34.29 33.98 33.59 34.75 35.26 30.33 27.98 27.70 26.81 28.68 31.17 29.96 29.78 26.50 23.94 23.17
38.75 37.97 34.96 33.31 32.47 32.21 31.95 32.11 31.76 31.31 33.79 34.53 34.44 34.15 33.45 33.68 33.03 33.04 31.92 30.24 29.93 27.27 27.10 27.07 26.60 27.06 28.62 28.16 27.71 24.28 22.93 22.91

GFSFLT1_sfc_wetblb_027.txt.gz
Wetbulb
55.64 57.74 59.97 61.01 61.45 61.25 61.51 62.14 59.69 55.98 55.38 54.72 54.13 53.73 53.32 53.36 53.47 53.55 52.71 52.01 52.22 51.97 51.12 51.23 51.66 50.63 49.80 49.35 48.55 48.57 48.64 47.77
56.72 57.42 59.94 60.84 61.19 61.14 61.38 59.21 57.32 54.97 54.98 53.53 53.31 52.95 53.10 52.92 51.47 52.50 51.85 51.24 50.80 51.22 50.85 50.78 50.53 49.06 48.28 48.08 47.34 46.52 46.06 47.50
55.38 57.87 59.82 60.36 60.41 61.08 60.71 59.99 56.34 55.07 55.77 56.17 57.15 56.07 54.66 51.77 50.84 50.40 50.51 50.71 50.75 50.06 50.21 49.48 49.03 47.98 47.53 47.07 46.71 45.01 45.48 46.69
55.78 57.05 58.83 59.38 59.03 59.33 59.90 58.87 56.07 56.25 56.03 55.94 54.68 53.20 51.17 49.96 49.63 49.39 49.70 49.93 49.41 49.68 49.38 49.28 48.70 48.30 46.26 46.33 46.04 44.82 42.44 44.67
55.23 55.03 52.74 52.48 51.90 53.60 55.14 56.07 55.01 54.81 54.42 54.14 53.63 53.67 52.83 51.32 50.27 49.91 49.79 48.59 48.67 48.88 48.69 48.36 48.00 47.80 45.96 45.67 45.80 45.12 43.66 40.71
51.68 50.80 51.02 50.68 51.55 52.49 53.35 53.27 53.05 53.10 53.26 53.57 52.65 51.12 49.92 49.36 49.38 48.57 49.30 49.54 48.83 48.47 48.09 47.40 47.34 47.02 46.22 45.20 44.99 43.81 43.61 41.55
49.95 50.73 50.83 51.37 52.50 52.74 52.62 52.67 51.93 52.24 52.51 52.18 51.54 50.38 49.58 49.45 49.65 49.84 50.04 49.74 49.30 48.33 46.55 46.73 46.75 45.72 44.82 44.38 44.35 43.43 42.59 42.04
50.14 50.26 50.65 50.99 50.84 51.57 52.06 52.07 50.71 51.22 51.54 51.53 51.42 50.93 50.23 49.47 49.19 48.81 48.15 48.22 47.68 47.00 46.04 45.92 45.63 45.34 45.20 44.79 44.24 43.72 42.82 40.91
50.20 50.54 51.06 50.85 50.18 50.64 50.77 50.73 49.88 50.47 50.69 50.24 49.72 48.94 48.97 48.63 48.28 48.17 47.58 47.04 46.74 46.53 45.38 45.52 45.48 45.35 44.78 44.51 43.91 43.09 42.89 40.68
50.10 50.08 49.74 49.26 49.11 49.24 49.74 49.62 49.20 49.36 49.32 48.90 48.68 48.18 47.75 47.36 47.07 46.75 46.01 45.89 45.33 45.54 45.12 44.56 44.83 44.70 43.96 43.55 42.27 41.16 40.66 40.09
48.55 48.18 48.00 48.15 48.57 48.02 48.11 48.00 47.49 48.37 48.77 48.08 46.95 46.31 45.63 45.41 45.61 45.29 45.48 45.64 45.62 45.34 45.43 44.73 43.44 42.49 41.58 40.95 39.73 39.80 38.70 39.13
47.33 47.24 47.58 46.95 46.47 46.29 46.28 45.06 45.80 46.25 46.37 45.13 44.43 44.45 44.58 44.99 44.86 44.74 44.60 44.73 44.53 43.99 43.43 42.87 41.77 39.29 40.53 41.22 39.28 38.29 37.06 37.36
46.83 46.95 45.93 45.29 44.89 45.00 43.07 43.85 45.08 44.51 43.13 43.15 43.21 43.90 44.31 43.43 42.97 42.94 43.40 42.40 42.54 41.92 41.85 41.09 41.35 41.61 40.83 39.88 37.53 37.38 36.07 35.35
44.83 45.01 45.03 44.78 44.19 43.78 42.93 43.74 43.44 42.55 42.51 42.39 42.78 43.04 42.40 41.67 41.91 42.14 41.99 41.50 41.80 41.99 40.93 41.22 40.30 39.51 37.50 37.06 36.01 34.88 34.01 33.80
44.39 43.94 43.58 43.21 43.71 43.35 41.66 41.33 42.05 42.19 41.35 41.46 41.69 42.06 41.70 41.68 41.67 41.12 40.78 41.20 41.32 41.65 41.04 39.08 38.36 36.66 36.12 35.03 33.95 34.18 34.24 33.67
42.33 42.89 42.77 43.04 42.82 41.86 40.16 40.86 41.13 40.88 40.48 39.73 41.09 41.84 41.85 41.11 40.53 40.32 40.55 40.69 40.83 39.05 36.08 35.47 35.67 35.41 34.53 35.09 34.63 33.43 32.50 31.04
42.15 42.42 42.37 42.59 42.01 40.20 39.19 39.55 39.64 39.64 39.31 38.73 40.63 41.17 40.41 40.09 39.81 39.68 39.56 39.48 39.44 38.79 35.77 35.06 33.85 34.16 32.63 31.27 31.48 31.53 30.01 28.43
41.72 41.95 42.34 42.57 40.45 39.22 38.92 38.84 38.83 37.95 37.48 38.55 39.42 39.33 38.89 38.68 38.53 38.04 37.73 38.39 37.92 36.72 34.83 33.83 33.18 32.97 29.93 29.49 28.82 30.18 28.10 27.39
41.82 42.13 41.59 40.00 39.15 38.72 38.12 37.96 37.12 36.65 37.34 38.42 38.42 38.38 37.54 37.76 37.21 36.62 36.83 37.75 36.84 36.26 33.80 32.70 32.37 30.21 28.35 27.78 27.33 28.46 27.61 26.79

GFSFLT1_sfc_wetblb_030.txt.gz
Wetbulb
60.27 61.49 62.85 64.38 65.20 65.15 64.97 64.64 62.38 60.96 57.26 57.58 57.78 58.20 57.26 57.46 57.08 56.26 55.65 56.00 56.18 56.37 55.76 55.71 55.43 54.50 52.70 51.65 50.88 51.09 50.08 49.57
60.59 61.42 63.49 64.15 64.61 64.45 64.79 63.56 61.08 60.90 59.09 56.05 56.46 55.31 55.17 54.96 56.32 56.42 56.09 55.63 55.25 55.94 56.29 54.98 53.94 52.09 51.18 51.14 50.15 49.32 48.65 49.74
59.70 61.15 62.82 63.30 63.57 63.84 64.42 63.34 63.93 63.51 62.51 60.72 60.03 58.89 58.92 58.08 56.54 55.57 55.35 55.18 55.14 54.83 54.01 53.65 52.30 51.51 51.28 50.30 49.25 47.31 47.33 48.29
59.77 60.47 61.39 62.62 62.83 63.26 63.32 64.30 63.58 62.51 61.35 60.22 59.86 58.73 56.95 55.48 55.18 55.07 54.97 54.65 54.51 54.35 53.58 52.81 52.43 51.11 49.31 49.53 48.80 47.00 44.70 46.48
60.33 61.17 61.76 62.83 63.37 64.28 64.17 62.58 60.77 60.13 60.23 59.56 58.12 58.53 57.04 57.66 57.66 56.21 54.95 53.98 53.65 53.03 52.14 52.15 51.64 51.07 50.03 48.85 47.78 47.23 46.11 43.53
59.23 59.40 59.55 59.36 59.87 61.32 62.74 60.97 59.30 58.93 58.37 58.04 58.16 56.52 55.99 55.38 55.10 53.29 54.59 54.51 53.17 52.40 52.06 51.83 51.31 50.82 49.98 48.84 47.64 47.41 46.17 44.11
56.90 56.82 56.63 56.81 58.10 58.83 59.48 58.18 57.43 57.58 57.59 57.29 56.65 55.54 53.98 54.04 53.48 52.12 51.50 51.68 52.06 52.22 52.24 51.90 51.44 50.50 49.35 48.26 47.85 46.93 45.31 44.24
54.59 54.73 54.99 55.61 56.09 56.91 57.17 56.84 55.74 56.65 56.32 55.40 54.33 53.10 51.81 50.24 50.16 50.50 50.34 50.10 50.30 50.32 51.10 51.03 50.48 50.10 48.77 47.81 47.10 46.36 44.97 43.06
54.73 55.06 55.38 55.55 55.87 56.68 56.58 55.99 54.97 55.07 54.32 52.97 52.67 51.39 53.49 52.35 51.30 50.99 49.34 48.26 48.58 49.91 50.08 49.48 48.99 48.88 48.21 47.41 46.37 45.43 45.25 43.13
54.76 55.24 55.67 55.63 55.54 55.34 55.37 54.46 53.16 52.42 51.82 51.82 51.94 53.19 51.68 50.12 48.03 48.29 48.04 48.16 46.94 47.01 47.61 47.21 47.27 47.14 47.05 46.58 45.13 44.56 43.36 42.21
54.88 55.09 54.92 55.22 55.06 54.13 53.53 52.37 51.02 50.34 50.56 51.47 51.88 49.69 48.64 48.46 48.13 46.32 46.06 46.27 46.07 45.68 45.42 45.29 45.82 46.09 46.03 45.12 43.72 43.86 41.87 42.13
54.65 54.52 54.33 54.08 53.18 52.11 51.32 49.98 49.21 50.27 50.05 49.69 48.31 47.33 47.62 47.75 46.45 45.59 45.47 45.58 45.06 44.27 44.37 44.35 44.33 44.52 44.79 43.90 43.62 42.56 40.91 39.82
54.29 53.51 52.82 51.28 50.53 50.40 48.87 48.68 49.08 48.78 48.52 47.26 45.97 46.76 46.67 45.75 45.02 44.69 45.41 44.53 44.49 43.90 44.17 43.79 43.48 42.85 43.34 42.21 40.70 39.86 38.88 38.38
52.82 52.23 50.82 50.09 49.42 49.09 48.45 48.21 48.17 47.68 45.89 45.29 45.52 45.59 45.00 44.40 44.36 44.77 44.53 43.75 43.37 43.99 43.68 42.33 41.21 41.65 42.09 40.66 39.36 38.62 38.58 38.30
51.66 50.99 50.58 49.68 48.82 48.68 47.46 46.60 47.62 46.13 44.91 44.58 44.67 44.84 44.64 44.71 44.45 44.18 43.64 43.23 42.81 42.87 42.45 41.06 40.48 40.32 39.57 39.05 38.65 38.03 38.39 37.83
50.09 50.14 49.72 48.77 48.15 48.27 47.19 45.12 46.04 45.32 44.08 43.87 43.82 44.54 45.05 44.41 43.92 43.34 42.92 42.60 42.54 42.53 41.17 40.64 39.92 39.38 38.55 38.70 38.32 37.72 36.81 35.80
49.60 49.52 48.60 47.61 47.61 47.42 43.73 45.45 44.53 43.96 43.19 43.13 43.26 43.66 43.64 43.22 42.81 41.91 41.67 41.54 41.84 41.56 40.24 39.08 38.74 38.08 31.27 30.57 31.31 35.54 35.27 33.64
48.83 48.43 47.96 47.63 47.19 44.20 44.86 43.95 43.52 42.68 42.88 42.26 42.15 42.77 41.93 41.53 41.12 40.79 40.48 40.44 41.19 40.14 39.36 39.39 38.22 37.81 29.77 28.97 28.61 33.77 33.13 32.53
49.25 48.77 47.21 47.26 45.87 44.38 44.00 42.89 42.35 42.23 41.26 41.17 41.61 41.38 40.57 40.62 40.38 39.96 40.22 40.26 39.93 39.46 38.92 38.61 37.89 35.65 28.44 27.76 27.87 33.08 32.78 32.10

GFSFLT1_sfc_wetblb_033.txt.gz
Wetbulb
61.45 61.94 62.07 62.87 65.44 66.20 65.70 65.27 64.12 62.83 62.32 60.85 60.44 59.69 59.45 58.64 57.83 58.04 57.15 57.67 58.26 58.45 57.77 57.89 56.63 55.60 54.56 53.45 52.60 51.71 50.28 49.17
62.39 62.65 63.17 64.43 65.89 65.57 65.16 64.65 64.08 62.98 62.71 61.24 60.64 59.43 58.80 58.30 58.14 58.18 58.60 58.21 57.52 58.06 57.74 56.51 55.57 54.07 53.03 53.01 51.10 49.37 48.41 49.22
61.42 62.61 63.97 64.55 65.14 64.68 63.86 63.82 63.97 63.43 63.92 62.66 61.84 60.36 59.68 59.59 59.10 58.47 57.97 57.42 57.13 56.70 55.44 54.64 54.19 52.65 52.03 51.25 50.37 48.33 47.75 48.26
61.05 61.81 63.33 63.92 62.90 63.31 63.18 63.70 63.55 64.21 63.59 62.10 61.26 61.10 59.77 57.77 57.09 56.95 57.05 56.67 56.16 55.12 54.41 53.56 52.76 51.79 49.99 50.58 49.92 47.99 45.27 46.54
61.98 62.41 61.75 62.14 62.48 63.93 64.94 64.77 64.46 63.09 62.14 60.68 59.77 58.24 55.93 57.73 58.30 57.95 56.65 55.78 54.91 54.03 53.33 52.99 52.42 51.69 50.67 50.16 49.44 48.37 47.05 44.05
61.22 61.83 62.85 64.15 64.42 64.26 64.63 63.54 61.84 61.13 60.91 60.50 59.66 58.09 58.87 58.09 57.62 55.81 55.97 55.79 54.97 53.55 53.18 52.93 52.00 51.32 50.88 50.29 49.40 48.06 47.04 44.99
61.53 62.10 61.96 61.51 62.85 63.43 63.00 60.73 59.78 60.19 59.71 59.45 58.61 57.68 56.31 55.47 54.59 53.27 52.07 51.90 52.14 52.62 52.15 51.99 51.69 50.65 50.32 49.74 49.38 47.57 46.77 45.59
58.52 57.66 57.51 58.44 59.53 60.70 60.82 59.18 58.02 58.76 58.67 58.27 57.56 56.23 53.87 51.78 51.69 50.91 50.62 50.15 49.82 49.84 50.31 49.94 49.54 49.28 48.98 48.64 47.72 46.76 46.59 45.19
56.63 56.50 57.07 57.29 57.92 58.58 58.45 58.09 57.39 57.79 57.31 55.76 54.64 52.53 51.62 51.24 51.77 50.71 48.92 48.37 48.78 49.42 48.38 48.21 48.05 47.95 47.75 48.07 47.18 46.85 46.53 45.31
55.99 56.53 57.14 57.49 57.85 58.14 58.17 57.62 57.04 56.42 54.74 53.24 52.65 52.06 50.64 49.76 49.49 49.53 48.64 48.52 47.17 47.11 47.11 46.34 46.25 45.96 46.27 46.58 46.06 45.49 45.49 44.90
56.30 56.63 57.15 57.75 57.99 58.10 58.18 57.42 55.34 53.55 52.74 52.26 51.82 51.10 50.13 49.22 48.59 47.52 47.11 47.04 46.79 46.34 45.68 45.35 45.35 45.44 45.44 45.25 44.79 45.05 44.00 44.02
56.56 56.89 57.55 57.72 57.71 56.98 55.92 54.52 52.83 52.05 51.99 51.77 50.31 48.61 48.80 48.49 47.54 47.18 46.22 46.39 45.97 44.84 44.60 44.64 44.53 44.25 44.55 44.19 43.81 43.60 42.33 41.37
57.05 57.29 57.17 56.76 56.13 55.41 54.17 52.78 51.52 52.06 51.22 49.02 48.05 48.66 47.87 47.30 46.62 45.95 46.23 45.50 45.52 44.43 44.33 44.10 43.98 43.83 43.39 42.75 42.04 40.78 40.36 39.31
56.89 56.96 56.22 55.55 54.86 53.97 52.66 51.21 50.95 50.58 49.31 48.18 47.87 47.29 47.06 46.85 46.02 45.98 45.88 45.20 44.31 44.13 43.98 43.44 42.71 42.16 41.07 40.98 40.42 39.40 39.25 38.77
56.50 56.09 55.59 55.02 53.89 53.05 51.63 50.58 50.94 50.19 47.59 46.80 46.47 46.43 46.76 46.18 45.97 45.69 45.17 44.60 43.42 43.47 43.55 43.24 42.20 41.36 40.33 39.78 39.36 39.08 38.65 38.41
55.06 54.99 54.93 54.26 52.99 52.21 51.06 50.10 49.57 47.46 47.30 45.96 45.93 46.25 46.08 45.68 45.26 45.07 44.48 43.62 43.31 43.35 42.73 42.13 41.01 40.19 39.43 38.69 38.90 38.26 36.99 36.54
54.15 54.48 54.31 53.47 52.24 51.22 50.01 48.24 47.17 47.50 45.93 45.12 45.39 44.92 44.33 44.53 44.31 43.83 43.07 42.61 42.63 42.47 42.00 41.07 40.33 39.28 31.71 31.44 31.37 35.60 35.69 35.10
53.70 53.77 53.67 53.11 51.91 50.86 48.17 47.41 47.56 45.57 44.62 44.67 44.24 43.59 43.49 43.09 42.86 42.32 41.71 41.76 42.10 41.53 41.28 40.39 39.76 39.53 31.56 30.09 29.18 33.47 34.35 34.59
53.68 53.78 53.41 52.90 51.96 49.40 47.97 47.40 44.95 43.84 43.96 43.59 42.92 42.90 41.84 42.20 41.64 41.20 41.31 41.54 41.13 40.37 40.17 39.94 39.41 37.32 30.97 29.43 28.66 32.42 34.57 34.43

GFSFLT1_sfc_wetblb_036.txt.gz
Wetbulb
58.48 59.67 61.39 63.16 63.88 64.18 64.41 64.36 62.91 62.30 61.60 61.41 60.65 59.75 59.31 58.96 57.74 57.11 56.32 56.07 57.27 56.69 55.71 54.91 54.19 52.65 51.59 50.51 48.74 47.61 46.00 45.21
60.69 61.54 61.69 62.25 64.65 64.12 64.05 62.62 62.07 61.06 61.16 60.13 59.59 58.15 57.63 57.21 57.27 57.28 57.38 56.86 56.43 55.39 55.01 53.94 52.53 51.28 49.95 49.34 47.23 45.68 44.78 45.12
60.73 61.30 61.64 62.65 63.84 63.96 63.20 62.63 61.79 62.01 62.34 61.56 60.88 58.95 58.09 57.55 57.57 57.19 56.82 56.14 55.84 55.25 52.75 52.04 51.47 49.79 48.57 47.85 46.55 44.84 43.74 44.26
59.90 60.80 62.12 63.43 63.44 63.05 62.76 62.50 62.38 62.55 62.15 61.36 59.87 59.16 58.11 56.12 55.31 54.76 55.56 55.73 55.22 53.22 52.40 50.91 49.92 48.81 46.83 46.84 46.07 44.71 41.36 42.42
60.50 60.78 61.22 62.57 63.19 63.29 63.41 62.60 63.03 63.38 61.81 59.52 57.99 56.72 54.82 55.53 54.97 55.52 54.63 54.46 53.64 53.06 51.89 50.49 49.50 49.09 47.58 46.87 46.60 44.99 43.01 40.66
60.23 61.07 62.28 62.22 62.06 62.09 62.59 63.19 62.94 61.85 60.62 59.45 58.49 57.57 56.86 56.23 55.39 54.15 54.54 54.05 53.73 52.90 51.50 50.37 49.12 48.79 47.94 47.42 46.56 45.67 44.60 41.74
60.99 62.09 62.21 61.93 62.66 62.88 62.87 61.96 60.10 59.93 59.50 59.28 58.45 56.80 55.26 53.95 53.44 52.29 51.40 50.34 49.91 50.34 49.62 48.40 47.85 47.23 46.55 45.96 45.64 44.81 43.01 42.09
59.97 59.92 60.39 61.00 61.56 62.15 60.63 59.43 57.86 58.87 58.40 57.91 57.27 56.00 53.48 51.41 50.20 49.11 48.99 48.30 47.09 46.98 47.06 46.14 45.53 45.41 45.38 45.01 44.22 44.34 43.06 41.65
59.40 59.46 58.61 58.84 59.80 60.55 59.56 57.98 56.95 57.39 57.43 56.37 55.35 53.06 51.03 49.80 50.18 48.87 47.41 46.01 46.07 46.57 45.14 45.01 44.69 44.54 43.66 43.58 43.21 43.13 43.68 41.38
57.33 56.83 56.85 57.21 57.59 58.22 57.95 57.06 56.81 56.77 56.00 53.75 52.05 51.09 49.98 48.40 49.05 48.19 47.12 46.17 45.80 45.05 44.25 43.68 43.48 43.25 43.02 42.43 41.38 41.48 41.98 40.45
56.04 55.51 56.24 56.77 57.19 57.52 58.09 57.59 56.28 56.00 53.56 52.21 50.77 50.61 49.39 49.35 47.53 46.99 45.41 44.73 44.52 43.98 43.43 42.72 42.59 42.57 42.53 41.73 41.00 40.85 40.33 39.96
55.52 55.61 56.30 56.97 57.41 57.27 57.06 56.63 55.53 52.78 51.51 51.01 50.23 49.40 48.23 47.46 47.12 45.98 44.73 44.26 43.98 43.42 42.67 42.15 41.94 41.67 41.75 40.12 39.92 40.29 38.95 38.33
56.05 56.15 56.26 56.53 56.38 56.18 55.89 55.22 53.46 51.84 51.21 50.68 48.80 48.23 47.79 46.91 46.65 46.02 44.73 43.47 43.85 42.69 42.33 41.92 42.20 41.46 40.20 38.94 38.62 39.39 37.53 36.44
56.13 56.19 55.89 55.95 55.95 55.11 54.72 53.69 51.79 51.35 50.49 48.09 47.39 47.35 46.82 45.79 46.07 44.84 44.28 43.66 42.69 42.12 42.04 41.53 41.22 40.06 38.98 38.89 38.19 37.56 36.95 36.14
55.91 55.78 55.66 55.66 55.70 54.94 53.83 52.06 51.14 50.44 48.68 47.43 46.54 45.61 46.00 45.62 45.16 44.02 43.69 43.44 42.27 41.69 41.84 42.01 41.67 40.17 39.34 38.94 38.52 37.02 35.73 35.28
55.08 55.59 55.21 55.60 54.91 54.11 53.42 51.01 50.31 49.56 48.17 45.83 45.20 45.89 46.03 45.19 44.14 43.71 43.31 42.80 41.98 42.03 41.54 41.13 39.98 38.93 38.88 36.83 35.91 33.74 32.96 32.13
54.75 55.28 55.80 55.39 54.57 53.15 52.14 50.35 49.16 47.06 46.66 45.41 45.48 45.38 44.36 43.98 43.18 42.98 42.36 41.97 41.55 41.29 40.19 40.22 38.45 38.88 33.40 32.75 32.27 30.42 31.87 31.34
53.48 54.09 54.69 54.92 54.30 52.17 50.82 48.77 47.08 46.89 45.12 44.95 44.46 43.91 43.15 42.67 42.32 41.79 40.98 40.35 40.11 39.57 39.44 39.05 37.65 36.37 33.39 31.91 30.03 29.63 29.22 29.60
52.36 53.55 54.31 54.43 54.06 51.26 49.11 47.29 47.12 44.59 43.26 43.59 44.13 42.92 42.21 41.27 41.14 40.53 40.14 40.06 39.29 38.31 37.59 38.02 37.85 37.50 33.24 31.96 30.23 27.64 28.43 29.61

GFSFLT1_sfc_wetblb_039.txt.gz
Wetbulb
57.07 58.13 59.09 59.29 59.64 60.94 61.85 60.35 59.38 58.20 58.61 58.67 57.93 56.77 56.57 55.27 54.54 53.71 53.10 53.49 54.20 52.89 52.24 51.20 50.80 49.05 47.68 47.02 45.35 44.55 42.99 42.02
56.66 56.46 59.23 59.48 60.13 61.22 61.05 59.61 58.98 58.75 58.01 57.45 56.32 54.73 54.03 53.45 53.86 53.65 53.25 53.75 53.35 52.39 51.77 50.66 48.77 47.56 45.97 45.99 44.11 42.84 42.05 42.00
56.05 55.35 57.54 59.82 60.30 61.29 60.65 60.10 59.70 59.05 59.16 58.20 56.85 54.45 53.49 53.29 53.08 53.37 53.50 52.79 52.75 51.33 49.12 48.07 47.39 45.80 45.25 44.44 43.37 42.18 41.29 40.83
56.32 57.10 57.42 60.19 59.95 60.58 60.29 59.88 59.45 59.26 59.54 58.37 55.85 54.28 53.38 51.50 51.23 50.98 51.78 52.53 51.78 50.30 49.38 47.55 46.77 45.72 43.95 43.45 42.84 41.92 39.21 40.09
57.33 56.92 57.11 59.73 59.68 60.76 61.46 60.83 60.74 59.94 60.21 57.33 54.29 52.41 51.04 50.62 50.72 50.87 50.94 50.95 50.59 50.43 49.01 47.72 46.64 45.99 44.42 43.98 44.80 42.50 40.74 38.49
56.82 56.89 57.73 60.22 60.63 61.30 61.54 61.26 61.70 60.27 59.88 57.17 54.40 52.56 51.95 51.58 51.31 50.23 49.82 49.87 50.20 50.13 47.99 46.45 45.16 45.03 43.99 43.43 42.83 43.25 42.31 39.72
57.85 58.07 59.78 59.68 61.26 61.35 60.98 59.53 59.48 59.73 57.56 55.56 53.94 52.95 50.77 50.69 50.50 50.53 50.86 48.48 46.26 45.63 45.60 43.76 43.40 42.62 41.86 41.39 41.05 41.22 40.66 39.95
56.97 57.73 58.49 58.61 57.66 58.06 59.05 59.13 57.05 56.33 55.57 53.77 52.56 50.71 49.84 48.77 47.17 44.87 44.39 45.13 44.42 42.66 43.20 42.33 41.30 41.28 41.26 40.82 40.10 39.68 40.20 39.56
56.57 57.63 57.58 58.38 58.35 58.15 58.61 57.59 55.94 54.01 53.40 52.64 50.39 47.63 45.84 46.02 45.09 43.78 43.37 44.47 44.51 43.43 42.66 41.95 40.77 40.54 40.29 40.22 38.91 38.74 39.11 38.76
54.81 54.29 55.56 56.78 57.41 55.51 54.42 54.14 53.59 53.35 52.39 48.84 46.23 46.23 45.60 44.91 44.35 44.02 44.94 43.81 44.45 42.43 41.63 41.76 40.69 40.11 40.60 39.45 38.31 38.06 38.54 38.00
52.72 52.23 52.96 53.51 54.03 54.35 53.43 52.45 52.55 52.45 49.16 47.16 46.67 45.51 45.31 45.44 45.56 44.65 44.39 43.57 43.30 41.95 41.66 39.85 39.56 39.93 39.51 38.88 37.67 37.96 37.98 37.42
50.98 50.66 52.58 52.88 52.78 53.08 52.67 52.35 51.45 48.54 47.80 46.50 45.83 44.96 46.56 45.41 45.24 44.56 43.69 43.27 43.12 41.03 41.50 39.63 39.41 39.34 39.04 37.34 37.41 38.01 36.75 35.18
50.98 50.74 51.98 52.48 52.52 52.78 52.01 51.58 49.49 49.31 48.66 46.81 44.45 44.92 46.31 45.58 45.25 44.26 43.53 42.51 42.63 41.71 40.16 39.69 40.23 39.37 37.71 37.14 36.85 36.13 34.94 34.16
51.08 50.89 51.59 52.39 52.18 52.79 51.98 50.51 48.29 48.98 48.20 46.17 45.57 46.16 45.47 44.29 44.01 44.71 42.98 42.16 40.43 40.22 39.83 39.30 39.24 38.73 37.52 37.18 36.00 35.74 35.50 34.56
51.47 51.48 52.09 53.65 53.67 53.34 51.94 50.31 49.05 47.20 44.99 43.75 44.28 44.53 44.18 44.20 43.35 43.11 41.15 41.00 39.85 40.25 39.69 39.93 39.61 38.84 38.54 37.94 37.01 34.43 33.08 32.08
50.69 50.81 50.53 51.39 51.30 51.30 51.50 50.61 48.17 46.87 46.06 44.40 44.04 44.39 44.13 43.75 43.45 42.26 41.96 41.08 40.57 40.01 39.62 39.39 38.84 37.91 37.86 36.42 35.09 32.49 31.20 31.34
50.66 51.58 51.64 51.84 51.54 50.85 50.17 48.66 47.06 45.56 44.34 43.77 44.92 44.60 44.70 41.51 41.24 41.34 40.77 40.04 39.66 39.16 39.10 38.95 38.02 37.43 35.04 35.06 32.83 29.83 30.61 29.55
48.46 50.12 50.78 51.21 51.00 50.24 46.58 45.85 45.93 45.66 44.31 44.45 44.07 42.62 40.85 41.40 40.90 39.60 39.04 38.37 38.67 38.09 37.84 38.24 37.37 34.91 34.66 34.17 32.89 29.29 28.82 28.07
47.12 47.23 49.52 48.77 47.68 45.73 45.33 45.40 45.17 42.78 42.03 42.18 42.31 41.38 40.26 39.45 38.89 38.66 38.69 38.35 37.50 37.16 36.56 36.65 36.41 35.46 34.29 33.83 31.55 27.27 27.07 27.72

GFSFLT1_sfc_wetblb_042.txt.gz
Wetbulb
60.18 59.07 59.69 59.24 58.30 59.21 61.24 59.78 58.28 57.70 57.70 56.81 56.29 56.27 55.46 55.03 53.71 53.06 53.09 52.77 52.86 52.44 50.81 49.76 48.98 47.43 45.97 45.49 43.52 43.03 41.67 41.00
58.68 57.84 58.27 57.68 57.83 59.76 59.79 58.02 57.34 57.52 56.44 55.43 54.64 54.12 53.57 53.50 53.11 53.01 52.28 52.82 53.21 51.25 49.96 48.08 47.05 45.28 44.68 44.79 42.90 41.32 40.58 40.15
55.74 56.31 56.87 57.07 58.30 59.92 59.28 58.38 57.56 57.49 57.49 56.03 55.45 54.25 53.26 52.88 52.71 51.73 52.64 51.72 51.00 49.44 47.84 46.58 45.64 44.52 43.87 43.11 42.08 40.85 40.30 39.62
53.08 55.52 56.02 57.17 58.44 59.35 59.01 58.67 57.77 57.93 58.06 56.98 54.76 53.10 51.95 50.73 50.05 50.32 50.78 51.53 50.76 49.23 47.75 46.35 45.18 44.55 43.10 42.17 41.52 40.86 38.74 39.11
54.06 55.75 55.80 57.03 58.83 59.96 59.65 59.12 58.36 58.20 58.38 56.72 53.89 52.87 51.01 50.40 50.06 49.49 49.87 50.54 49.77 49.38 47.88 46.27 45.15 44.65 43.46 43.15 43.53 41.39 39.66 37.97
54.54 56.30 57.37 58.35 59.35 59.46 59.53 59.52 59.21 59.14 58.83 57.11 54.69 52.23 51.60 49.69 49.59 49.07 48.57 48.44 48.62 48.09 46.67 45.12 44.00 43.35 42.41 41.92 41.74 40.20 40.36 38.76
55.38 55.94 58.92 58.47 59.43 59.52 59.55 60.04 60.21 60.23 58.85 55.54 54.56 52.45 50.39 49.71 48.73 48.74 47.75 47.37 44.68 44.54 44.07 43.41 42.50 41.23 40.75 40.03 38.76 38.25 38.31 38.53
53.94 56.57 58.01 58.67 58.85 59.09 59.73 60.31 59.56 59.32 56.88 54.54 52.93 52.07 50.78 50.59 49.74 47.46 45.11 42.88 42.95 42.51 42.67 42.98 42.49 41.75 40.05 39.29 38.04 37.13 36.96 37.09
55.25 56.78 57.90 58.82 59.18 59.31 59.34 59.11 57.69 54.90 53.46 52.67 52.24 50.64 48.30 46.62 46.66 45.63 45.16 44.42 43.60 43.25 42.66 42.64 41.11 40.99 39.76 38.15 38.87 38.12 37.31 37.03
55.75 56.67 57.15 57.32 57.26 57.25 57.80 57.66 54.05 53.01 52.40 49.76 47.84 47.88 46.74 45.65 45.32 46.20 44.91 43.93 43.37 42.93 42.22 41.46 41.30 40.62 39.90 39.28 38.10 36.55 36.52 36.47
53.68 54.81 55.79 56.28 56.57 54.73 53.99 55.07 53.19 52.82 50.12 48.48 48.14 47.15 46.91 46.89 47.23 45.60 44.19 43.39 43.25 42.65 41.45 40.84 40.61 39.77 38.85 37.34 36.31 36.88 35.86 35.00
53.18 53.50 54.63 55.09 54.34 52.62 51.41 53.38 53.08 50.93 48.00 46.64 46.24 47.01 46.52 46.88 46.53 44.87 44.23 42.78 42.93 42.41 41.68 39.53 39.45 37.83 38.38 36.84 36.25 36.93 35.46 34.60
52.29 53.23 53.38 52.99 53.38 52.61 51.48 51.76 51.18 48.72 46.69 46.06 45.04 46.12 45.92 45.61 44.73 43.72 43.85 43.06 43.26 41.33 39.59 39.07 39.06 38.96 37.29 36.28 35.47 35.40 34.60 33.74
50.64 50.68 52.09 53.25 53.09 53.01 51.82 50.16 49.12 47.34 46.24 46.12 45.60 45.30 45.05 44.51 44.20 43.30 41.63 41.05 40.52 39.43 39.08 38.84 38.91 38.25 36.91 36.63 35.99 35.54 34.85 34.14
50.10 49.58 51.38 52.30 52.66 52.56 51.13 49.42 48.32 48.07 46.58 46.05 45.16 44.85 44.21 43.67 42.66 40.84 40.70 40.27 38.41 38.64 38.84 38.74 38.91 38.06 37.68 37.71 36.59 35.33 34.21 32.51
49.24 48.32 47.86 49.20 50.49 51.86 50.74 48.99 47.35 46.82 45.49 45.38 45.53 44.74 42.91 42.90 41.55 40.51 40.56 39.42 39.63 38.61 38.12 39.08 38.95 38.40 37.95 37.16 36.01 33.23 31.57 31.13
49.14 48.86 49.82 50.17 50.21 50.36 49.95 48.10 46.32 45.71 44.35 43.52 44.29 44.50 42.30 41.58 40.38 40.90 40.36 39.91 39.45 38.36 38.70 38.70 37.94 37.78 36.60 36.88 34.82 31.45 31.63 29.81
47.14 49.27 49.59 50.14 50.38 49.88 46.94 44.49 45.15 43.86 44.16 44.10 42.48 41.16 39.97 39.53 39.98 39.21 38.31 37.49 37.94 37.62 37.27 37.16 37.07 37.11 35.82 36.32 34.79 30.47 29.50 28.81
44.42 44.62 44.45 44.31 43.57 43.70 44.38 43.93 41.96 41.65 41.50 41.37 39.55 38.64 38.68 38.80 38.73 38.32 38.33 37.99 37.17 36.47 36.46 36.62 35.88 36.08 35.43 35.56 33.70 28.64 27.68 27.98

GFSFLT1_sfc_wetblb_045.txt.gz
Wetbulb
59.72 59.80 59.99 58.71 59.22 58.35 59.76 59.94 58.10 57.84 57.60 56.56 56.36 56.02 55.28 54.26 52.82 52.54 53.02 52.19 51.75 51.05 49.85 48.60 47.75 46.32 45.25 43.86 42.32 41.77 40.49 39.80
59.42 59.91 59.64 59.31 56.80 58.28 59.55 57.95 57.14 57.71 56.64 55.32 54.27 53.76 53.20 52.88 52.73 52.82 52.57 51.94 52.19 50.15 48.34 47.73 46.07 44.71 44.20 42.91 41.64 40.37 39.56 38.79
58.07 58.32 58.28 56.85 56.48 58.31 57.97 57.99 57.06 57.50 57.02 55.44 55.13 53.80 53.33 52.81 52.44 51.82 51.40 52.09 51.30 49.93 47.34 46.10 44.66 44.12 43.02 42.30 41.22 40.05 39.76 38.72
57.50 55.87 56.13 55.96 55.88 57.74 58.18 57.65 57.38 57.44 56.66 55.65 53.33 52.50 51.33 50.53 49.85 49.45 50.71 50.81 50.28 48.77 47.08 45.41 44.24 43.34 42.04 41.18 40.60 40.19 38.38 38.44
56.96 55.28 54.96 55.30 56.32 58.18 59.00 58.26 57.51 57.42 57.25 55.52 53.06 51.33 51.12 51.31 49.94 49.55 49.67 50.33 48.97 47.93 46.69 45.29 44.02 43.49 42.53 42.54 42.46 40.37 39.16 38.11
54.36 54.66 55.22 55.90 57.01 58.05 58.27 58.30 57.63 57.78 57.41 56.71 54.13 52.15 51.25 49.84 49.22 48.76 48.32 47.73 47.59 47.10 45.70 44.56 43.91 43.37 40.82 40.42 40.51 39.29 39.86 38.54
53.33 54.89 55.10 55.38 56.90 58.02 57.66 57.76 57.78 57.65 57.24 57.24 54.83 52.96 50.24 49.76 48.17 47.43 46.23 44.87 43.99 43.97 43.63 42.21 41.66 41.09 40.25 39.04 38.93 38.56 37.70 37.18
52.01 54.00 54.55 55.69 56.90 57.66 58.04 58.02 57.88 58.55 58.24 57.37 54.91 53.77 51.06 50.31 48.69 47.90 44.78 42.15 41.13 41.55 42.07 41.13 42.04 41.73 40.90 39.30 38.87 38.37 37.55 37.65
52.74 54.57 56.12 56.53 57.27 57.91 58.23 58.47 58.47 59.16 58.90 57.00 53.83 51.97 51.44 50.95 50.03 48.81 45.42 44.06 42.61 42.13 42.64 42.46 42.21 41.74 40.80 40.18 39.61 38.56 38.11 36.61
53.44 55.46 56.92 57.23 57.50 57.73 58.11 58.53 59.00 57.89 56.45 52.84 50.91 50.79 48.73 46.88 46.87 47.21 45.78 43.73 43.28 42.99 42.52 41.32 41.43 40.93 41.29 40.35 37.77 36.95 35.75 35.30
53.33 55.60 56.61 57.61 58.20 58.32 57.86 57.50 55.65 53.88 50.47 49.31 49.28 49.06 47.60 47.22 46.98 45.46 44.00 43.70 43.46 42.28 41.56 41.42 41.49 41.30 39.92 38.17 35.64 35.74 34.92 35.08
53.83 55.05 55.93 56.67 56.00 55.66 56.54 56.18 52.54 50.67 48.14 47.16 46.93 46.93 46.83 46.82 45.83 44.90 44.09 43.42 42.05 42.63 42.80 41.92 40.57 38.70 37.96 36.47 35.82 36.65 36.10 34.90
53.27 54.16 54.42 54.38 54.76 54.62 54.36 54.05 52.50 50.93 47.89 46.69 47.18 46.33 46.45 45.12 44.21 43.30 42.56 42.03 43.96 43.02 42.01 39.92 39.24 38.40 37.23 36.69 36.26 36.30 34.42 32.99
50.18 51.60 52.92 54.12 54.78 53.57 52.67 51.99 52.02 48.15 47.25 46.95 47.01 46.22 45.42 44.67 43.74 43.33 43.09 42.05 39.73 38.65 38.11 39.03 38.83 37.80 37.59 36.07 35.41 34.59 34.02 33.65
48.74 48.90 51.29 52.79 53.07 52.16 50.21 49.76 48.74 46.96 46.45 45.37 45.72 44.10 44.51 44.79 43.06 42.08 40.99 40.57 38.86 39.02 39.50 39.38 39.26 38.67 37.24 36.25 35.30 33.97 34.01 33.57
48.56 47.81 47.61 48.99 49.58 50.07 49.06 48.12 47.18 46.10 45.48 46.03 43.83 43.18 43.34 42.66 41.52 39.44 39.92 40.16 39.47 39.46 39.19 38.97 38.78 38.12 37.83 36.70 35.79 33.86 32.74 31.09
47.09 48.54 47.90 48.45 49.65 49.24 48.18 45.86 46.37 46.20 45.46 43.50 43.95 43.76 42.10 40.46 40.41 39.73 39.22 38.83 38.88 38.99 38.94 38.51 37.72 37.48 36.60 37.20 35.80 32.30 31.57 30.35
43.89 46.70 47.54 48.09 48.18 47.40 44.37 43.43 43.74 43.49 43.21 43.24 41.45 40.53 39.25 39.24 39.63 39.35 39.17 39.42 39.65 38.70 37.64 37.01 35.94 35.34 36.69 37.13 36.55 31.58 29.97 28.44
39.23 39.89 40.81 41.44 42.66 42.46 42.17 41.96 41.20 40.62 39.85 39.23 38.81 38.62 37.86 38.69 39.05 39.51 39.38 39.36 36.92 34.65 34.14 33.79 33.53 34.56 35.91 36.27 35.38 30.04 27.95 28.00

GFSFLT1_sfc_wetblb_048.txt.gz
Wetbulb
57.62 58.61 57.82 56.80 57.38 58.61 58.34 58.43 57.72 57.27 56.77 56.35 56.05 56.07 55.69 54.99 53.88 53.36 52.60 51.89 51.20 50.09 49.93 49.23 47.50 45.94 44.29 43.26 42.25 41.40 40.56 39.64
59.06 58.80 58.32 56.31 57.27 56.95 57.91 57.59 56.69 56.77 55.49 55.03 54.18 53.92 55.33 53.95 53.18 52.71 52.09 51.33 51.08 49.83 48.90 47.36 46.40 44.89 43.76 42.42 41.34 40.67 40.01 39.09
58.17 58.19 57.91 57.04 57.14 57.10 58.04 57.92 56.81 57.25 57.63 54.71 54.68 53.83 53.37 54.25 52.99 51.45 51.67 51.02 50.56 49.19 47.51 45.93 44.50 43.66 42.95 41.98 41.20 40.06 39.45 38.41
56.75 57.08 57.73 57.30 56.30 56.51 58.00 57.86 57.31 57.70 57.22 55.00 52.62 53.15 53.14 52.03 50.62 50.00 50.67 51.33 50.61 48.72 46.82 44.87 43.74 43.01 41.60 40.69 40.55 40.23 38.49 38.89
57.17 56.77 56.46 56.50 56.82 56.97 57.99 57.79 57.25 57.50 56.13 55.74 52.49 52.42 51.24 52.25 51.00 49.33 51.12 50.31 49.57 48.20 46.07 44.22 43.28 42.58 41.92 41.72 41.86 40.19 39.99 38.14
55.97 56.85 56.78 56.93 56.37 55.69 57.00 57.15 57.03 57.16 56.39 55.98 53.35 52.29 53.33 51.14 49.35 50.48 50.30 47.72 47.18 46.39 44.93 43.73 42.89 41.83 40.92 40.88 40.18 39.74 41.35 38.54
55.65 57.10 55.14 54.39 54.41 55.30 55.92 56.67 56.69 57.10 56.78 55.50 54.37 53.84 52.16 50.67 50.01 48.91 46.32 45.05 44.79 44.11 43.58 42.12 41.22 41.08 39.22 40.23 40.35 39.36 38.83 38.51
52.66 52.42 53.11 53.36 54.20 55.72 56.39 56.49 56.51 57.26 56.57 56.37 56.32 55.52 53.01 51.98 50.50 47.93 44.45 42.40 41.21 41.20 41.54 41.04 40.53 41.78 41.65 41.06 39.37 39.08 39.42 38.21
50.90 52.45 53.48 53.81 54.86 56.35 57.14 57.11 56.92 57.48 57.38 56.81 57.13 55.20 53.96 52.31 51.20 49.04 46.10 42.70 42.11 42.70 41.30 43.09 43.44 42.47 40.85 40.67 40.22 38.95 37.86 37.73
50.59 51.39 53.17 53.53 55.44 56.45 57.22 57.67 57.63 57.84 57.77 57.41 54.84 53.75 52.75 50.88 50.86 47.06 44.70 43.38 42.53 43.00 44.45 43.63 41.16 41.24 41.91 41.11 39.38 39.18 36.61 35.10
49.52 51.89 53.64 54.77 55.91 56.63 57.28 57.77 57.70 58.06 57.77 55.55 53.15 52.12 51.57 50.07 48.95 46.91 45.22 44.11 42.88 43.77 43.40 40.52 41.61 42.39 41.46 40.07 38.28 37.22 35.10 34.81
51.03 52.73 54.52 55.64 56.01 56.33 56.61 56.93 57.37 53.83 52.21 51.17 49.86 49.51 49.08 50.02 49.31 47.97 46.43 43.63 44.24 42.77 41.61 41.92 41.61 40.35 39.52 38.26 35.64 36.44 35.92 34.53
51.09 52.00 53.19 54.64 55.62 56.13 56.13 55.95 55.83 54.54 49.76 48.34 49.07 49.08 49.62 48.69 47.44 44.98 44.65 43.75 42.71 42.75 43.53 41.85 40.32 39.08 37.99 36.54 37.05 35.96 35.48 34.52
50.47 51.40 52.22 53.73 54.20 53.96 54.35 54.31 52.95 49.09 49.03 48.07 48.23 48.09 47.22 44.49 43.80 43.73 42.89 42.83 42.53 41.75 41.07 40.14 39.28 37.96 38.23 38.03 37.06 35.94 34.99 33.99
49.40 49.69 50.93 51.93 52.61 52.04 51.37 50.18 49.18 48.75 48.33 47.92 46.83 46.26 45.53 43.93 43.75 42.96 42.50 41.73 40.29 40.04 39.97 39.42 39.42 39.46 38.69 37.19 36.10 34.76 33.93 33.44
48.25 48.35 48.34 49.28 50.21 49.25 48.66 47.68 46.96 47.10 45.86 44.56 44.49 45.14 43.61 41.79 40.54 40.85 40.71 40.16 39.08 39.44 39.51 40.51 39.59 38.78 37.95 36.72 35.56 33.60 32.32 32.04
45.17 46.55 46.94 47.94 48.72 47.75 46.94 45.39 45.03 45.48 43.99 42.87 42.54 42.76 41.62 40.38 39.03 39.08 39.40 39.14 39.87 41.25 40.46 40.07 39.40 38.54 36.95 37.18 35.63 32.56 32.45 31.14
40.89 41.21 42.63 44.51 44.95 44.00 42.53 42.45 43.16 42.56 41.55 41.32 40.38 40.09 39.14 39.39 39.83 39.60 39.59 40.38 40.74 39.99 39.89 38.34 35.75 35.18 36.04 36.91 36.51 33.31 31.86 30.87
36.54 37.45 38.56 39.48 40.06 40.18 40.25 39.87 39.03 38.47 37.96 38.64 39.31 39.50 39.23 39.75 40.03 40.45 40.23 40.20 39.53 38.57 35.72 34.27 33.02 33.35 35.31 35.92 35.51 32.83 30.92 29.84

GFSFLT1_sfc_wetblb_051.txt.gz
Wetbulb
58.15 59.19 59.57 59.55 59.90 60.67 61.60 62.80 62.95 62.08 61.84 61.39 61.43 61.65 62.30 62.45 61.38 60.39 59.27 58.78 57.66 57.26 56.48 53.86 52.95 53.00 52.21 51.74 51.14 50.37 49.98 49.47
58.46 59.00 59.54 59.24 59.70 60.29 61.00 62.18 62.37 61.17 60.36 59.63 59.58 59.66 60.73 60.47 59.11 59.21 58.55 57.42 56.55 56.70 56.01 54.36 54.17 53.08 52.07 51.61 50.02 49.89 49.24 49.20
58.96 59.04 59.35 59.14 59.36 60.22 60.77 61.64 62.26 61.56 61.06 60.70 60.70 60.48 60.09 60.66 59.29 57.77 57.78 56.76 55.97 55.68 55.51 53.95 53.49 52.48 50.99 50.57 50.53 49.09 49.14 48.48
58.95 59.47 59.55 60.12 59.32 59.79 60.23 61.21 61.86 61.94 61.44 60.44 59.04 59.40 59.04 57.77 57.36 57.42 56.49 56.41 54.83 54.94 55.04 53.73 52.77 52.44 50.44 50.25 50.37 49.65 47.64 47.30
59.69 59.97 60.19 60.15 60.40 60.47 60.62 61.12 61.25 61.36 61.10 59.53 58.51 58.72 58.32 58.54 57.69 57.56 56.22 55.89 53.59 52.59 53.88 52.79 51.84 51.24 50.12 50.09 49.61 49.09 47.22 45.65
58.91 59.78 60.79 61.54 61.43 60.72 60.94 61.06 60.81 61.07 60.33 60.34 59.72 58.84 60.07 57.32 56.22 56.09 55.67 53.68 52.79 52.04 52.63 51.45 50.80 50.81 50.58 49.54 48.39 47.42 46.52 44.83
59.25 60.86 61.14 60.79 61.13 60.72 60.87 60.43 60.43 61.05 60.46 60.20 58.79 58.38 57.82 56.51 56.24 55.60 54.90 53.81 53.17 52.57 51.15 50.94 50.73 49.49 48.15 45.29 44.14 45.15 43.97 42.46
57.23 58.68 59.51 59.98 59.10 59.36 59.88 60.10 59.91 60.03 59.76 59.00 58.59 58.58 57.68 55.26 56.08 54.82 51.23 51.66 51.24 50.35 50.20 48.78 46.82 44.56 44.35 43.74 45.97 43.32 41.43 44.32
56.30 57.72 59.21 59.61 59.06 59.25 59.59 59.75 59.89 60.05 59.70 59.21 58.99 59.18 58.26 57.58 56.04 54.84 52.40 52.22 51.06 49.40 48.57 45.19 44.36 45.00 46.39 44.21 44.15 42.97 43.47 44.09
55.19 56.74 57.97 58.59 58.39 58.74 59.58 59.65 59.62 59.41 59.48 59.89 59.49 59.67 58.39 57.94 56.59 55.07 53.29 50.01 47.68 46.97 46.27 45.28 45.64 44.56 44.22 43.25 42.36 43.27 42.84 43.42
52.80 54.40 55.92 57.45 58.39 59.14 59.90 60.32 59.99 60.08 59.90 60.07 59.96 59.24 58.88 58.34 56.05 53.34 50.12 49.16 46.24 46.02 46.67 46.44 43.91 43.79 44.26 42.69 42.23 42.44 42.10 43.85
53.19 54.46 56.31 57.31 58.28 58.96 59.25 59.67 60.14 60.25 60.52 60.44 59.39 57.62 56.99 55.90 53.79 51.65 48.99 47.08 45.49 45.76 45.86 44.11 42.37 43.10 42.44 41.66 41.11 41.33 42.29 42.46
53.94 55.34 56.58 57.49 57.91 58.59 59.11 59.40 59.55 60.07 59.42 57.73 56.99 55.07 53.51 52.53 51.27 49.63 47.47 46.01 46.50 45.66 43.33 42.75 43.72 42.01 41.37 40.13 41.51 42.45 42.13 41.35
54.75 55.43 55.98 56.98 57.91 58.27 58.50 58.91 59.36 59.49 56.07 54.94 53.34 52.02 51.79 50.88 48.50 47.42 47.48 46.54 44.28 43.52 43.50 42.52 42.57 42.70 41.61 42.83 42.96 43.00 42.73 41.52
53.88 54.62 55.66 56.54 57.25 57.82 58.08 57.40 55.09 52.61 51.53 51.57 50.24 50.19 49.50 47.83 46.37 45.89 45.24 45.31 45.25 45.19 44.81 42.61 42.68 41.50 42.56 42.90 43.32 42.17 41.70 41.22
51.02 52.53 53.53 54.84 55.48 55.06 53.76 52.56 52.07 51.38 49.20 48.25 47.63 47.77 46.24 45.08 44.72 42.74 43.16 42.82 44.42 41.37 42.23 41.58 42.13 41.91 40.97 41.94 42.74 41.96 41.39 41.06
47.37 48.60 50.09 51.87 51.88 51.27 49.92 49.25 48.89 49.30 48.13 45.54 44.14 42.85 42.75 41.15 40.91 41.45 42.61 41.11 43.43 42.77 42.02 42.22 41.29 40.91 39.20 38.44 38.50 41.04 40.85 39.90
43.99 44.80 45.40 46.64 47.19 47.29 46.33 45.89 46.21 45.17 43.96 43.00 41.55 40.66 39.92 40.66 41.33 41.92 43.28 42.38 42.88 41.70 41.48 41.27 41.51 42.49 37.60 36.84 36.44 39.49 40.08 40.35
40.59 41.85 42.40 43.14 43.92 43.59 43.58 43.46 42.73 42.27 41.74 40.85 41.27 41.23 40.53 42.48 42.72 41.53 41.26 41.28 41.36 41.28 41.65 42.27 41.00 39.58 35.69 35.67 35.23 39.00 39.25 39.16

GFSFLT1_sfc_wetblb_054.txt.gz
Wetbulb
60.44 61.22 61.50 61.82 61.78 61.40 60.92 62.21 63.03 64.22 64.55 64.52 62.98 62.29 63.16 64.18 65.01 64.28 64.31 65.15 65.08 63.63 62.82 61.45 57.97 57.06 54.51 54.96 55.18 55.88 55.90 55.18
61.27 61.86 61.70 61.36 61.75 61.75 62.26 62.49 63.58 64.52 63.76 62.79 61.98 60.66 62.16 63.50 64.71 65.01 63.45 64.10 63.88 63.64 62.48 60.20 58.16 56.09 55.50 55.44 55.36 54.65 53.47 54.50
59.70 61.35 61.51 60.92 60.86 61.98 62.26 62.82 64.05 64.68 64.23 63.54 62.54 61.60 62.47 63.44 64.36 62.39 62.37 62.05 62.17 61.99 61.36 59.42 58.73 57.39 54.21 54.79 55.59 54.16 54.59 54.34
60.39 59.99 60.96 61.43 60.70 61.61 62.74 63.71 64.65 65.42 65.16 64.41 62.98 62.89 62.87 62.11 62.12 62.28 60.57 60.60 60.61 60.17 60.83 59.50 59.27 56.16 53.06 54.89 55.77 54.59 52.45 52.68
61.49 61.23 60.86 61.23 61.54 62.65 62.88 63.39 63.88 65.26 65.64 63.91 62.00 60.35 59.68 61.66 62.05 61.26 60.57 59.84 59.31 60.46 60.00 58.79 56.82 55.58 55.37 56.04 55.54 54.92 53.69 50.54
61.09 62.30 62.73 63.13 62.99 62.66 63.41 63.77 63.77 64.70 65.20 64.92 63.00 61.17 61.45 63.39 62.57 61.64 60.03 59.19 60.44 58.81 57.55 56.47 56.02 57.29 56.69 55.97 54.63 53.98 49.14 45.77
61.19 63.03 64.23 64.50 65.32 64.87 64.78 63.85 63.46 64.40 64.74 64.89 64.32 63.05 62.73 62.82 61.89 61.06 60.78 60.27 59.27 57.59 55.02 54.52 56.14 56.36 55.98 55.10 52.75 47.45 46.56 45.89
61.21 61.56 62.63 63.87 64.51 65.16 64.85 64.29 63.43 64.23 64.60 64.67 64.50 64.17 63.31 62.77 62.04 60.88 60.11 58.98 56.00 54.51 54.64 55.80 55.96 55.91 52.39 47.01 48.89 50.33 46.65 43.97
61.25 61.85 62.84 63.58 64.16 64.93 64.83 64.24 64.03 64.05 64.70 64.53 64.39 63.52 63.26 62.70 62.01 61.27 60.59 57.18 53.84 56.01 54.17 54.88 51.02 48.97 47.43 50.23 48.53 45.22 45.63 43.04
59.54 61.53 63.01 63.89 64.48 64.41 64.92 64.76 64.53 64.73 63.22 64.13 63.19 62.85 62.32 62.01 61.49 60.81 59.39 55.78 53.52 51.00 51.05 48.62 49.23 49.95 49.41 44.65 45.23 43.09 43.95 45.94
57.72 59.57 61.86 63.44 64.39 64.77 64.98 64.85 64.08 64.83 64.28 63.78 62.90 62.39 62.17 61.77 60.77 59.46 56.64 52.55 49.38 48.38 47.10 47.41 49.68 46.79 44.96 46.76 45.69 43.59 43.58 44.35
57.49 58.30 59.73 61.11 62.63 63.21 63.47 63.80 63.93 64.22 64.28 64.11 63.41 63.17 62.95 61.05 59.34 58.02 54.41 51.24 48.60 47.70 47.51 48.06 44.75 44.28 44.93 43.42 42.75 42.94 42.12 45.88
58.60 59.19 60.01 60.57 60.87 61.83 62.20 62.88 63.16 63.81 64.16 63.87 63.20 60.82 58.99 57.83 55.59 53.72 51.32 48.19 47.98 49.26 47.90 44.77 43.98 44.97 43.49 42.95 41.82 42.84 45.18 45.68
59.15 59.52 59.95 60.65 61.20 61.77 62.13 62.53 62.61 63.00 62.83 61.33 57.53 54.96 53.68 52.66 50.84 48.92 48.15 47.19 47.38 47.13 45.04 44.33 44.29 42.91 42.82 42.28 43.21 45.26 46.10 45.67
58.96 59.45 60.04 60.56 61.07 61.77 61.93 60.96 59.26 57.75 56.84 54.94 52.59 51.78 51.12 50.25 49.19 47.99 48.26 47.23 46.52 44.73 44.70 44.92 43.66 43.34 43.54 43.53 44.15 44.63 45.53 45.62
57.40 59.00 60.03 60.71 60.55 59.82 59.72 58.17 56.02 54.08 51.95 50.79 49.58 49.72 49.24 48.96 49.22 50.08 48.20 46.14 45.67 46.71 44.37 44.05 42.66 42.23 43.13 42.94 42.74 43.17 44.36 44.06
54.35 56.24 57.53 57.08 57.00 56.43 55.63 55.19 54.98 52.79 49.69 47.65 46.81 47.19 46.81 46.61 47.41 47.10 44.64 44.63 44.87 43.49 41.74 41.85 42.20 42.61 39.63 39.15 40.72 44.48 43.60 43.46
51.71 52.62 53.75 54.01 53.70 53.75 52.65 52.36 52.54 50.93 48.04 46.03 46.19 46.07 44.51 45.64 45.17 45.08 43.86 44.34 43.60 42.71 42.59 42.67 42.23 42.76 40.09 39.26 37.29 41.51 42.05 42.71
49.61 50.48 51.07 51.40 51.74 51.01 50.70 50.54 49.35 47.80 45.94 44.93 44.99 45.30 45.71 46.32 45.35 43.90 44.15 43.02 43.24 43.24 43.05 44.86 44.63 44.11 37.41 36.39 35.29 40.60 41.56 41.69

GFSFLT1_sfc_wetblb_057.txt.gz
Wetbulb
60.62 60.99 61.21 61.31 59.64 59.20 59.67 60.73 61.24 62.66 62.84 62.82 61.72 61.97 62.76 62.79 62.48 64.15 65.15 65.27 65.80 63.84 63.28 63.53 62.66 60.27 58.03 58.12 57.97 57.85 57.78 55.96
61.03 60.79 60.84 61.33 61.28 60.61 60.66 60.81 62.72 61.75 61.61 60.78 60.40 59.46 61.15 61.75 63.27 64.81 65.62 64.74 65.37 65.20 64.50 63.70 61.79 59.51 58.82 57.90 56.68 56.66 55.63 55.71
60.66 61.10 61.33 61.40 60.94 60.66 60.28 60.59 61.28 62.22 61.77 61.39 61.56 61.57 61.14 62.42 63.40 64.74 65.17 64.60 64.82 64.28 64.57 63.62 61.72 59.76 58.60 57.63 56.52 55.07 55.71 56.01
59.30 59.82 60.97 61.65 61.26 61.20 61.04 62.14 62.70 63.00 63.64 63.18 62.56 62.24 61.87 61.12 62.23 63.43 63.96 63.23 60.92 60.54 61.07 62.11 61.42 60.76 58.22 57.21 56.40 55.03 53.73 54.89
60.54 60.57 61.25 61.45 61.41 62.61 62.68 62.85 63.23 63.80 64.72 63.44 62.65 60.60 59.14 60.54 62.07 63.09 63.17 60.78 60.03 59.68 58.96 59.94 62.33 61.48 58.37 56.14 55.83 55.97 56.27 53.75
60.82 60.96 61.63 62.49 62.78 63.18 63.59 63.84 64.13 64.88 65.10 64.53 63.27 61.98 61.42 62.06 62.59 63.06 62.57 61.72 61.01 59.95 60.01 60.18 61.19 59.06 56.73 55.34 55.77 57.47 56.20 54.39
61.56 62.94 63.01 62.80 63.68 64.17 64.48 63.36 63.36 64.23 64.57 65.13 64.82 63.91 62.54 61.37 62.14 62.53 61.60 61.35 61.17 61.18 60.77 58.92 58.24 56.59 55.44 55.67 58.26 56.85 51.74 49.32
60.21 61.30 62.59 63.14 63.28 63.90 64.68 63.54 63.25 64.07 64.80 64.86 64.97 64.74 64.64 63.37 62.02 63.15 61.73 61.05 60.65 59.84 60.00 55.68 54.94 54.41 55.72 56.49 52.06 49.44 51.29 49.26
61.30 61.47 62.32 63.40 64.75 65.31 64.65 64.41 64.14 64.40 64.59 64.60 64.69 65.38 65.14 64.73 64.29 63.87 63.24 62.42 60.92 59.97 55.42 54.81 53.91 49.83 47.79 48.91 50.25 51.11 47.62 45.68
60.01 62.06 62.59 63.52 64.46 66.14 66.95 65.73 65.34 65.28 64.90 64.82 63.84 64.89 65.98 64.77 64.80 64.01 63.01 62.76 59.95 58.29 55.20 53.09 48.63 49.03 49.88 50.15 47.72 45.08 44.89 44.96
59.22 60.86 62.50 63.66 64.85 66.54 66.77 66.74 65.64 65.53 64.87 65.14 64.76 65.15 64.30 63.88 63.26 61.66 61.07 60.53 58.08 54.74 51.80 50.10 48.48 48.87 48.83 47.56 45.78 45.52 43.00 44.23
58.73 59.90 61.64 63.45 64.76 65.85 66.23 66.19 66.01 65.65 65.35 65.37 64.02 63.27 63.10 63.02 61.37 60.69 59.99 57.62 53.74 51.55 49.76 48.48 47.21 47.26 45.92 44.93 43.65 42.58 42.49 43.12
59.66 60.16 60.54 61.75 63.27 64.59 64.99 65.49 65.38 65.90 66.10 65.28 63.81 62.87 60.80 59.93 59.01 57.12 55.08 52.86 50.71 49.06 49.09 47.93 46.78 44.82 44.67 44.30 42.27 41.99 41.87 41.49
60.00 60.82 61.09 61.27 62.02 62.80 63.48 64.10 64.07 65.00 65.01 59.80 58.98 57.17 55.70 54.21 52.01 50.68 49.77 48.61 48.24 48.93 46.58 44.94 44.77 45.48 44.74 43.95 42.65 42.22 42.98 44.76
57.69 59.11 60.54 61.50 62.21 62.59 63.01 62.79 63.31 63.16 59.82 56.92 54.28 53.60 52.01 50.99 49.68 48.87 48.19 48.16 47.27 46.30 45.77 45.15 44.25 42.95 43.08 42.44 42.95 43.45 44.70 44.44
57.76 58.69 60.16 61.55 62.20 62.69 60.11 57.92 56.97 55.88 53.56 52.28 51.08 50.91 50.76 50.73 50.05 48.60 47.86 47.27 45.76 45.98 45.42 44.81 43.86 43.25 43.19 43.24 43.53 43.07 43.21 43.95
57.88 59.77 61.18 61.26 60.74 60.33 58.70 55.80 54.19 53.30 51.15 49.77 49.99 50.62 51.70 51.31 50.62 49.61 48.57 47.28 46.77 45.54 44.12 43.18 42.13 42.77 39.74 39.35 40.38 42.51 43.77 43.99
56.44 58.79 59.46 58.90 58.17 57.92 56.96 55.07 53.94 52.05 50.81 50.96 51.07 50.67 49.19 48.99 48.85 48.49 47.45 46.41 46.39 45.56 43.21 44.43 43.77 44.07 40.06 40.01 38.77 43.35 42.00 41.84
55.59 56.65 56.45 56.37 56.54 55.57 55.07 54.27 52.67 51.30 50.17 49.11 48.98 48.94 48.31 48.17 47.64 47.32 46.88 47.19 46.59 46.11 45.50 45.38 45.26 45.57 39.64 37.64 35.60 40.50 40.44 40.72

GFSFLT1_sfc_wetblb_060.txt.gz
Wetbulb
58.74 58.10 57.83 57.07 56.61 56.63 57.05 57.28 56.86 56.82 56.61 56.91 58.60 59.57 60.13 60.87 60.44 62.00 63.23 63.01 62.08 61.72 61.06 60.99 60.76 58.79 56.47 55.11 55.03 55.42 55.13 54.21
59.62 59.27 58.83 58.21 57.48 56.90 57.13 57.42 58.57 58.12 57.11 56.96 57.95 58.27 59.78 60.31 60.23 61.57 63.27 63.26 63.48 62.74 61.41 61.35 60.63 58.60 55.71 55.59 55.03 53.65 53.42 53.21
58.47 58.51 58.85 57.11 56.62 57.30 57.95 58.47 58.67 58.98 59.31 59.49 60.02 59.17 59.53 60.30 60.42 61.29 63.29 63.80 63.20 62.87 62.26 61.53 60.35 58.32 56.76 55.01 54.66 52.49 53.35 53.65
57.89 57.94 58.28 57.40 56.48 57.44 58.59 58.95 58.77 59.40 61.02 60.71 60.14 59.61 59.11 58.42 59.49 59.97 62.50 62.72 61.92 62.07 62.46 61.29 59.81 59.66 56.39 55.64 54.33 53.29 51.49 52.99
58.37 58.19 58.10 59.10 58.66 59.53 59.45 59.38 59.70 60.13 60.76 59.91 58.68 58.16 57.00 58.18 59.35 60.48 62.31 62.53 61.23 60.43 60.07 59.36 58.99 58.43 57.60 56.71 55.33 53.63 52.99 50.35
58.97 58.75 58.98 60.08 60.61 59.83 59.46 59.60 60.08 61.23 61.11 61.71 59.89 59.39 58.75 59.32 59.42 59.87 61.48 60.99 60.57 60.11 59.74 59.04 59.00 58.83 58.37 55.68 54.31 53.16 53.24 52.18
59.95 60.42 60.73 60.27 60.81 61.09 60.90 61.12 61.35 61.92 61.63 61.65 62.28 61.33 60.38 59.09 59.38 59.41 60.61 60.48 60.04 60.07 59.94 58.79 58.80 57.43 55.22 54.26 53.93 53.03 51.94 49.17
59.64 59.83 59.89 60.66 60.37 60.44 61.28 61.38 61.28 62.31 62.77 63.23 62.93 62.06 62.70 60.11 60.07 60.61 60.09 59.91 59.23 59.31 59.36 58.60 56.76 55.28 54.61 54.17 52.65 49.29 49.44 47.60
58.99 60.20 60.49 60.57 61.15 61.33 61.23 61.20 61.15 62.11 62.45 62.71 63.53 62.51 62.29 62.15 61.75 61.45 60.95 60.46 59.99 59.71 59.47 56.66 55.02 53.56 51.58 49.71 48.91 49.32 48.04 45.40
59.60 59.87 61.48 61.67 61.69 62.00 62.08 62.06 61.83 62.28 62.33 62.68 62.16 62.23 62.31 62.44 62.07 63.00 61.42 60.99 59.36 58.50 56.62 54.00 51.60 50.04 49.80 49.94 49.11 44.93 43.49 43.57
57.80 60.26 60.81 62.57 63.05 63.30 63.47 63.32 63.02 63.41 64.01 63.13 62.67 62.38 62.74 62.71 63.05 62.14 60.26 59.15 57.46 56.96 54.64 51.36 49.43 49.49 49.20 46.81 44.46 44.55 43.72 43.81
58.17 59.33 61.34 62.19 63.62 64.07 64.33 64.78 64.68 64.68 64.72 63.69 62.89 63.26 63.40 61.66 61.25 60.28 59.66 56.81 55.18 54.38 51.58 49.09 48.55 47.69 46.31 45.11 44.05 42.87 41.93 42.52
58.52 59.10 60.09 61.63 62.38 63.26 64.51 65.08 64.99 64.87 64.60 64.00 62.63 61.76 61.34 59.58 58.57 57.63 55.99 53.45 52.40 50.69 49.08 47.87 47.19 45.28 44.87 43.26 42.21 41.98 42.06 41.76
58.48 59.22 59.19 60.15 61.83 63.05 63.65 64.68 64.63 62.74 61.90 61.63 59.32 57.21 55.05 53.09 51.48 50.21 49.29 49.12 48.96 48.60 47.72 45.69 45.09 44.68 43.94 43.06 42.66 42.30 42.01 42.08
58.05 59.10 59.70 60.34 61.07 61.88 62.46 62.34 59.52 60.18 58.82 57.21 54.02 52.74 51.15 49.84 49.21 48.72 48.67 48.04 46.73 45.54 45.49 44.82 44.83 44.11 43.39 42.94 42.38 42.23 42.81 43.56
55.94 57.59 59.25 60.50 61.04 60.63 59.42 57.72 56.76 55.92 54.13 52.25 50.64 50.08 50.52 49.30 48.03 47.86 47.02 46.09 45.58 44.94 44.37 43.97 43.73 43.44 42.61 42.33 43.25 43.09 42.39 42.23
56.16 57.75 59.36 59.98 60.39 58.55 56.24 54.29 53.33 52.75 51.24 50.45 50.75 50.63 50.18 49.50 47.70 46.54 45.84 45.53 45.39 45.11 43.12 42.53 42.37 42.81 40.38 40.48 40.98 41.58 42.27 42.35
55.92 58.05 59.68 60.21 58.76 56.26 54.11 52.95 52.40 50.90 50.08 50.12 50.94 51.02 49.65 48.89 48.48 47.39 46.45 45.04 44.61 42.92 42.06 42.20 42.89 42.87 39.17 39.62 38.60 40.85 39.26 37.26
56.16 58.83 58.61 58.27 57.89 55.52 53.86 53.28 52.03 51.24 50.77 50.14 49.36 48.67 47.68 47.28 46.25 45.54 45.69 45.54 44.57 44.28 43.46 43.21 43.06 43.28 38.77 36.93 35.41 35.84 36.10 36.63

GFSFLT1_sfc_wetblb_063.txt.gz
Wetbulb
54.15 53.68 53.52 53.26 53.08 54.90 54.92 55.03 55.00 54.68 54.07 54.06 53.47 55.12 56.06 57.01 56.90 58.44 59.82 59.87 60.92 59.48 59.06 58.41 58.04 56.05 55.20 53.66 52.71 52.65 53.42 51.56
55.00 53.79 53.33 52.93 52.78 53.98 54.39 53.88 54.05 54.42 53.38 52.43 52.48 53.82 55.56 56.48 57.30 58.28 60.47 61.16 60.70 60.05 59.49 59.17 58.52 56.20 54.40 53.10 52.58 52.16 51.81 52.11
54.51 54.17 53.03 53.06 53.03 54.04 54.57 54.07 54.04 53.69 54.01 53.82 54.30 55.46 56.55 58.06 57.69 57.43 60.78 61.33 61.74 61.13 60.52 60.04 59.38 57.14 53.90 53.18 52.64 50.87 52.00 52.40
54.05 54.19 53.71 53.43 53.31 53.67 54.37 54.43 54.56 54.32 54.31 54.66 56.01 57.33 56.36 56.75 56.91 56.91 60.01 61.47 61.63 61.47 61.03 60.58 59.30 57.82 55.73 54.18 53.53 51.98 50.80 52.25
54.71 54.53 53.03 53.16 53.65 54.41 55.25 56.00 56.45 56.04 56.51 55.61 55.63 55.90 54.75 55.54 55.73 56.86 59.19 61.21 61.16 60.35 60.00 59.78 59.38 58.83 57.48 55.81 54.64 53.47 52.16 50.98
54.68 54.37 53.86 54.03 54.57 55.27 55.98 56.27 56.30 56.70 57.40 57.94 57.23 55.82 55.88 56.29 56.10 56.23 57.44 60.19 60.18 59.30 59.17 57.39 57.39 56.93 55.70 56.11 54.94 54.17 53.25 51.96
55.94 55.98 56.08 54.44 54.81 55.41 56.20 56.47 56.22 56.96 57.53 57.59 57.36 56.35 56.15 55.96 55.78 56.05 58.08 60.19 60.31 59.09 58.85 58.33 57.79 57.78 56.71 54.23 53.85 53.73 52.06 49.18
55.80 55.44 55.51 56.27 55.18 55.45 56.32 56.36 56.09 56.90 57.63 57.65 58.09 58.68 58.52 57.57 55.62 56.49 58.38 58.53 58.37 57.97 58.13 56.97 56.51 54.69 53.08 53.44 53.79 52.38 50.14 47.93
56.52 56.66 56.43 56.74 57.29 57.08 56.73 56.51 56.51 57.36 58.00 58.34 59.26 60.38 60.43 58.69 58.10 58.04 58.54 58.93 58.54 57.93 58.25 57.63 55.95 52.88 51.90 51.90 50.45 49.70 48.77 46.96
56.79 57.28 57.64 57.51 57.74 57.82 57.90 57.35 57.41 58.79 59.09 59.36 59.96 59.71 59.97 59.97 58.58 58.60 58.29 58.74 58.63 57.41 57.79 56.07 53.87 52.27 50.61 49.99 49.19 47.43 45.75 44.11
57.26 57.74 57.82 58.70 58.78 58.82 58.60 59.02 58.78 59.13 59.68 59.68 59.84 60.66 60.66 60.19 58.92 58.64 59.60 58.48 58.12 56.75 54.95 52.04 50.45 50.04 49.89 47.97 45.77 44.50 43.45 44.00
53.29 57.34 58.80 58.86 59.63 59.32 58.82 58.75 59.19 59.53 59.77 60.08 60.08 60.03 59.76 58.79 60.21 60.04 57.95 56.05 55.75 54.70 52.14 50.29 49.36 48.77 47.39 45.79 44.41 43.68 43.28 43.29
52.50 53.38 56.96 59.15 59.01 59.41 59.79 59.82 59.92 60.47 60.56 60.32 60.62 60.27 59.70 58.70 58.26 57.94 56.55 54.41 53.81 51.48 49.78 48.83 48.08 46.67 45.29 44.26 43.24 42.85 42.38 41.99
53.20 53.61 53.80 56.05 58.67 59.88 60.55 60.66 62.79 61.52 60.90 60.08 58.82 57.18 55.15 53.70 51.91 52.16 51.69 50.74 49.24 48.74 48.07 46.80 45.56 44.73 44.04 43.46 42.96 42.69 42.60 42.39
53.38 53.56 54.06 55.33 57.91 57.89 59.53 61.20 60.54 58.89 57.51 56.19 53.73 52.28 50.44 49.61 50.47 49.08 48.90 48.20 47.12 46.48 45.98 45.53 44.94 44.30 43.80 43.32 42.65 41.87 41.85 42.32
54.12 53.95 54.22 56.55 55.77 54.53 54.47 53.98 53.94 53.95 52.96 51.21 49.58 49.35 49.36 48.77 47.62 47.03 46.43 45.79 45.37 45.24 44.84 44.37 44.09 43.59 43.00 42.10 42.02 41.97 42.28 42.35
53.54 55.82 56.88 57.18 55.02 52.81 52.12 51.46 50.94 51.77 50.72 49.35 49.01 48.14 47.44 46.96 46.13 45.67 45.30 44.65 44.46 44.18 43.27 42.43 42.09 42.21 39.73 40.24 41.70 42.06 41.85 41.49
51.91 55.49 57.54 56.76 53.98 52.47 50.39 49.80 50.15 49.75 49.93 49.85 49.51 48.79 47.16 46.25 45.76 45.12 44.54 43.79 43.13 40.94 39.82 40.04 40.14 41.34 39.57 39.88 38.54 39.35 38.31 34.83
54.98 55.97 56.67 54.78 52.99 51.19 50.78 49.99 50.13 49.80 49.73 49.86 49.22 48.31 46.83 45.98 45.58 43.71 42.22 41.42 40.19 39.54 39.41 40.04 40.45 41.39 37.73 37.38 35.65 33.68 32.45 31.82

GFSFLT1_sfc_wetblb_066.txt.gz
Wetbulb
52.38 52.76 53.34 54.77 55.51 55.78 55.67 55.30 54.97 54.67 54.81 54.80 54.23 55.20 56.01 56.45 56.55 57.78 57.60 57.61 59.43 58.33 57.76 57.24 55.96 55.39 53.66 53.14 52.09 51.85 52.20 50.73
52.89 52.85 52.83 53.08 54.39 54.70 55.12 54.74 53.92 53.26 52.67 53.17 53.19 52.36 54.09 55.63 55.17 56.38 58.24 58.22 59.93 58.17 57.41 57.57 56.48 55.11 54.47 53.02 51.79 51.18 50.82 50.66
52.77 51.88 51.59 51.74 52.67 53.59 53.40 53.29 53.28 53.64 53.72 53.50 52.93 51.20 52.95 54.60 55.20 55.95 57.58 58.91 59.17 59.31 58.97 58.08 57.46 55.67 54.02 52.89 51.94 50.62 50.66 51.35
51.95 51.40 51.26 50.96 51.55 52.63 53.27 53.16 53.26 53.63 53.66 52.84 52.21 52.93 54.15 54.23 55.19 55.64 56.34 59.01 59.71 59.04 58.53 58.82 59.02 57.40 54.88 53.88 53.45 51.62 50.00 51.83
52.70 51.75 50.77 50.83 51.21 53.24 53.82 53.59 53.31 53.74 53.81 52.56 51.80 52.07 51.84 53.83 54.56 55.61 55.39 58.60 59.21 59.98 59.53 58.92 58.40 58.47 56.01 54.31 54.17 52.56 51.87 50.36
52.83 52.54 51.89 52.21 52.44 52.75 53.97 53.91 53.51 53.80 53.20 53.00 52.27 52.83 54.14 55.65 55.81 55.29 55.04 57.46 59.51 59.77 59.75 59.29 59.35 58.74 57.07 56.17 53.34 52.86 52.83 51.20
54.42 54.16 53.75 52.86 53.14 53.16 53.76 53.66 53.60 53.80 53.57 53.15 53.01 53.35 54.72 55.10 54.60 54.38 55.18 56.79 58.97 59.37 59.30 58.60 57.51 57.03 55.71 55.13 54.21 53.15 51.50 51.72
53.70 53.28 52.23 52.42 52.11 52.49 53.12 53.61 53.64 54.37 53.90 54.54 54.89 55.42 55.67 54.85 54.46 54.57 54.66 56.11 57.46 58.74 57.69 57.31 57.07 57.09 56.29 53.56 52.44 52.05 51.56 51.07
53.62 53.50 52.85 52.64 52.25 52.86 53.30 53.79 53.81 54.65 54.37 54.48 55.83 56.56 56.55 56.27 56.02 56.18 55.97 56.57 57.94 59.65 58.52 57.77 57.29 55.63 54.00 52.24 52.18 51.91 50.34 48.71
54.68 54.52 53.73 53.57 52.78 52.93 53.71 54.42 54.42 54.69 54.70 55.19 55.91 56.64 56.68 57.36 57.87 55.85 56.62 57.81 57.25 57.09 57.75 56.99 56.09 54.88 51.35 50.75 50.65 48.90 48.60 47.81
55.54 55.68 55.29 55.47 55.13 54.57 54.66 55.24 54.94 54.88 55.29 55.68 56.14 56.74 57.17 57.91 56.55 57.05 57.81 58.29 58.13 57.37 56.87 56.53 54.16 52.11 51.20 50.39 48.80 47.59 46.19 44.99
54.92 56.47 56.92 56.75 56.98 56.58 55.63 55.59 56.03 56.00 56.44 56.62 56.46 57.61 58.70 58.32 58.33 58.43 57.93 57.73 58.76 57.85 55.69 53.20 51.37 51.03 49.47 48.39 46.42 45.05 44.53 43.95
55.12 56.47 57.19 57.17 57.12 57.28 57.07 57.03 56.66 57.37 58.40 58.27 57.78 58.33 59.05 59.17 59.33 58.44 57.82 57.09 55.13 54.64 53.28 51.60 50.10 48.77 47.47 46.08 44.50 44.44 43.39 43.14
50.13 51.96 55.90 57.04 57.49 57.84 57.79 58.10 58.45 59.77 60.47 59.38 58.78 59.11 58.62 58.35 57.59 57.41 56.41 54.29 52.31 50.77 50.62 49.15 47.94 46.55 45.61 44.82 43.87 43.72 43.60 43.26
50.69 50.59 52.34 55.01 56.88 57.47 57.43 58.08 59.02 59.60 57.58 58.80 58.53 59.46 59.39 58.18 54.66 52.73 51.57 51.52 49.51 48.75 48.80 47.14 45.76 44.99 44.59 44.09 43.78 43.07 42.67 42.66
51.29 51.13 54.68 53.91 54.19 55.14 57.84 58.76 58.86 57.26 55.87 56.49 53.24 52.53 53.00 52.18 50.97 50.19 49.27 48.62 48.01 47.11 45.72 45.07 44.63 44.36 44.05 43.10 42.51 41.95 41.62 42.35
51.90 53.01 55.16 54.01 53.26 54.45 54.65 56.49 55.43 54.86 52.60 50.72 50.46 50.12 49.90 49.45 48.69 47.54 46.80 45.93 45.61 45.03 44.23 43.78 43.45 43.29 39.27 39.97 41.22 42.43 42.26 41.55
51.31 54.12 55.36 53.76 52.66 52.60 52.53 52.85 52.93 52.07 50.93 50.02 49.43 48.91 47.63 47.13 46.59 46.73 44.80 44.14 44.07 43.01 42.81 42.50 41.48 41.31 39.35 39.84 39.08 40.58 37.39 33.63
51.24 54.58 55.79 53.75 51.89 50.72 50.37 51.48 51.50 50.67 49.83 49.20 48.70 47.53 46.95 46.18 45.58 44.20 43.88 42.99 42.14 41.53 40.49 39.94 39.99 40.65 38.44 37.20 35.17 32.03 30.12 29.93

GFSFLT1_sfc_wetblb_069.txt.gz
Wetbulb
51.95 52.23 54.91 55.41 55.29 56.02 55.91 56.45 56.43 56.03 56.05 55.92 54.69 55.14 54.90 56.60 58.01 57.96 58.10 57.12 57.65 56.66 56.19 55.84 55.53 54.57 53.03 52.35 51.57 50.79 49.51 48.58
51.87 51.83 53.02 54.27 55.04 54.96 54.94 55.06 55.24 55.20 55.10 55.23 53.97 52.58 53.55 55.19 55.94 57.49 57.64 58.13 58.78 56.93 56.85 56.25 55.32 54.51 53.62 53.07 51.37 50.45 50.26 49.90
51.13 50.61 51.46 52.53 54.57 54.67 54.49 54.17 54.24 54.86 54.69 54.72 54.96 53.23 53.25 54.67 55.41 55.67 57.12 57.47 57.63 57.47 56.63 56.63 55.32 54.35 53.79 52.52 51.54 50.24 50.39 50.35
50.71 50.79 50.96 51.58 53.07 54.04 53.04 53.71 52.85 52.98 52.33 53.74 52.74 52.98 53.28 53.47 54.06 54.58 54.77 56.45 57.54 58.00 57.90 57.64 56.53 55.18 54.10 52.96 52.43 51.91 50.83 51.70
51.45 50.64 50.08 50.48 50.94 52.49 52.51 52.60 52.25 52.21 51.92 50.81 50.88 51.47 50.31 50.69 50.67 51.97 52.72 55.79 57.31 57.97 57.82 57.95 57.79 57.36 56.05 54.85 54.53 52.17 51.77 50.31
51.59 51.07 50.65 50.62 50.93 51.46 52.43 52.91 52.74 52.91 52.25 51.35 50.36 49.51 50.52 50.80 51.26 52.08 52.80 54.24 56.45 58.02 58.32 57.27 57.35 57.53 57.17 55.36 52.87 52.61 52.77 50.64
52.93 52.66 51.32 50.84 50.37 51.09 52.30 52.44 52.73 53.09 52.51 51.96 50.76 50.58 50.77 51.22 52.26 53.05 54.23 53.92 55.54 57.19 58.10 58.18 57.75 57.15 56.17 55.90 54.98 52.66 51.95 50.10
52.62 51.98 50.93 50.71 50.05 50.36 51.81 52.45 52.13 52.78 52.66 52.29 51.58 51.14 51.60 52.12 53.03 53.69 53.50 53.73 53.99 56.35 58.16 58.14 57.17 57.27 56.15 54.13 52.97 52.94 51.10 50.70
53.13 53.04 52.58 51.72 51.40 51.14 51.59 52.37 52.18 52.56 52.58 52.38 52.61 52.20 52.30 53.58 54.14 54.78 54.04 54.25 55.16 56.75 57.61 58.53 57.41 56.17 55.83 54.22 54.02 52.36 51.56 51.29
53.14 54.08 53.51 52.69 51.97 51.85 51.95 52.27 52.50 52.79 52.59 52.75 52.74 52.67 53.09 54.25 55.09 55.88 55.72 55.28 55.55 55.58 56.43 56.77 56.83 56.59 56.57 55.13 53.92 51.27 50.45 49.31
53.81 53.90 54.16 53.61 53.24 52.87 52.93 52.95 52.65 53.04 53.35 53.18 53.16 53.38 54.48 55.22 55.90 54.74 55.46 55.93 57.43 57.37 56.87 56.63 56.05 56.09 53.40 52.66 51.28 49.22 48.82 46.94
54.21 54.37 54.48 54.32 53.93 52.86 52.69 52.86 52.98 52.88 53.45 53.47 53.44 53.67 54.99 55.90 56.23 56.20 55.98 57.70 57.78 57.67 57.68 56.65 55.79 53.82 53.20 51.17 48.88 47.25 46.45 45.33
53.35 55.10 55.18 53.98 53.56 53.51 52.76 53.71 53.90 54.77 54.62 54.55 54.43 54.88 55.40 55.95 56.43 56.91 57.83 58.41 58.39 57.86 57.26 55.63 52.62 51.51 50.43 49.31 46.47 46.47 45.38 44.52
52.30 53.47 54.77 55.12 54.75 54.65 54.16 53.99 54.28 55.72 55.90 55.11 55.14 55.52 55.70 56.41 57.75 58.15 58.32 58.10 56.93 55.69 54.95 52.60 50.97 50.23 48.24 46.85 47.03 45.45 44.85 44.28
48.88 50.58 53.96 55.39 55.76 55.71 55.47 55.23 55.35 55.60 56.09 56.10 55.72 55.88 56.71 57.53 58.32 58.15 58.15 55.11 53.88 51.89 52.18 51.31 49.33 47.48 46.98 45.78 45.53 44.35 43.77 43.62
48.60 49.28 49.99 53.15 55.16 55.80 56.15 56.17 56.21 56.25 56.03 56.19 56.20 56.95 57.76 58.20 57.25 55.65 52.29 51.55 50.79 50.34 48.57 47.19 45.99 45.43 45.06 44.47 44.09 43.16 42.57 42.20
49.48 50.35 53.32 53.32 53.72 54.32 54.75 55.75 56.35 56.91 56.86 56.69 56.86 55.07 55.11 54.91 53.10 50.63 50.55 49.35 47.85 46.96 46.42 45.28 44.63 44.43 39.80 40.50 42.01 42.08 42.32 42.27
48.09 51.28 54.24 54.18 53.68 54.11 55.07 55.80 55.83 56.33 55.77 53.25 53.21 52.90 51.33 50.09 49.63 48.73 47.63 46.82 46.02 45.14 44.99 43.62 42.58 41.73 39.03 39.77 39.80 42.07 39.17 35.87
47.56 51.88 54.01 52.91 51.16 54.30 53.85 53.96 54.16 53.12 51.87 51.43 50.60 50.32 49.22 48.22 47.84 46.44 44.94 44.87 44.02 43.12 42.56 43.08 42.16 41.16 38.52 37.66 35.59 34.09 31.85 30.67

GFSFLT1_sfc_wetblb_072.txt.gz
Wetbulb
51.26 52.79 53.65 54.81 55.73 56.80 57.09 57.51 57.19 57.03 56.71 55.66 56.33 56.65 58.08 58.53 57.33 56.14 55.86 55.88 55.29 54.29 54.28 54.42 54.49 53.57 52.62 52.05 50.86 50.66 49.56 48.07
51.15 52.42 54.27 54.21 54.32 55.32 56.01 56.01 56.13 56.09 55.34 53.83 54.64 54.88 56.25 57.15 57.48 56.97 56.36 56.57 56.11 55.52 55.47 55.69 55.22 53.92 53.15 52.18 51.53 51.01 50.65 49.66
50.59 52.06 52.41 54.18 53.73 54.83 54.91 55.38 55.49 56.04 55.80 55.83 56.13 53.87 54.37 55.39 56.21 57.40 57.62 57.59 57.56 56.96 56.66 56.67 56.11 54.63 53.00 52.46 51.91 50.14 50.41 49.72
49.62 50.06 50.71 52.65 53.32 54.04 54.16 54.64 55.00 55.60 56.21 55.32 53.75 53.57 54.04 53.67 54.40 54.64 56.21 57.37 57.59 58.22 57.14 56.47 55.68 54.28 53.64 52.51 51.84 51.56 50.26 50.87
50.20 50.25 49.80 51.09 53.08 53.25 54.25 54.04 54.16 53.04 52.10 53.09 52.90 52.80 52.35 53.37 53.80 53.46 54.81 56.38 56.68 57.15 56.75 56.63 56.13 55.28 54.03 53.70 53.04 52.81 52.63 50.00
50.18 50.30 50.65 51.18 50.94 53.09 52.27 52.16 51.93 51.54 51.34 52.37 51.53 51.09 53.02 50.67 51.58 51.97 52.15 53.15 55.00 55.54 56.21 56.45 56.77 56.79 55.78 55.06 53.81 52.84 53.39 51.86
51.39 51.14 50.86 50.60 51.30 51.24 51.93 51.64 51.79 51.83 51.50 50.61 50.81 50.09 49.60 49.27 49.29 49.74 50.85 51.83 52.93 54.31 55.48 56.04 56.57 56.37 56.13 56.27 56.01 54.14 53.71 53.26
50.89 49.97 49.83 49.38 49.55 50.78 51.93 51.69 51.73 51.94 51.46 51.28 50.70 50.35 50.11 50.21 49.86 50.22 50.18 50.62 51.46 52.63 54.40 55.40 55.87 56.83 56.73 56.23 55.38 54.08 52.17 51.33
51.52 51.05 50.48 50.01 49.60 50.14 51.23 51.84 51.80 52.22 52.07 51.65 51.73 50.96 50.87 50.95 50.67 51.01 51.61 51.88 51.38 53.22 54.27 55.22 54.94 55.44 54.35 54.09 52.84 53.82 53.79 53.57
51.95 52.27 51.43 50.64 50.30 50.08 50.59 51.69 52.02 52.35 52.29 52.41 51.67 51.43 50.64 50.85 51.52 52.12 52.92 52.92 53.36 53.09 53.60 54.60 55.58 55.77 55.47 54.93 55.15 53.62 52.17 51.84
51.61 52.53 52.70 52.16 51.71 51.32 51.22 51.76 51.91 52.18 52.35 52.37 52.22 51.75 51.61 51.64 51.98 52.87 53.96 54.43 53.83 54.03 54.43 54.26 54.81 54.91 55.61 55.91 56.53 54.65 53.08 50.32
51.79 52.51 53.56 53.29 52.62 52.07 51.40 51.76 52.49 52.02 52.31 52.10 52.22 52.12 52.53 53.13 53.47 54.26 54.63 54.90 54.84 55.62 56.05 56.31 56.39 56.53 55.29 53.74 53.42 50.92 50.65 48.32
51.05 52.12 52.44 53.03 52.34 51.99 51.86 52.19 52.66 53.16 52.85 52.53 52.41 52.78 53.16 53.28 53.91 54.30 55.08 55.28 55.93 56.72 56.82 56.59 56.33 55.49 52.49 51.91 49.94 49.35 49.49 47.56
49.80 51.87 52.24 52.34 52.70 52.28 51.76 52.39 52.62 53.50 53.47 52.97 53.02 52.91 52.88 53.03 53.00 53.75 55.09 55.74 56.28 56.96 56.99 55.95 55.23 53.26 51.71 51.03 50.39 48.95 48.37 48.66
48.02 49.21 51.68 53.29 52.67 52.87 52.30 52.16 52.90 53.14 53.30 52.88 52.34 52.45 53.19 52.86 52.41 53.87 55.58 56.78 56.87 56.21 54.91 53.95 52.46 50.50 49.94 48.66 48.24 47.68 46.17 45.85
46.40 48.99 50.81 52.76 53.41 53.00 53.07 52.78 52.77 53.13 52.91 52.92 52.58 52.85 53.19 52.29 53.12 55.44 56.09 56.61 56.82 56.15 53.77 52.33 51.95 49.92 48.80 47.70 46.55 44.85 44.24 43.88
45.86 47.59 48.46 51.48 52.79 53.49 53.61 53.26 53.02 53.10 52.83 53.06 53.59 53.68 54.03 54.23 54.79 55.68 57.09 55.97 55.03 52.22 50.11 48.80 46.91 46.15 41.10 42.25 43.71 44.05 43.62 43.10
46.14 48.29 49.90 50.31 51.67 53.18 53.44 54.10 54.36 53.57 53.12 53.47 53.91 54.15 54.29 55.18 55.34 53.82 52.58 51.49 49.91 48.30 46.53 46.09 45.50 44.70 40.11 40.44 40.42 43.24 42.12 36.92
46.59 48.71 49.46 51.48 51.54 51.62 51.83 53.10 54.24 54.28 53.81 54.06 54.94 54.98 53.96 50.69 49.74 49.54 49.38 48.46 47.74 46.80 45.21 44.79 44.23 41.55 38.72 38.87 37.80 36.37 33.82 32.99

GFSFLT1_sfc_wetblb_075.txt.gz
Wetbulb
55.81 56.20 56.56 55.35 56.76 57.83 58.00 58.00 57.58 57.98 58.95 58.84 58.14 58.67 59.17 58.42 57.04 56.18 56.04 56.11 56.10 56.71 55.63 55.37 56.49 56.03 55.63 55.11 54.50 55.05 53.58 52.34
55.70 54.99 56.11 55.10 56.15 57.12 57.36 57.10 57.04 56.94 57.02 57.31 57.40 57.16 57.79 58.06 57.36 56.43 56.28 55.63 56.45 55.18 55.21 55.83 57.57 57.30 56.73 56.69 55.99 55.54 53.91 53.63
53.83 53.87 55.00 54.84 54.75 55.70 56.65 56.64 56.67 57.39 57.15 58.96 58.10 57.36 58.12 58.46 57.52 56.58 56.31 55.77 55.68 56.14 57.57 58.18 57.51 58.11 57.06 56.57 56.19 55.38 55.84 53.91
51.73 52.62 52.23 54.72 53.44 53.98 55.30 56.11 56.79 57.11 56.87 56.05 55.53 55.88 56.50 56.60 56.42 56.47 56.31 56.58 56.47 57.11 58.16 58.80 59.10 59.02 58.05 57.04 56.85 56.60 54.60 54.56
53.11 51.57 51.43 53.10 54.74 55.13 57.17 56.66 56.41 57.11 56.91 55.81 54.99 54.06 53.75 55.72 56.16 56.50 56.83 56.91 57.76 58.64 58.91 58.85 59.71 59.54 59.20 58.61 57.65 57.59 57.40 55.61
53.20 52.46 52.32 52.93 54.43 55.12 55.84 56.70 56.22 56.53 57.74 57.90 55.49 55.40 55.53 56.82 56.17 55.62 56.85 57.10 57.06 58.27 58.84 60.18 59.90 59.79 59.96 59.58 57.84 57.35 58.36 57.02
54.51 54.74 54.17 52.81 54.09 55.06 54.64 55.89 56.31 55.90 56.45 57.25 57.02 55.43 55.84 54.43 54.53 54.74 55.29 56.33 57.05 58.32 59.17 59.87 60.80 61.06 60.74 60.60 59.74 58.59 58.25 55.60
53.72 53.38 52.61 52.11 52.16 53.21 52.57 54.75 54.76 55.53 55.60 56.20 56.31 56.08 56.17 55.69 55.81 56.31 55.98 55.98 56.16 57.47 58.53 59.19 59.66 60.33 60.61 60.76 60.55 58.98 58.46 58.21
54.08 54.17 53.78 53.01 52.22 52.69 52.20 53.00 54.63 55.39 55.22 55.36 56.37 56.49 56.01 55.96 55.96 55.59 56.05 56.40 57.04 58.05 58.36 58.84 59.33 59.82 60.26 60.59 60.58 60.51 60.15 59.41
54.24 54.49 54.60 54.11 53.50 53.40 53.66 54.01 54.86 55.35 55.50 55.38 55.27 55.88 55.80 55.72 56.32 56.85 57.46 57.29 57.38 57.42 58.18 58.51 59.35 59.64 60.16 60.39 60.05 59.70 59.67 58.48
54.54 54.62 54.69 54.88 54.94 54.61 54.80 55.26 54.98 55.49 55.82 55.80 55.62 55.46 55.93 56.31 56.88 56.72 56.62 57.70 57.61 57.57 58.00 58.36 58.55 59.43 60.10 60.00 59.50 59.66 57.69 55.34
54.69 55.44 55.61 55.22 55.37 54.66 54.21 54.77 55.15 55.34 55.83 56.16 56.09 56.04 55.74 55.89 55.55 55.57 56.66 57.83 57.53 57.18 57.14 57.48 57.91 58.55 58.59 58.18 58.35 58.17 56.82 56.18
54.69 55.77 55.83 55.20 54.64 54.55 54.04 54.37 54.99 56.15 55.95 55.85 55.76 56.06 55.97 55.18 55.15 55.94 57.15 56.94 57.84 57.97 57.93 57.94 57.91 56.19 56.60 56.70 56.28 55.52 54.48 52.22
54.33 55.26 55.51 55.66 55.41 54.88 54.53 54.79 55.26 55.82 55.84 55.51 55.73 55.89 55.70 55.44 56.16 56.69 56.68 56.85 57.17 57.61 58.18 57.42 57.96 58.97 57.74 57.43 55.08 52.97 52.29 52.50
52.04 54.55 55.56 56.19 56.04 55.39 55.20 55.38 56.08 55.94 55.84 55.53 54.91 55.19 55.55 55.95 56.47 56.75 57.06 57.17 57.02 57.44 57.33 57.14 58.04 58.30 56.60 54.81 53.24 52.05 51.39 50.80
50.16 52.00 54.26 55.99 55.79 55.83 55.49 55.82 56.06 56.30 55.53 55.08 54.97 55.25 55.60 56.06 56.20 56.37 56.64 57.15 57.32 57.73 57.77 55.70 56.42 55.36 53.48 52.59 52.87 51.34 49.24 46.75
51.23 50.83 52.65 53.90 55.48 55.44 55.63 55.22 55.50 56.14 55.61 54.95 55.72 55.66 55.66 55.17 55.28 55.67 56.10 56.56 57.29 58.00 58.04 56.43 53.80 53.17 45.26 44.72 48.52 48.12 46.19 44.73
50.55 51.39 51.61 53.44 55.14 56.24 55.75 56.14 55.85 55.26 55.16 55.53 55.59 55.82 55.20 55.44 55.62 55.87 56.30 56.95 57.69 56.45 56.39 54.69 52.50 50.89 41.62 42.51 42.54 46.16 44.32 40.84
51.13 51.88 52.59 53.84 54.93 56.61 57.64 56.73 55.66 55.07 55.10 55.03 55.39 55.70 55.64 55.80 55.86 56.43 57.13 56.98 55.92 52.99 50.56 49.96 48.41 45.75 39.95 40.30 39.48 41.58 38.00 36.36

GFSFLT1_sfc_wetblb_078.txt.gz
Wetbulb
61.26 61.47 61.49 60.25 59.95 60.65 61.10 59.49 58.66 58.81 59.53 59.80 59.60 58.92 58.38 58.31 57.41 56.54 57.24 57.61 60.10 59.98 58.81 59.14 58.78 57.26 56.82 56.86 56.79 57.13 57.08 56.67
61.05 61.29 61.14 59.33 59.18 59.43 59.16 57.67 58.18 58.50 58.65 59.08 57.95 57.17 57.22 57.00 57.50 58.04 58.08 57.66 59.45 58.89 59.44 59.45 59.25 57.87 58.34 57.89 57.56 57.14 56.49 56.53
59.25 59.37 59.83 58.66 57.71 58.09 58.01 57.82 58.02 58.97 59.86 60.52 59.42 58.15 58.51 57.41 56.98 57.13 56.88 57.03 57.11 57.82 59.06 59.39 59.99 58.91 57.33 57.68 58.63 57.86 58.52 56.83
58.81 57.53 58.25 59.09 56.92 57.64 57.18 58.07 57.69 58.28 59.57 60.01 59.16 58.66 58.57 56.76 56.43 56.11 56.95 57.02 57.67 57.42 57.93 59.16 58.35 59.48 58.51 58.69 58.26 57.53 56.69 57.21
59.61 58.19 58.38 58.75 58.61 57.66 57.52 58.40 57.84 57.97 58.95 58.63 58.90 57.90 55.25 57.00 56.03 56.47 56.59 57.12 57.01 58.40 58.69 60.15 59.81 60.16 60.32 60.30 59.76 59.59 59.88 57.20
59.24 58.89 59.09 59.31 59.62 56.17 57.84 58.88 58.05 57.92 57.88 59.11 58.72 57.39 57.92 58.56 56.81 56.28 56.27 57.27 58.39 57.42 58.55 58.89 59.81 61.16 61.02 61.61 60.97 60.27 60.30 59.49
59.82 60.23 59.86 59.37 59.98 58.72 58.24 57.94 57.91 59.11 57.81 58.05 58.31 57.14 56.20 56.22 56.18 55.85 56.10 55.78 55.91 57.49 57.74 59.89 60.31 61.21 61.32 62.02 62.45 61.82 61.26 60.78
59.23 59.08 58.91 58.87 58.64 58.84 57.66 58.42 57.24 57.97 58.71 58.12 58.73 58.03 56.28 56.32 56.88 56.76 55.44 55.66 55.93 56.49 56.95 58.01 59.87 61.22 62.36 62.51 62.41 62.61 61.76 61.03
58.97 59.62 59.53 59.38 58.55 58.31 56.68 58.54 58.86 59.11 58.37 58.89 59.24 58.60 58.32 59.42 60.53 60.24 58.60 56.96 57.54 56.99 57.61 58.28 59.92 61.00 61.88 61.89 62.69 62.46 62.60 62.14
58.94 59.70 60.10 59.91 59.11 58.56 57.58 57.92 59.49 59.94 59.72 60.30 60.30 60.74 59.93 59.97 60.32 61.21 60.27 60.04 60.01 59.20 61.10 60.84 61.82 61.95 61.59 61.71 61.00 61.28 61.73 61.91
58.75 59.57 59.92 60.34 60.04 59.61 58.48 58.47 59.01 59.77 60.07 60.48 60.04 60.15 60.41 60.58 61.25 60.93 61.19 61.23 61.15 61.42 61.38 61.79 61.39 61.02 61.09 60.92 60.91 61.23 60.85 62.24
58.18 59.26 60.17 60.69 61.01 60.06 59.05 58.58 58.61 59.58 60.05 60.24 59.64 60.05 60.59 60.79 60.86 60.77 60.74 61.18 60.64 60.18 60.33 60.15 59.78 59.69 60.40 61.05 60.73 60.75 60.28 60.16
59.33 59.69 59.80 60.10 60.22 60.30 59.55 59.12 58.86 59.51 60.00 60.22 60.26 60.35 59.63 60.65 61.02 61.38 61.82 61.12 61.22 60.27 60.27 59.76 59.73 59.86 60.31 60.59 59.95 59.11 57.88 57.85
58.28 59.83 59.62 59.64 59.98 60.09 59.84 59.84 59.65 59.80 59.73 59.89 59.83 59.69 59.39 59.12 59.19 60.25 60.12 60.00 60.42 60.13 60.30 60.69 60.24 60.52 60.30 60.51 59.42 58.03 57.41 57.97
56.01 58.99 59.73 60.33 60.17 60.20 60.04 60.15 60.25 60.14 59.61 59.12 58.86 59.38 59.83 59.46 59.57 59.29 59.59 59.31 58.85 58.95 60.18 60.04 60.27 59.86 59.12 59.23 59.30 59.22 59.33 58.22
54.99 56.11 59.39 60.43 60.47 60.58 60.42 60.48 60.10 60.26 59.59 59.15 59.59 59.28 59.64 59.71 59.30 59.39 59.75 59.75 58.93 59.01 58.75 59.62 60.41 59.81 59.33 57.78 57.89 57.93 57.18 55.95
54.50 55.35 56.22 58.53 60.08 60.68 60.43 60.38 60.18 60.11 59.40 59.55 59.87 59.73 59.21 58.90 59.32 59.49 59.58 59.63 59.29 59.58 59.32 59.67 59.87 58.54 49.27 46.27 53.17 57.23 55.33 52.89
54.30 54.91 55.00 56.40 58.61 60.54 60.62 60.64 60.97 59.89 59.56 59.71 59.75 59.83 59.11 59.21 59.07 58.76 58.24 58.54 59.13 58.66 59.31 59.04 58.95 59.67 45.19 43.74 43.92 56.99 53.69 50.13
54.67 56.02 55.89 56.66 57.90 59.65 61.00 61.40 60.23 59.76 59.52 59.51 59.71 59.28 59.04 59.23 58.95 58.47 58.68 58.69 58.46 58.93 58.71 59.09 59.16 58.22 42.65 42.65 41.56 49.96 45.66 43.11

GFSFLT1_sfc_wetblb_081.txt.gz
Wetbulb
63.11 63.79 63.80 63.81 63.48 62.72 61.85 62.22 60.70 60.91 59.96 60.46 59.21 58.65 58.01 57.44 57.20 56.06 56.61 56.75 57.52 57.65 57.67 58.13 58.42 57.77 58.58 59.43 59.50 59.93 59.00 58.39
63.61 63.77 63.79 63.37 62.65 61.55 60.78 60.41 59.51 59.20 58.82 58.10 57.20 56.10 56.36 55.64 55.46 55.45 55.97 57.22 57.75 57.69 58.31 58.77 58.82 57.09 57.93 59.80 58.97 58.65 57.68 59.11
62.59 62.99 63.19 62.51 61.52 61.05 60.13 60.20 59.35 59.06 59.10 58.98 57.83 57.24 56.52 55.99 55.49 54.32 55.49 57.11 57.02 59.54 60.18 59.67 58.70 57.71 59.44 59.29 58.79 57.91 57.64 58.70
61.80 61.70 62.42 62.36 61.29 60.52 59.69 59.27 59.13 59.70 59.72 59.25 57.73 56.86 56.46 55.47 55.09 53.83 55.60 57.32 59.06 60.46 60.74 59.78 59.03 61.04 59.83 61.18 61.13 60.32 57.85 58.18
61.73 61.70 61.57 61.88 61.60 61.23 59.20 58.87 58.76 59.27 59.90 58.61 56.67 54.85 53.50 55.13 54.74 55.60 56.22 58.32 58.74 59.49 60.28 60.14 60.49 60.58 60.83 60.36 60.81 60.60 59.83 57.03
60.89 61.80 61.67 62.14 62.21 61.10 59.44 59.01 58.42 59.40 59.55 58.89 58.55 56.50 55.70 56.26 56.22 55.35 55.31 56.26 57.11 57.82 58.64 59.50 58.89 59.39 61.65 60.90 60.73 59.93 60.36 59.81
61.04 62.55 62.31 62.05 62.59 60.92 60.43 59.67 58.88 58.96 59.77 59.19 59.29 57.62 56.75 55.69 54.88 54.76 55.40 55.09 56.20 57.85 58.79 57.81 58.50 58.76 60.38 61.48 61.74 60.81 60.55 60.69
59.97 61.25 61.24 61.40 61.23 60.19 59.88 59.92 58.20 59.26 59.06 59.07 59.65 59.97 58.61 56.35 55.25 54.85 54.75 54.50 54.74 56.01 56.68 58.29 58.29 59.03 61.38 62.15 61.41 61.51 61.30 60.58
59.23 61.29 61.67 61.35 61.29 60.75 59.92 59.64 59.48 58.70 58.59 58.85 60.24 60.55 59.97 59.49 57.40 56.00 55.95 55.15 54.87 55.57 55.90 56.18 57.40 58.19 59.39 62.40 61.57 61.66 63.22 61.88
59.00 60.87 62.00 61.70 61.41 61.13 60.16 60.28 60.62 60.30 59.26 58.95 59.77 61.01 60.47 59.88 59.93 59.84 58.18 57.68 56.94 57.51 57.05 57.37 57.87 59.51 59.30 61.65 61.04 60.46 61.83 59.93
59.24 60.48 61.73 62.20 62.28 61.91 61.34 60.35 60.84 61.24 60.91 60.29 60.26 60.44 60.89 61.51 61.45 60.96 60.84 61.34 61.17 60.34 60.34 58.96 58.59 58.26 60.38 60.64 60.68 61.37 61.12 61.32
58.98 60.70 61.77 62.53 62.79 62.24 61.47 60.15 60.18 61.16 61.61 61.37 61.63 61.60 61.39 61.55 62.48 62.46 62.19 62.36 61.51 60.49 60.51 59.97 59.82 60.30 61.00 60.73 60.92 61.33 60.85 60.89
59.45 60.27 61.48 61.75 62.10 61.96 61.64 60.69 59.87 61.83 62.08 62.22 62.43 62.99 62.48 61.84 61.96 62.78 63.18 62.19 61.79 60.83 61.10 60.62 60.73 60.89 61.41 60.79 60.57 60.47 60.31 60.18
58.06 60.50 60.52 61.08 61.71 62.05 61.82 61.55 60.77 60.95 61.43 61.67 62.50 62.52 62.14 62.15 62.24 62.52 62.30 62.06 61.65 61.67 61.11 60.61 60.56 60.93 61.36 61.55 61.23 60.68 60.74 60.79
55.96 58.42 60.71 61.17 61.54 62.16 62.17 62.19 62.61 61.62 61.26 61.48 61.46 62.25 62.04 62.14 62.73 62.51 62.31 61.66 61.58 61.46 61.11 61.02 61.06 61.13 61.01 61.00 60.67 60.38 60.39 60.24
55.29 55.96 58.18 61.08 61.60 61.94 62.30 62.75 62.86 62.54 61.38 60.84 61.21 62.78 62.28 61.51 61.72 62.09 62.43 62.37 61.96 61.81 61.66 61.47 61.61 61.04 60.64 60.93 60.81 60.35 60.05 59.59
54.60 55.62 56.35 57.63 61.19 61.96 62.04 62.28 62.74 63.03 62.20 61.94 61.65 62.02 61.74 61.35 61.98 61.71 61.48 61.38 61.53 61.43 60.87 60.76 60.70 60.06 50.83 46.87 53.47 60.47 59.26 59.14
54.28 55.50 56.88 57.35 58.20 61.67 62.25 62.48 62.95 62.50 62.23 61.82 61.90 62.12 61.36 61.39 61.40 61.03 60.94 60.89 61.15 60.41 60.45 60.30 60.21 60.75 47.29 45.36 44.53 56.83 57.15 58.13
54.54 55.43 55.88 57.51 58.52 59.27 61.43 62.73 62.59 62.15 61.55 61.37 61.88 62.35 61.89 61.94 61.36 60.62 60.70 61.16 60.83 60.71 60.55 60.78 60.87 60.55 45.86 44.99 42.92 54.19 55.36 55.92

GFSFLT1_sfc_wetblb_087.txt.gz
Wetbulb
57.07 58.70 60.00 59.10 60.88 60.94 60.20 59.38 59.05 59.79 59.39 57.95 57.67 57.21 56.79 57.23 57.19 60.31 61.72 61.81 61.71 61.32 60.02 59.49 59.35 58.69 57.25 56.78 54.91 54.84 55.34 55.31
57.94 59.12 59.14 58.73 58.93 59.75 59.29 58.49 58.05 59.39 57.91 56.28 55.80 54.94 55.28 55.72 56.24 57.54 59.86 59.60 59.32 59.07 58.44 57.88 57.61 57.59 55.93 55.14 54.47 53.97 53.39 53.81
57.47 58.23 58.57 58.25 58.34 59.06 58.41 58.29 57.98 58.79 58.11 57.28 56.76 55.63 55.39 55.33 55.57 56.20 57.85 58.37 58.53 58.44 57.70 57.42 57.06 55.91 54.97 53.53 53.06 52.53 52.23 53.60
57.24 57.66 57.51 57.15 56.87 57.73 57.72 57.42 57.49 58.62 58.69 57.53 56.38 55.29 54.38 53.72 53.80 54.15 55.92 57.82 58.48 57.49 57.04 57.16 56.20 55.39 54.23 52.83 52.86 52.78 52.05 52.97
57.93 57.51 57.01 56.68 56.58 58.05 57.70 57.37 57.56 58.32 58.74 56.58 54.76 53.32 52.38 53.02 53.29 54.02 54.26 55.96 56.65 56.57 56.07 56.05 55.58 55.60 54.09 53.86 54.31 53.47 53.43 51.52
57.39 57.68 58.00 57.53 57.15 57.08 57.30 57.58 58.01 58.41 58.15 56.85 55.03 53.48 53.92 52.96 52.92 52.98 53.76 54.04 54.24 54.39 55.25 54.67 54.88 55.12 55.02 54.69 54.57 54.66 54.81 53.17
58.21 58.79 58.64 57.53 57.19 56.14 56.30 56.51 57.60 58.51 57.94 56.77 55.27 53.80 52.71 51.37 51.16 51.63 52.40 53.54 53.85 53.83 54.39 54.19 55.43 55.95 55.81 55.02 55.17 55.12 55.96 55.63
57.34 57.33 57.63 57.16 56.23 55.58 55.75 56.16 56.97 58.26 57.91 56.63 55.78 54.57 53.33 52.22 50.99 51.40 51.71 52.87 52.64 53.25 54.69 54.11 55.18 56.25 57.18 56.77 56.29 56.28 56.18 56.42
57.53 57.75 57.79 57.14 56.15 55.37 55.62 55.74 56.30 57.60 57.79 56.79 56.48 55.46 53.91 53.44 52.21 51.66 52.26 52.91 53.32 53.41 55.34 56.18 55.99 56.28 56.84 57.22 57.34 56.48 57.00 56.30
57.20 57.85 57.85 57.40 56.32 55.43 55.14 55.38 55.98 56.98 57.96 57.30 56.61 55.94 54.22 53.80 52.67 52.51 52.56 53.00 53.94 53.69 54.95 56.20 55.91 56.57 56.48 57.04 56.34 55.91 56.35 55.98
56.97 57.83 57.73 58.14 57.43 56.55 55.69 55.98 55.90 56.47 57.67 58.09 57.76 56.49 55.35 54.62 53.95 53.36 52.61 52.71 53.91 53.91 54.10 55.59 55.92 56.10 56.22 56.42 56.55 56.15 55.90 55.93
51.90 57.97 58.18 58.35 57.89 56.64 56.19 56.30 56.47 56.10 56.37 58.02 58.00 58.05 56.53 55.42 54.72 54.34 53.78 53.37 53.53 53.61 53.51 54.66 55.15 55.16 55.54 55.35 55.33 55.82 55.80 55.61
53.18 57.51 57.78 57.61 57.60 56.83 56.18 56.58 56.94 56.66 56.71 56.82 57.37 58.03 58.12 56.91 56.39 55.47 55.36 53.88 53.81 53.54 53.52 53.92 54.71 55.00 55.27 54.87 54.64 54.95 54.81 55.16
50.31 54.87 57.21 57.53 57.72 57.53 56.61 56.78 56.84 57.27 56.98 56.53 56.51 56.81 57.65 57.90 57.34 57.42 56.90 55.33 54.07 53.85 53.68 53.23 53.19 53.69 54.00 54.27 54.41 54.09 53.96 54.25
51.96 51.19 53.45 56.83 58.27 58.18 57.89 57.15 57.36 57.45 57.50 56.56 55.92 56.04 56.48 57.12 58.52 58.24 58.52 57.61 55.65 54.20 54.05 53.80 53.35 53.13 53.54 54.20 54.28 53.83 53.79 53.87
51.93 52.01 50.91 51.69 54.01 56.26 58.41 58.38 57.84 57.51 56.89 57.67 56.62 56.78 57.11 57.13 56.84 57.53 58.27 58.32 57.30 56.00 54.82 54.34 54.16 53.68 53.40 53.60 54.16 54.07 53.87 53.61
52.54 53.00 54.20 53.52 53.87 53.91 56.20 58.18 58.43 58.25 57.03 56.66 57.94 58.02 57.82 57.41 57.42 57.46 57.55 57.84 58.53 57.84 56.84 55.79 54.94 55.02 49.20 46.05 51.10 54.41 54.35 54.10
51.35 52.08 53.49 53.42 53.48 54.61 54.37 55.32 57.72 58.75 57.70 57.46 57.27 57.81 58.06 58.27 58.50 58.14 57.55 57.09 57.40 57.88 58.01 57.94 57.19 56.85 47.47 45.53 44.61 55.11 55.50 55.33
50.61 52.51 52.18 51.79 51.34 51.91 54.11 55.60 55.99 56.62 58.61 58.40 58.04 57.46 57.48 58.08 58.21 57.93 57.81 57.77 57.38 56.95 57.30 57.67 57.29 57.50 46.44 45.03 42.74 52.44 55.16 55.08

GFSFLT1_sfc_wetblb_090.txt.gz
Wetbulb
55.23 58.90 59.64 60.45 60.85 60.91 60.52 59.67 58.14 59.00 58.28 57.86 57.72 57.40 57.22 57.46 57.04 60.96 62.95 62.67 62.27 61.82 61.52 58.98 57.32 54.56 54.80 56.20 54.66 54.01 53.98 54.27
56.49 58.58 58.62 60.13 60.25 60.07 59.31 57.88 58.22 58.15 56.70 56.29 55.69 54.99 55.51 56.03 56.13 58.11 61.53 62.40 61.53 61.43 60.01 59.03 57.60 54.05 55.61 56.24 55.38 54.55 53.74 53.40
56.09 57.33 57.06 59.02 59.01 59.15 58.29 57.95 58.28 57.83 56.62 57.05 56.65 55.62 55.40 55.38 56.00 57.44 60.68 60.50 61.53 61.14 59.95 58.68 58.28 55.28 55.96 55.53 54.80 52.85 53.13 54.22
55.29 56.13 56.28 57.71 57.95 58.03 57.73 57.91 57.47 57.60 57.19 57.10 56.14 55.00 54.47 53.80 54.02 55.67 58.42 59.71 59.68 59.85 59.21 58.13 57.48 56.37 55.21 54.99 54.79 54.17 53.24 51.93
55.97 56.20 55.17 56.98 57.53 58.06 57.65 57.49 56.90 57.53 57.31 56.25 54.62 53.42 52.70 53.58 53.73 54.41 56.90 58.54 58.58 58.63 58.43 57.92 57.01 55.69 54.32 54.36 54.97 54.41 54.45 52.10
55.43 56.10 56.15 56.69 57.38 57.27 57.15 56.83 56.47 57.19 57.13 56.36 54.71 53.69 54.08 53.81 53.34 53.49 54.22 56.20 57.37 57.78 57.61 57.19 56.44 56.35 54.95 54.24 53.12 53.59 54.05 52.02
56.30 57.21 57.01 55.66 56.79 56.45 56.34 55.98 55.68 56.97 56.93 56.24 54.88 53.83 52.85 52.24 52.24 53.00 53.14 53.59 54.06 55.46 55.92 56.54 56.50 55.70 55.00 54.83 54.41 54.03 53.79 53.18
55.75 55.48 54.91 55.10 55.26 55.62 56.00 55.74 55.40 56.65 56.66 56.03 55.34 54.56 52.62 52.45 51.81 52.70 52.58 52.76 52.58 53.01 54.36 53.80 55.24 55.67 55.80 55.08 55.11 54.28 54.89 54.41
55.85 55.84 55.35 55.01 55.08 55.18 55.72 55.42 55.48 56.63 56.80 55.77 55.69 55.01 52.48 51.86 52.39 52.95 53.11 53.39 53.71 53.80 53.45 52.79 53.24 55.27 55.52 55.59 54.95 55.06 54.28 55.46
55.72 56.32 56.01 55.42 54.75 54.98 55.20 55.34 55.77 56.59 56.58 56.21 55.67 55.18 53.24 52.58 52.43 53.12 53.48 53.97 53.92 53.70 53.65 53.45 53.38 54.51 56.14 55.95 54.99 53.36 53.81 54.13
56.16 56.68 56.58 56.37 55.65 55.49 55.45 55.51 55.22 56.72 57.08 56.72 56.27 55.84 54.67 54.26 53.23 50.54 51.59 52.66 54.05 53.69 53.79 54.99 55.31 54.90 55.39 55.58 55.68 55.28 54.87 54.98
55.99 56.89 57.24 56.72 56.03 55.15 55.04 54.85 54.94 55.33 56.84 56.77 56.53 56.20 55.38 54.41 52.62 51.49 51.09 51.64 52.31 52.55 54.06 54.60 55.70 55.57 55.28 55.19 55.45 55.24 54.77 54.85
54.08 56.51 56.87 56.13 55.39 54.90 54.76 54.93 55.02 55.43 56.33 57.09 57.08 56.83 56.07 54.61 53.26 52.64 52.52 51.47 52.09 52.66 52.81 53.46 54.14 54.73 55.60 54.76 54.08 54.62 54.26 54.00
52.03 54.59 55.41 55.94 55.50 55.46 55.38 55.29 55.24 55.72 56.04 56.35 56.52 57.46 56.57 55.46 54.67 53.76 53.61 52.67 52.18 52.29 52.48 52.07 52.77 53.60 53.82 53.82 54.42 53.88 53.92 54.97
50.78 50.60 53.75 55.54 56.26 55.98 55.59 55.45 56.09 56.26 55.96 55.38 55.61 55.73 56.69 56.86 56.37 55.59 54.42 53.96 52.94 52.43 52.55 52.52 52.58 52.76 53.29 53.45 53.59 53.38 53.42 53.54
52.06 51.56 51.88 52.76 53.74 55.54 57.20 56.42 56.11 56.30 55.93 55.57 55.16 55.75 56.14 56.75 57.26 56.92 56.63 55.28 54.19 53.81 52.78 52.70 52.74 52.76 52.72 52.84 53.04 52.74 52.60 52.63
52.01 52.12 51.86 51.31 51.87 52.66 53.81 56.58 56.95 56.83 56.21 55.66 56.27 55.93 56.06 55.84 55.98 56.80 56.73 56.47 56.31 55.14 53.76 52.93 52.35 52.74 47.53 44.44 49.02 51.95 52.05 51.83
50.46 49.80 49.13 48.97 49.22 51.52 51.68 53.03 54.80 56.94 56.61 56.70 57.05 56.88 56.11 56.02 56.34 56.26 56.17 56.68 56.80 56.39 55.27 54.11 53.01 53.40 45.69 44.24 42.91 51.25 51.37 51.59
46.66 46.00 45.41 45.60 46.77 48.43 48.79 49.56 50.13 51.94 52.99 54.55 55.01 56.40 57.19 57.32 56.82 56.23 56.13 56.22 56.06 56.17 56.66 56.58 55.68 55.30 45.84 44.36 41.84 49.73 51.33 51.68

GFSFLT1_sfc_wetblb_093.txt.gz
Wetbulb
53.37 57.90 59.08 59.86 59.59 59.74 59.53 59.25 58.77 58.47 58.43 57.43 56.28 55.88 57.99 57.67 58.93 61.49 62.67 62.66 62.44 62.43 61.16 58.47 56.99 55.57 53.88 54.44 53.15 52.71 52.53 54.68
53.22 58.17 58.45 59.45 59.11 59.28 59.40 58.59 58.96 58.87 57.59 55.66 55.60 55.76 55.72 55.72 55.52 56.16 60.68 62.42 61.86 62.13 60.78 58.04 56.97 54.17 54.51 54.93 53.31 53.46 52.90 53.95
53.33 57.14 57.30 58.89 59.42 59.81 59.26 58.82 58.66 57.87 57.77 56.39 55.75 55.25 55.76 55.82 56.10 55.92 57.27 61.58 61.96 61.48 61.02 58.33 56.72 53.73 54.29 55.29 53.88 52.30 52.34 55.01
53.89 55.84 56.49 58.53 59.04 59.09 58.72 58.57 58.10 57.73 55.81 55.02 54.54 54.40 54.50 54.06 54.38 55.76 57.37 60.41 61.39 61.13 60.58 58.68 57.35 53.81 54.86 55.24 54.15 53.68 52.26 51.08
54.61 55.45 55.99 57.70 58.20 58.78 58.06 58.64 57.81 57.19 55.60 54.16 53.98 53.28 51.89 53.53 53.98 54.87 57.35 59.58 60.54 60.68 60.21 58.73 57.48 54.56 55.57 55.43 55.19 54.70 54.21 51.83
53.89 55.20 56.10 57.68 57.88 57.73 58.08 57.55 56.98 56.27 55.15 54.77 53.56 52.76 52.63 52.58 53.55 54.17 56.06 57.57 58.71 59.51 59.40 58.93 57.54 55.34 55.55 54.95 54.05 54.52 54.69 53.56
54.08 56.09 56.24 56.90 57.26 57.48 57.34 56.30 56.18 56.12 54.95 54.27 53.84 53.61 53.20 52.05 52.74 53.04 53.89 54.89 55.92 57.61 58.22 57.48 56.34 55.19 54.99 54.51 53.62 54.72 54.29 54.03
52.67 54.24 54.49 55.55 56.18 56.36 56.41 55.80 55.31 56.14 54.97 54.21 54.58 54.15 53.12 51.05 52.84 53.35 53.03 53.12 54.10 55.20 57.14 55.95 55.27 54.73 55.77 55.29 54.52 54.25 53.95 53.85
53.18 54.84 54.48 55.31 55.77 55.94 56.02 55.33 55.17 55.72 55.41 54.19 55.19 54.92 52.55 52.52 52.47 54.07 53.86 53.91 54.42 54.36 55.05 56.30 55.93 56.28 56.02 55.23 54.84 54.37 54.56 53.67
53.83 54.97 54.43 55.31 55.25 55.29 55.41 55.51 55.60 55.41 55.22 54.85 55.28 55.08 53.83 51.76 52.18 54.09 53.30 53.78 54.30 53.60 53.89 53.72 55.27 55.42 55.70 55.51 54.52 53.93 53.93 54.14
54.43 54.95 54.70 55.46 55.54 55.57 55.43 55.53 55.37 55.50 55.45 55.46 54.62 53.85 53.47 52.41 51.49 52.16 51.82 52.15 52.90 52.49 52.72 52.52 52.88 54.22 55.11 55.45 55.41 54.59 53.99 54.05
54.06 55.15 55.07 55.11 55.38 55.15 55.03 55.03 55.37 55.57 55.70 55.40 54.74 54.03 53.07 52.58 51.80 51.18 51.30 51.88 52.39 52.44 52.87 52.86 52.57 52.54 53.68 54.09 54.30 54.65 53.89 53.52
54.35 55.52 55.48 54.62 54.46 54.44 54.44 54.64 54.82 55.81 55.89 55.67 55.18 55.07 54.32 53.17 52.41 51.16 50.58 51.21 51.79 52.21 52.69 52.88 53.19 53.54 53.31 53.17 53.38 54.27 53.44 52.84
54.09 54.88 54.77 54.13 53.69 53.65 54.04 54.30 54.17 54.78 56.39 55.93 54.96 54.71 54.36 53.88 53.21 51.78 50.89 50.63 50.64 51.79 51.92 52.27 52.85 53.46 53.84 53.72 53.56 53.54 53.52 53.93
51.23 52.05 53.76 55.17 55.49 55.55 55.23 55.17 55.45 55.33 55.11 55.91 55.11 54.89 54.68 54.44 54.01 53.21 52.02 51.47 50.66 50.75 51.54 51.81 52.19 52.94 53.29 53.76 53.66 53.15 52.86 53.06
50.08 50.27 51.04 51.95 52.37 54.30 55.55 55.92 55.98 56.10 55.23 54.72 55.25 55.63 55.47 55.13 54.24 53.99 53.48 52.90 52.25 51.50 51.02 51.31 51.56 51.67 52.27 52.57 52.89 52.36 52.19 52.17
47.46 47.64 47.64 48.23 50.02 49.45 50.71 52.27 54.07 56.29 55.74 55.33 55.68 55.23 55.67 55.03 55.63 54.86 54.66 53.70 53.52 52.75 51.93 51.32 50.96 51.45 46.56 44.01 48.71 51.92 51.85 51.29
44.28 44.09 43.90 44.62 46.49 47.21 46.64 48.30 50.80 53.17 55.18 55.96 56.25 56.14 55.39 55.68 55.99 55.86 56.44 55.73 55.33 53.81 53.05 52.55 51.95 52.04 44.67 43.89 42.73 50.92 51.27 51.20
41.54 41.39 40.98 40.85 44.12 45.99 46.06 46.43 47.13 47.24 47.22 47.50 48.02 49.12 51.45 55.19 56.29 55.84 55.80 56.18 56.62 56.00 55.92 55.31 54.19 53.62 44.49 43.04 41.78 48.83 50.78 51.31

GFSFLT1_sfc_wetblb_096.txt.gz
Wetbulb
48.22 54.41 56.83 58.62 59.11 59.29 58.71 59.98 58.93 57.62 57.80 57.10 56.94 57.14 57.26 59.27 62.13 62.56 62.61 62.96 62.57 62.06 61.64 59.58 59.28 57.24 55.67 55.02 52.90 53.92 54.75 54.61
46.24 49.83 54.59 57.71 58.37 58.39 58.46 59.10 59.10 59.36 58.30 57.60 56.84 56.82 56.70 55.51 55.71 59.66 61.97 62.80 62.33 62.27 60.88 58.30 58.46 57.22 55.72 54.79 53.03 53.09 53.97 55.45
46.58 49.83 56.39 57.83 57.75 58.54 58.37 59.17 59.17 59.56 59.07 58.25 56.24 56.75 55.76 53.85 54.11 56.44 57.28 60.13 62.13 62.04 60.40 58.37 57.49 56.12 55.08 53.48 53.70 52.84 53.24 55.44
47.18 52.92 56.03 57.60 57.30 58.11 58.56 59.00 59.10 59.20 58.46 56.61 55.34 54.95 54.47 53.49 54.18 53.28 54.39 56.94 60.41 61.88 60.09 58.68 57.35 55.88 54.75 54.20 53.86 53.84 52.84 53.95
47.63 52.88 55.43 57.21 57.69 58.83 59.04 58.99 58.75 58.42 57.19 55.58 54.00 53.72 51.79 52.16 52.13 53.75 56.44 55.94 59.56 60.60 60.37 58.68 57.83 56.10 55.40 55.16 54.32 54.08 54.19 52.90
49.30 53.72 55.72 57.34 58.06 59.08 59.19 58.64 58.39 57.77 56.04 54.73 53.33 50.61 53.47 54.06 51.95 54.42 56.34 57.16 57.90 60.71 60.04 58.86 57.47 55.03 55.61 55.67 54.08 54.00 54.78 54.25
50.33 54.94 55.64 56.44 58.88 58.60 58.30 57.97 57.67 56.77 55.92 53.78 52.74 51.27 52.38 52.04 53.04 53.70 55.20 56.80 58.12 59.45 59.68 58.95 57.95 55.15 55.05 55.38 54.84 54.50 54.74 54.19
46.91 53.00 54.49 55.92 57.35 57.36 57.45 56.95 56.41 56.20 55.44 53.56 52.54 52.43 52.21 52.93 52.85 53.81 53.79 54.37 55.37 57.32 58.52 58.04 57.38 55.62 55.78 55.36 54.75 54.71 54.33 54.22
45.47 51.90 54.63 55.56 56.62 57.07 56.92 56.06 55.96 55.82 55.40 53.66 52.98 52.31 52.09 53.26 51.70 54.26 54.45 54.86 55.18 56.88 57.20 56.40 56.02 55.38 55.84 55.44 54.46 54.77 54.74 54.39
46.11 51.43 54.49 55.07 56.22 56.40 56.51 55.63 56.12 55.83 55.28 54.07 52.84 52.81 51.85 51.89 51.39 52.14 54.65 54.87 55.30 54.43 55.96 55.19 54.16 54.71 55.34 55.21 54.71 54.06 54.81 54.49
49.56 52.12 54.25 55.22 55.99 56.64 56.69 56.28 55.68 55.82 55.95 54.69 53.59 53.01 52.64 51.51 51.81 51.54 51.93 54.36 54.63 54.30 54.00 54.30 54.71 54.04 55.50 55.13 54.49 54.55 53.71 54.03
52.95 53.87 54.69 55.29 55.99 55.69 55.36 55.26 55.46 55.38 55.52 55.52 53.34 52.22 52.38 51.52 50.98 50.81 51.23 51.48 52.05 53.47 53.71 53.58 54.06 54.48 55.30 55.13 54.81 54.49 53.29 53.40
53.74 53.78 54.22 53.87 54.57 54.63 54.30 55.01 55.36 55.48 55.76 55.36 54.97 53.02 51.93 50.96 50.51 50.25 50.57 51.14 51.41 51.78 52.36 52.72 52.76 53.11 54.10 54.79 54.69 55.24 54.53 53.46
53.50 53.65 53.19 53.07 53.55 54.05 54.29 54.34 55.26 55.91 55.84 54.99 54.91 54.65 52.56 51.41 50.99 50.32 49.85 50.33 50.67 51.08 51.51 51.86 52.51 53.17 52.68 52.60 53.01 52.92 52.77 53.81
50.01 50.48 52.49 54.19 53.58 53.72 53.88 54.24 55.00 55.66 55.78 55.52 54.67 54.63 54.51 52.39 51.74 50.72 49.96 49.90 49.77 50.29 50.70 51.50 52.08 52.36 53.09 52.83 52.27 52.04 52.43 53.00
45.66 46.57 47.96 49.34 50.83 52.45 56.04 56.06 55.82 55.58 55.66 55.46 55.09 54.99 55.30 53.80 52.37 51.75 51.24 50.37 50.22 50.17 50.49 50.79 51.23 51.87 52.43 52.52 52.90 52.57 52.24 52.02
42.54 42.52 43.91 45.60 46.22 47.21 48.96 49.92 51.25 55.86 55.26 54.86 55.12 55.64 55.76 55.44 54.71 52.95 52.17 51.46 50.97 50.31 49.58 49.97 49.94 50.87 46.06 44.49 49.20 52.34 52.47 52.01
40.17 40.14 40.12 42.09 44.35 45.05 45.00 46.27 48.02 48.56 48.93 49.61 50.80 53.55 55.44 55.42 55.66 54.95 53.73 52.73 52.36 51.64 51.01 50.74 50.25 50.69 43.82 43.50 42.66 51.15 51.51 51.41
38.26 37.75 38.17 38.44 41.24 43.09 43.60 44.03 43.94 43.83 43.52 43.37 43.66 45.47 47.10 48.63 51.51 54.11 55.58 55.98 54.77 54.09 53.34 53.27 52.87 52.88 44.22 42.84 41.86 48.47 50.43 50.90

GFSFLT1_sfc_wetblb_099.txt.gz
Wetbulb
54.15 54.14 59.15 62.31 63.04 63.13 62.95 63.10 62.39 62.11 63.59 63.62 63.37 62.62 62.24 63.31 63.77 63.48 63.50 64.26 63.98 63.39 62.25 61.35 60.17 58.20 56.30 56.52 56.10 57.09 57.35 59.02
54.32 54.67 54.98 59.72 62.02 62.10 62.24 62.33 60.95 60.75 61.27 59.80 59.78 60.04 61.27 61.32 61.54 63.43 63.11 63.42 62.77 62.45 61.18 60.37 60.61 58.22 56.75 55.98 56.24 55.94 57.16 58.66
52.87 53.37 53.91 57.39 60.23 61.84 61.90 62.02 60.48 61.52 61.47 61.31 60.94 59.88 59.42 60.38 60.58 59.87 62.31 63.91 63.16 62.16 60.62 59.81 59.42 59.08 57.26 55.69 56.04 55.81 57.14 57.38
53.05 53.38 54.67 57.43 59.28 60.92 61.32 62.11 60.94 61.81 61.30 60.33 58.34 57.35 56.89 56.78 57.84 59.15 58.78 60.08 61.44 62.91 60.92 60.31 59.30 58.26 56.82 56.48 56.38 56.81 55.10 57.43
52.54 53.82 55.03 57.53 59.49 61.28 61.71 62.11 60.99 61.09 60.58 58.66 58.05 57.49 55.61 55.85 58.08 58.48 59.96 60.23 61.63 61.14 61.35 59.99 58.82 58.30 56.67 56.20 56.66 57.27 56.79 55.80
51.75 53.29 54.98 58.30 59.96 60.51 61.50 61.65 60.79 60.42 59.44 59.46 57.81 56.46 56.90 58.09 58.04 58.32 59.37 59.73 60.27 61.68 60.90 59.88 58.23 57.81 57.17 55.88 55.25 57.29 57.16 56.84
52.44 54.11 55.84 58.38 60.16 60.58 61.05 60.44 59.79 59.57 58.43 57.97 56.65 56.61 57.53 56.58 55.91 57.09 57.77 58.04 59.02 60.70 61.20 60.81 58.35 58.05 57.83 56.65 56.56 55.31 55.64 56.39
51.38 52.27 56.09 58.34 58.97 59.99 60.64 59.99 58.15 58.30 58.42 56.52 56.55 58.35 57.77 55.77 56.25 56.95 56.49 56.33 57.45 59.36 60.04 60.03 58.46 59.05 58.25 56.98 55.48 55.07 55.71 56.69
53.13 51.97 56.52 58.05 58.96 59.82 59.28 58.82 57.96 57.88 57.49 55.84 57.83 58.26 57.58 57.60 57.29 57.11 56.83 55.90 56.43 58.78 60.24 58.99 58.34 57.85 57.81 56.28 55.76 55.56 55.65 55.73
54.44 54.15 54.39 57.80 58.77 59.37 59.08 58.39 58.28 57.45 56.70 56.07 57.62 57.87 57.43 57.03 57.00 57.26 57.25 57.37 57.08 58.03 57.89 57.73 57.41 56.76 56.41 56.11 55.09 54.55 55.16 55.30
54.34 54.78 53.45 57.25 58.66 59.24 59.22 57.69 57.21 56.76 56.65 56.17 57.58 57.53 57.45 57.56 57.43 56.95 56.89 56.55 56.63 56.68 57.29 55.93 55.38 55.72 55.88 55.66 54.89 54.41 53.85 54.97
54.63 55.30 56.14 57.31 58.37 58.54 57.48 56.85 56.69 56.18 56.12 56.01 57.49 57.15 56.83 56.74 56.81 57.11 57.31 56.43 56.20 55.79 55.85 56.41 55.27 55.29 56.17 55.40 54.67 55.12 54.39 54.15
54.56 54.85 55.62 55.94 56.31 56.19 55.72 56.23 55.89 56.43 56.68 56.81 57.26 57.24 56.68 55.84 56.03 56.17 57.18 56.74 55.46 56.74 55.97 55.28 55.49 55.23 56.28 56.19 54.99 54.88 54.64 54.03
48.95 52.51 53.71 54.16 54.42 54.87 55.12 55.52 55.71 56.24 56.95 56.44 56.33 56.44 55.74 55.75 55.43 55.47 55.94 56.65 56.87 56.64 56.64 54.55 54.06 54.89 55.43 55.75 55.53 55.59 54.63 54.20
44.15 45.66 46.97 49.57 53.70 54.53 55.18 55.28 56.04 56.46 56.50 56.05 55.73 56.32 56.09 55.91 55.97 55.34 54.85 55.55 55.91 56.07 56.45 56.73 56.85 55.69 54.42 54.51 54.93 54.92 55.45 56.12
41.68 41.57 43.74 45.09 46.63 48.40 50.49 54.75 56.94 57.13 56.27 56.16 55.63 56.46 56.24 55.61 55.93 55.79 55.32 54.67 55.11 55.83 55.67 55.80 56.33 56.38 56.24 56.01 54.53 53.79 53.87 54.66
39.90 39.85 39.88 42.54 43.78 44.78 45.90 46.66 52.50 56.35 56.63 56.06 56.33 55.80 55.79 55.32 55.51 56.44 55.33 54.89 55.01 54.74 54.39 54.85 55.05 54.58 46.61 45.11 51.93 55.76 54.99 55.34
37.85 38.26 37.76 38.70 41.89 43.48 42.98 42.97 44.19 44.47 45.17 45.76 47.26 49.60 50.73 52.34 55.62 55.24 54.79 55.52 55.43 54.72 54.49 54.57 54.69 55.23 43.54 43.80 43.31 55.54 55.75 55.93
36.06 35.90 36.64 37.37 40.88 41.83 41.80 41.10 40.99 40.26 39.91 40.31 41.91 43.70 43.99 44.97 46.26 46.61 47.25 50.39 54.51 54.33 54.14 53.93 54.02 45.85 37.36 40.41 41.14 50.25 52.32 53.05

GFSFLT1_sfc_wetblb_102.txt.gz
Wetbulb
57.54 58.89 59.67 61.53 64.98 66.69 67.49 67.56 67.70 65.29 65.05 67.92 67.15 64.96 64.42 64.90 64.55 66.29 66.87 65.66 66.26 65.96 65.32 61.46 60.16 58.82 58.00 58.94 58.34 58.99 59.61 62.23
57.79 59.04 60.24 60.52 62.96 65.50 66.47 66.57 67.53 64.08 64.34 64.30 63.69 62.22 62.74 64.75 64.35 64.99 65.84 65.87 65.30 64.72 63.76 61.37 59.71 58.10 57.60 57.67 57.54 57.33 57.90 60.09
56.48 57.86 59.21 60.29 61.32 64.16 65.53 66.11 66.96 65.75 66.18 66.09 65.24 63.81 62.87 63.83 63.75 65.21 66.16 65.74 64.92 64.28 62.47 61.87 60.17 58.72 57.98 57.37 57.24 56.46 57.29 59.21
55.33 56.53 57.97 59.72 60.80 63.10 64.42 65.72 66.79 66.04 66.71 66.19 64.89 64.25 62.74 62.55 62.70 61.55 63.96 65.59 64.40 63.02 62.63 61.26 59.97 59.21 58.11 58.52 58.58 58.52 56.65 57.98
54.33 55.38 56.90 58.80 60.59 63.24 64.27 65.21 66.26 65.97 66.54 65.05 63.07 61.74 60.57 62.49 62.42 61.21 61.38 64.30 63.60 63.07 62.32 61.75 60.24 58.89 57.63 58.96 59.60 58.55 58.63 56.52
55.90 56.14 56.53 58.04 60.15 62.64 64.27 64.78 65.63 65.58 66.05 65.06 63.50 63.35 63.65 63.62 62.42 60.92 61.69 63.11 63.98 63.02 61.42 61.98 61.18 59.52 58.73 57.90 59.47 59.44 58.92 58.45
57.31 57.67 57.87 57.95 59.45 62.49 64.19 64.05 64.63 65.07 64.66 64.60 64.05 63.69 62.87 61.79 61.53 61.48 61.46 60.87 62.00 62.35 63.25 61.09 60.23 60.16 59.15 58.13 57.05 59.01 59.09 59.81
57.93 57.80 57.48 57.83 59.14 62.81 63.48 63.73 63.63 63.44 62.21 63.39 63.91 63.02 63.29 62.15 61.69 61.44 61.11 59.08 59.79 61.31 62.10 61.96 59.89 59.31 59.32 57.49 56.51 56.82 57.60 57.30
58.33 59.22 59.07 57.97 60.84 62.82 63.11 63.07 62.75 61.01 60.51 62.23 63.25 62.69 63.51 62.58 61.62 61.63 61.46 60.47 60.43 60.79 61.15 61.73 61.13 60.03 58.65 57.93 56.38 56.57 57.15 57.04
56.58 60.00 60.04 58.55 61.45 62.58 62.97 62.06 61.57 60.06 59.23 60.01 60.25 63.61 63.00 62.01 61.89 61.99 60.64 60.07 59.03 59.06 60.24 59.43 59.40 59.63 60.01 59.08 58.88 57.12 56.33 56.63
51.54 59.41 59.69 58.73 61.80 62.96 61.93 61.13 60.14 58.90 59.26 59.25 61.10 62.92 62.69 62.25 61.60 60.54 60.69 60.43 59.67 59.50 58.41 59.62 58.41 58.05 57.95 58.07 56.83 56.00 55.46 55.64
48.20 53.97 59.72 59.59 61.14 62.09 59.86 59.67 59.01 58.24 58.07 59.03 61.39 62.33 62.26 61.71 61.09 60.89 60.08 60.32 59.10 58.90 58.61 59.39 57.16 56.31 56.22 55.82 55.34 55.10 54.51 54.79
45.07 48.22 54.54 57.87 59.55 59.12 58.13 58.50 57.89 57.71 57.75 58.52 60.61 61.76 61.51 60.88 60.76 60.77 60.18 58.91 59.28 58.41 58.23 58.99 57.46 57.81 57.76 57.13 55.91 55.65 54.55 54.00
43.82 44.65 47.50 52.17 56.04 56.82 57.69 57.59 56.69 56.92 57.08 57.88 59.01 59.43 60.44 60.04 60.32 60.55 59.95 59.02 58.56 58.38 58.66 58.13 56.89 57.61 57.98 57.56 57.00 57.03 56.41 55.81
41.47 41.48 44.21 45.93 48.51 54.40 55.87 56.03 56.85 56.93 57.45 58.19 57.80 58.12 59.54 59.71 59.73 59.51 59.41 59.14 58.00 58.06 58.05 58.72 58.44 58.37 57.91 57.91 57.74 56.70 57.77 57.70
38.76 39.52 40.92 43.30 44.73 46.13 47.92 54.87 56.25 57.15 57.09 57.22 57.26 57.78 58.00 57.78 57.60 58.05 58.77 58.68 58.28 58.51 58.28 58.76 58.62 58.35 57.96 57.90 57.24 56.89 56.91 56.70
37.19 37.71 38.35 41.11 42.58 43.03 43.60 45.15 46.34 48.82 49.52 50.96 56.35 57.22 56.64 56.52 57.69 57.05 56.97 57.50 58.03 57.96 57.52 57.97 58.08 57.75 48.38 46.21 53.14 57.93 57.33 57.08
34.87 35.15 36.73 39.01 40.83 41.97 41.01 41.13 42.41 42.92 43.33 44.20 45.39 47.89 49.66 50.89 55.04 55.77 56.77 57.37 57.78 56.89 57.32 57.59 57.01 53.74 37.62 41.20 43.47 57.98 58.10 57.90
33.36 33.50 34.62 37.21 40.08 40.15 39.92 39.92 40.48 38.80 38.48 39.83 40.46 42.32 42.93 44.30 45.37 46.04 47.68 49.47 47.81 50.36 48.44 53.92 44.11 37.98 36.18 36.53 37.81 47.92 52.03 54.39

GFSFLT1_sfc_wetblb_105.txt.gz
Wetbulb
57.18 57.28 58.65 60.44 62.24 64.91 67.15 69.75 70.50 70.11 69.39 69.65 69.54 68.73 67.35 67.46 67.46 67.12 67.22 67.80 67.92 67.29 66.43 66.22 66.05 64.02 62.42 61.07 60.43 61.31 61.16 61.06
58.52 59.09 59.26 59.97 61.76 64.45 66.47 68.69 69.55 68.73 66.03 66.90 67.69 66.30 64.12 64.90 65.23 66.58 67.69 67.52 67.26 66.60 66.01 63.24 61.97 60.19 59.81 59.81 59.77 59.30 59.80 60.84
57.27 58.64 59.61 60.80 61.30 62.53 65.73 67.17 68.43 68.79 66.82 67.20 67.94 66.33 64.19 66.19 65.71 66.20 66.36 66.48 66.78 66.39 64.93 62.42 60.34 58.64 58.15 58.63 58.37 58.37 58.46 60.43
56.11 57.51 58.84 60.21 60.58 62.36 63.21 65.96 67.36 68.58 67.33 67.62 67.81 66.84 64.69 63.93 64.05 64.95 65.36 65.99 66.35 66.20 65.22 62.69 60.58 59.25 57.76 57.77 58.25 58.21 56.81 58.42
55.01 55.90 57.02 59.05 61.63 63.73 62.65 65.12 66.49 67.93 67.74 67.22 66.73 64.82 62.95 63.96 64.19 63.52 64.91 65.55 65.17 65.47 64.44 61.79 61.11 59.05 57.98 58.37 59.14 58.69 58.06 56.39
57.58 58.26 58.58 58.05 60.26 63.10 64.40 64.14 65.61 67.20 67.92 67.90 67.44 65.25 65.15 65.06 64.78 64.00 63.42 64.80 64.66 64.49 63.61 63.61 61.08 60.46 59.23 59.49 59.68 60.27 59.43 57.51
58.95 59.86 60.27 59.23 59.94 61.43 63.92 63.91 64.43 66.78 67.23 67.90 67.56 65.10 65.08 64.37 64.14 62.64 61.64 62.98 63.46 64.54 63.65 62.29 61.75 60.74 60.09 59.45 60.18 60.24 59.89 59.35
58.55 59.22 60.82 60.24 59.59 60.91 63.48 63.46 63.47 65.81 66.79 67.19 66.60 65.62 65.86 64.95 63.66 62.71 62.53 61.27 61.92 63.50 64.03 63.12 60.95 60.34 60.90 59.12 59.29 58.89 59.27 58.29
56.70 58.68 61.04 61.60 60.94 60.10 61.28 62.10 63.61 64.67 65.99 66.32 66.72 66.34 65.81 64.98 64.25 63.30 63.05 61.89 61.47 62.29 62.50 63.20 62.51 61.52 59.92 59.16 58.86 58.46 59.01 58.77
54.29 55.68 56.53 61.46 61.80 60.29 62.17 63.37 64.00 64.57 65.20 65.59 65.60 66.11 65.41 64.83 64.38 63.85 63.30 63.58 61.53 61.86 62.41 62.36 61.26 61.28 60.18 58.42 57.46 56.43 57.07 57.59
51.18 51.14 52.61 56.52 61.55 62.05 64.43 64.57 63.94 64.53 62.25 62.15 63.88 64.53 65.52 64.90 63.93 62.98 63.03 61.89 60.82 61.10 61.08 61.22 61.85 60.95 60.04 58.96 57.64 57.29 57.28 57.41
47.21 46.62 46.91 52.03 57.02 63.17 63.71 63.63 63.86 60.89 59.74 60.17 62.44 63.31 64.76 64.35 63.02 62.67 61.54 60.64 60.55 60.22 60.72 59.57 58.28 57.88 58.32 58.84 58.74 57.98 56.78 56.19
46.12 42.97 42.70 45.82 48.66 60.70 60.06 60.82 59.93 60.29 58.92 59.20 61.74 63.11 63.43 62.92 62.20 62.05 61.47 59.48 60.08 60.01 60.55 58.79 59.14 58.32 57.79 57.04 55.53 55.55 55.13 54.49
45.07 40.77 39.34 42.31 45.38 51.54 58.47 58.57 58.11 58.23 58.26 59.22 61.03 61.68 61.80 62.03 61.77 61.00 59.69 59.45 59.23 59.81 60.09 59.09 58.48 58.67 58.05 57.28 56.61 56.11 56.07 56.21
43.95 39.32 37.52 39.41 42.94 45.50 52.61 57.12 57.69 57.31 57.95 58.75 58.77 59.60 60.60 61.54 61.57 60.02 59.05 59.25 58.67 58.51 58.87 59.09 58.00 57.80 58.16 58.13 57.99 57.73 57.48 57.80
40.22 39.63 37.22 36.52 40.98 42.20 44.35 47.99 55.89 57.38 57.33 57.77 57.52 59.23 60.19 60.99 60.32 58.89 58.87 58.73 58.31 58.31 58.35 58.67 58.65 57.96 57.86 58.39 58.07 57.21 57.40 57.46
35.63 37.67 35.91 35.15 38.97 39.25 41.03 41.83 43.75 47.00 47.34 47.67 55.24 57.91 58.05 58.00 57.80 57.78 58.03 57.95 58.19 57.99 57.93 58.35 58.97 58.28 38.79 44.02 52.12 58.18 57.80 57.73
34.17 33.27 34.43 35.00 37.82 39.39 38.88 39.22 40.64 40.99 41.18 42.53 44.70 47.58 48.82 49.80 55.28 56.47 56.34 57.13 58.18 57.61 57.48 57.59 50.04 42.06 36.94 38.11 39.65 56.47 57.62 57.93
33.36 32.14 32.57 34.83 37.14 37.91 38.30 38.53 38.05 38.04 38.09 39.23 40.60 42.44 43.26 44.48 45.48 46.68 46.79 45.65 44.37 44.76 44.15 43.78 41.04 36.93 35.47 36.36 36.32 51.95 53.53 51.53

GFSFLT1_sfc_wetblb_108.txt.gz
Wetbulb
56.94 57.94 56.97 57.14 58.89 61.55 68.64 69.51 69.53 69.40 69.42 69.08 68.81 68.13 67.09 67.04 66.32 66.45 66.71 66.27 66.60 66.41 65.34 64.79 64.86 64.08 63.01 62.66 61.75 62.27 61.17 61.05
57.03 58.82 58.77 58.41 58.65 61.08 65.82 68.73 69.15 68.77 68.02 67.34 66.90 66.03 65.90 65.45 65.66 65.91 65.68 65.94 66.29 66.01 64.99 64.24 63.77 62.84 62.55 61.24 61.27 60.69 60.41 61.31
56.33 57.88 58.73 58.89 58.71 61.52 64.34 68.30 69.13 68.38 68.12 67.57 67.42 66.72 65.45 64.93 64.59 64.70 65.77 65.81 65.92 65.45 64.08 62.50 61.15 60.33 60.25 60.23 59.82 59.10 58.93 60.80
55.36 56.53 57.64 60.65 60.17 62.03 61.91 64.88 68.54 68.21 67.54 66.87 66.56 65.67 64.01 63.24 63.91 63.81 64.36 64.85 64.78 64.97 63.90 61.57 60.20 59.41 58.55 59.02 58.95 58.54 56.93 59.55
55.29 55.72 56.71 58.74 60.77 62.68 61.28 63.01 66.42 68.04 66.90 65.33 64.62 63.55 61.74 62.30 63.25 63.16 63.58 64.18 64.24 64.52 63.77 61.54 59.62 59.18 58.39 58.49 59.02 58.68 58.26 56.61
56.69 57.57 58.47 58.88 59.24 59.75 62.63 61.76 64.45 67.05 66.89 65.49 64.85 64.59 63.76 62.84 63.37 62.65 62.66 63.94 63.95 64.45 63.58 61.86 59.50 58.90 58.46 58.40 58.37 58.38 58.68 57.61
57.30 58.44 59.97 60.04 60.14 60.09 60.44 62.23 62.63 65.08 66.85 65.62 65.35 64.72 63.81 62.70 62.76 61.65 61.83 62.07 62.98 63.34 63.25 61.74 60.14 58.90 58.32 58.46 58.84 58.88 58.26 58.22
54.94 55.71 56.71 58.85 59.84 61.32 60.05 59.93 60.97 63.48 66.11 65.62 65.62 65.73 64.60 63.16 62.65 62.03 60.70 60.89 61.18 62.09 62.72 62.10 61.21 59.54 58.99 59.32 59.25 59.13 58.79 58.17
53.02 53.07 53.98 55.00 57.08 58.82 56.55 59.29 59.99 62.55 65.07 65.77 65.50 66.45 64.68 64.57 63.76 62.28 60.87 60.73 60.81 61.55 62.61 61.90 61.26 60.55 59.42 59.28 58.83 58.77 58.84 58.56
50.09 49.87 50.54 49.78 52.87 54.41 56.09 57.79 59.80 61.70 63.72 65.34 64.96 65.55 64.43 64.57 63.26 62.78 62.14 61.41 60.87 60.57 61.42 62.02 60.90 60.70 59.88 59.25 58.30 58.25 58.75 58.32
47.76 46.92 45.71 46.38 50.12 51.91 53.32 60.78 59.62 62.36 64.28 64.71 64.97 64.83 65.09 64.43 63.20 62.17 61.76 61.41 60.48 59.88 59.81 60.59 61.27 60.39 59.47 58.68 57.83 57.81 57.25 57.36
45.91 44.04 42.97 42.90 46.18 47.76 50.36 61.90 62.55 63.52 63.93 63.57 63.89 63.53 63.49 63.50 62.60 61.81 61.70 60.01 59.41 58.97 59.38 59.59 59.87 59.58 59.16 57.87 57.31 56.79 56.35 56.43
44.57 42.21 40.50 39.82 42.70 44.70 46.86 55.52 59.95 61.16 62.09 61.28 61.78 62.18 62.55 62.06 61.53 61.65 60.16 58.95 59.32 59.35 59.27 58.91 58.80 58.82 58.92 57.89 57.07 56.83 55.97 55.87
41.88 41.58 39.65 38.53 40.08 41.25 42.92 47.51 58.11 58.78 59.36 59.62 60.08 60.99 61.33 60.94 60.68 60.88 59.56 58.98 58.68 58.98 59.04 58.62 58.31 58.22 57.58 57.13 56.91 56.47 56.43 55.78
37.98 38.56 39.14 38.14 38.94 39.78 40.79 42.26 47.12 57.56 58.13 58.38 58.98 59.63 60.43 60.27 60.59 59.18 58.56 58.67 58.02 58.03 58.25 58.44 58.21 57.95 57.71 57.44 56.66 55.72 55.52 55.77
35.17 35.38 36.52 37.87 37.58 38.01 39.05 40.01 42.39 45.77 51.47 56.29 57.79 59.00 59.60 59.74 59.45 58.24 58.30 57.95 57.87 57.70 57.77 57.42 57.45 57.10 54.39 56.85 57.12 56.42 56.12 55.82
33.63 34.01 34.59 35.51 36.95 36.41 37.96 38.40 39.21 41.28 41.83 42.63 46.64 53.38 56.75 57.53 57.86 57.69 57.81 57.12 57.28 57.13 56.94 57.35 56.44 45.35 37.96 39.41 49.10 56.22 55.97 55.92
32.98 33.01 33.34 34.01 36.81 37.34 36.73 37.22 38.25 38.02 38.51 39.69 41.12 43.65 45.89 48.90 54.09 54.65 54.09 53.76 56.53 54.79 54.65 46.39 41.87 39.58 36.74 38.30 38.41 55.06 54.60 51.72
32.74 32.24 32.30 33.15 34.90 37.17 37.21 37.13 36.75 36.05 36.53 37.17 38.68 39.85 40.47 41.14 43.17 42.76 41.91 41.97 42.05 42.05 42.18 41.54 38.69 36.26 35.81 36.81 37.08 51.81 43.51 39.98

GFSFLT1_sfc_wetblb_111.txt.gz
Wetbulb
52.84 52.73 53.29 52.58 52.32 55.86 66.75 67.03 68.23 67.85 67.34 66.98 66.26 65.36 65.10 65.10 64.67 64.60 64.41 65.70 65.12 64.07 63.48 62.81 63.03 62.48 62.70 61.87 61.66 61.29 61.50 61.25
52.94 52.77 53.24 52.69 51.23 55.13 66.24 66.24 67.19 67.28 66.78 65.69 65.39 64.13 64.36 64.53 64.38 64.48 64.54 64.32 64.78 63.62 63.39 62.68 62.90 62.33 62.85 62.73 61.48 61.09 60.31 60.52
52.04 51.59 50.77 52.31 53.04 53.80 66.06 66.37 67.08 67.19 67.23 66.68 65.31 63.34 62.05 62.20 62.46 63.74 64.24 63.86 64.09 63.75 62.75 61.68 62.51 61.70 61.29 61.18 60.84 59.34 59.85 60.91
50.49 51.55 49.89 51.93 52.64 52.72 65.31 66.85 67.22 67.00 66.76 64.83 63.72 63.19 62.49 61.08 60.41 60.72 62.31 63.47 63.74 64.04 62.01 60.97 61.00 60.40 60.03 60.46 59.89 58.71 57.57 59.84
52.60 53.16 53.58 53.03 53.10 55.92 58.27 67.17 66.97 66.76 66.01 65.37 63.88 62.53 61.31 61.31 60.81 60.77 61.53 62.34 62.77 62.70 61.29 59.93 58.71 58.31 58.62 59.22 59.77 59.54 58.73 57.89
52.85 53.42 54.57 55.38 56.70 56.78 58.06 57.50 66.56 66.45 65.81 65.07 63.73 61.92 61.80 60.30 60.45 60.18 61.03 61.43 61.69 62.36 60.66 58.93 58.67 57.87 58.10 58.04 58.28 58.93 59.09 57.83
51.15 51.71 52.31 52.25 52.43 53.55 55.43 57.33 58.20 65.55 64.91 64.14 63.45 62.44 61.33 60.37 60.41 60.37 60.63 61.35 61.38 62.01 60.91 59.50 59.02 57.98 58.01 57.90 58.53 58.59 58.28 58.50
47.47 47.43 47.46 47.46 47.30 49.83 52.21 53.82 55.04 57.52 64.19 63.21 62.94 62.48 62.11 60.30 60.23 60.29 60.19 59.46 61.14 60.94 60.81 59.33 59.02 58.48 58.13 57.75 57.78 58.17 58.17 57.89
45.35 45.26 44.40 43.92 45.12 47.01 48.38 49.16 51.41 54.02 63.68 63.63 63.12 63.31 62.74 61.87 61.31 61.01 60.37 60.25 59.44 60.62 60.96 60.26 59.35 58.76 58.25 57.93 58.05 58.45 57.87 57.97
43.08 42.98 42.28 42.51 42.97 44.53 45.95 47.97 50.09 55.73 59.87 63.98 62.89 63.44 62.83 62.25 62.30 61.33 60.60 59.99 59.47 59.93 60.44 60.30 60.33 58.89 58.70 58.58 58.28 58.09 57.79 57.05
41.47 40.83 40.65 41.43 42.47 43.88 45.16 47.98 50.28 59.73 58.57 63.84 63.06 62.72 62.98 62.43 62.47 60.81 59.65 59.46 59.86 58.59 60.18 59.80 59.41 59.31 59.07 58.32 57.58 58.27 57.95 57.71
39.60 39.55 39.53 39.78 41.75 42.27 43.16 44.92 47.86 58.14 59.40 62.28 62.46 62.39 62.02 61.43 61.74 61.28 60.53 59.36 58.32 58.14 58.23 59.62 59.42 59.49 59.16 58.45 57.89 57.86 57.25 57.43
37.84 38.42 38.19 38.60 39.82 40.37 40.82 42.48 44.69 48.70 58.19 58.09 59.45 60.40 61.06 60.96 60.73 59.72 59.43 57.88 58.02 57.21 57.27 57.92 59.32 59.33 58.79 58.03 56.97 56.91 56.75 55.99
36.64 36.47 36.64 37.37 38.36 39.11 39.54 40.80 43.05 45.61 55.04 57.41 57.91 58.45 59.64 59.95 60.02 58.81 58.56 58.03 57.62 57.24 57.69 58.14 58.53 59.04 58.47 57.95 57.39 56.49 56.43 56.13
35.13 35.07 35.54 36.30 38.30 38.31 38.42 39.30 40.72 42.89 46.30 49.52 54.08 58.69 59.59 60.22 59.49 58.56 58.25 58.09 57.75 57.52 58.54 58.28 57.99 57.66 57.73 57.75 57.35 56.85 56.65 56.55
33.78 33.87 34.45 35.45 36.62 37.97 38.25 38.29 39.09 40.66 41.67 43.05 44.23 47.28 58.45 58.23 58.52 58.17 58.19 58.01 57.98 57.56 57.87 57.45 57.85 57.47 54.53 56.91 56.51 55.75 55.61 55.39
33.11 33.29 33.47 34.10 35.27 36.43 37.40 37.40 37.34 38.66 38.88 39.70 41.48 42.60 45.06 52.83 57.34 57.45 57.24 57.14 57.12 56.82 56.51 56.09 47.78 44.53 38.18 39.65 52.18 55.81 55.75 55.30
31.95 31.92 32.55 33.72 34.25 35.72 35.75 36.78 37.26 36.65 36.87 38.29 39.14 39.44 40.48 41.80 43.49 50.53 52.11 54.80 53.19 52.04 48.70 45.79 41.61 39.55 36.80 38.88 39.55 55.95 54.40 50.43
32.32 31.93 32.09 33.32 34.92 35.13 36.13 35.36 35.59 35.16 35.07 35.97 37.08 37.80 38.13 38.37 38.61 36.79 37.69 38.92 39.89 39.55 38.97 38.45 37.11 36.57 35.93 37.39 40.31 45.05 40.88 39.02

GFSFLT1_sfc_wetblb_114.txt.gz
Wetbulb
50.12 49.91 50.39 50.48 50.56 59.21 65.86 67.07 67.25 67.98 67.50 66.50 66.03 65.05 64.58 65.28 64.97 64.71 64.58 65.83 65.22 63.82 63.00 62.57 63.50 63.45 62.08 61.81 61.63 61.71 61.20 60.17
51.37 51.71 52.73 49.86 49.49 52.36 64.02 65.54 66.79 67.64 66.50 64.96 64.27 64.25 63.66 63.75 64.37 64.38 63.67 63.91 65.02 63.87 63.05 62.35 62.25 62.95 62.72 62.42 61.85 61.00 60.22 61.11
48.99 49.24 49.77 50.17 50.43 52.19 62.66 65.13 66.59 67.18 66.97 66.54 65.26 64.43 62.74 63.51 63.26 63.57 64.01 63.29 63.50 63.35 62.83 62.18 61.88 62.00 61.70 62.41 61.47 60.26 60.38 61.04
51.15 52.78 53.10 53.87 54.41 54.93 60.10 64.40 66.59 67.18 67.23 65.47 62.75 61.62 61.34 60.22 61.74 62.77 62.90 63.41 63.46 63.63 62.71 62.14 61.29 61.74 61.62 61.30 61.32 60.37 58.63 59.88
51.50 51.10 50.49 50.19 50.94 54.34 56.02 59.35 65.34 66.81 66.89 64.91 63.57 62.99 61.49 62.54 62.50 62.69 62.44 63.03 63.01 63.02 62.43 61.42 61.34 61.54 61.13 60.51 60.91 60.09 58.72 57.26
46.82 47.11 47.35 46.81 47.90 49.36 52.16 54.13 57.05 64.52 65.29 65.50 64.26 63.84 63.86 60.56 61.22 60.78 62.07 62.25 62.48 62.68 61.58 60.35 59.17 58.29 57.84 58.79 59.32 59.06 59.03 57.91
43.82 44.28 44.79 44.46 45.09 46.23 48.17 49.39 51.67 55.33 59.43 64.16 63.90 63.20 61.99 60.55 60.61 60.54 60.86 61.21 60.58 61.72 61.18 59.92 58.84 57.36 56.56 57.24 58.64 58.85 58.56 58.74
40.48 39.97 40.44 41.63 42.29 43.63 46.28 46.49 47.79 50.99 52.90 58.82 63.68 63.92 61.94 61.07 61.06 61.08 60.50 60.14 60.23 60.97 60.76 59.69 57.85 57.70 57.60 57.54 57.64 58.12 58.54 58.38
39.21 39.29 39.15 39.43 41.49 42.22 43.64 45.28 46.97 50.22 50.86 53.58 62.90 63.52 62.37 61.98 61.20 61.25 60.64 60.62 60.55 60.75 60.95 59.97 58.04 57.44 58.15 57.30 56.94 57.84 58.46 58.36
37.82 38.52 38.41 38.77 39.86 41.06 42.84 44.11 45.66 48.71 52.86 57.88 59.45 62.81 62.35 61.47 61.09 60.96 60.70 60.67 60.88 60.58 61.28 59.58 57.76 57.46 57.95 57.36 56.70 57.04 57.66 57.98
36.84 37.49 38.29 39.02 39.60 40.71 42.46 43.13 43.70 46.54 49.56 57.21 59.60 62.24 62.55 61.92 61.02 60.27 60.20 60.15 59.84 59.94 60.42 59.78 59.16 58.45 58.09 57.66 56.80 57.53 57.28 57.08
36.60 37.28 38.15 39.27 39.44 40.42 40.76 41.63 42.15 43.93 46.99 54.44 60.20 62.09 62.33 61.38 61.15 60.84 60.22 59.60 59.50 59.55 59.78 60.08 59.36 58.21 58.23 57.70 57.47 57.31 57.50 57.14
35.95 36.59 37.22 37.54 38.61 39.16 39.25 40.32 40.80 42.47 45.11 49.47 58.38 59.37 59.64 60.82 60.76 60.48 60.18 59.52 59.77 59.33 59.39 59.43 59.41 58.85 58.44 57.50 57.14 57.30 56.98 56.94
34.82 34.95 35.34 36.28 37.12 37.94 38.68 39.30 39.71 41.13 43.09 45.48 49.12 50.92 58.89 59.03 59.14 59.55 59.46 59.08 59.02 58.13 58.26 58.62 58.81 59.05 58.35 58.25 57.90 57.22 57.24 57.16
33.59 33.46 34.21 35.29 36.37 37.01 37.25 38.45 39.04 39.63 41.05 42.13 42.94 45.73 48.81 58.93 57.62 58.30 58.47 58.59 57.99 57.50 57.49 57.62 58.80 59.00 58.96 58.42 57.68 56.94 56.80 56.84
32.03 32.18 33.05 34.25 34.82 35.46 36.66 37.04 38.33 38.71 38.74 39.57 40.60 42.24 43.76 46.80 56.90 57.08 58.13 58.10 57.97 58.07 57.81 57.04 57.42 57.88 56.02 57.69 57.54 56.82 56.28 56.04
31.19 31.57 32.18 33.30 33.86 34.46 35.45 35.72 35.75 37.70 36.96 37.33 39.02 40.50 40.84 40.88 43.32 53.58 57.46 57.51 57.31 57.31 57.12 56.42 51.80 46.23 38.33 39.89 51.73 56.24 56.12 55.62
30.59 30.81 31.25 32.46 33.66 34.45 33.67 34.12 35.14 34.60 35.72 35.80 37.04 37.81 38.74 38.84 39.12 39.18 41.10 43.83 49.84 47.97 47.52 46.46 42.54 39.79 37.24 39.12 39.10 55.86 55.30 54.52
30.09 30.24 30.79 31.60 33.36 34.69 34.58 33.86 33.12 32.58 32.41 34.20 34.84 35.89 36.34 37.48 37.60 35.75 35.08 35.60 36.43 37.28 36.96 37.59 37.52 37.37 36.43 37.93 39.56 45.54 41.97 39.76

GFSFLT1_sfc_wetblb_117.txt.gz
Wetbulb
49.30 49.29 48.73 48.70 57.50 65.18 67.00 67.60 67.69 67.34 67.36 65.63 65.41 64.27 65.63 65.70 65.72 66.00 65.62 65.78 64.83 63.72 62.99 61.93 62.45 62.55 62.71 62.21 61.44 61.51 60.79 60.32
49.41 50.63 50.49 47.76 46.19 51.20 64.28 65.76 66.87 66.96 66.08 64.93 64.91 64.15 64.59 64.64 65.23 65.40 65.60 65.80 64.76 63.58 62.79 61.88 62.38 63.07 62.66 62.25 61.70 60.70 60.29 60.74
51.10 53.15 53.05 52.20 52.83 50.54 56.10 64.23 65.90 66.85 66.80 66.22 66.08 65.67 63.78 64.41 62.79 63.29 64.57 64.50 64.38 63.79 62.93 61.82 62.68 63.37 62.41 62.09 61.52 60.33 60.45 60.44
50.28 48.72 46.99 47.63 48.48 50.25 54.68 60.83 63.98 66.00 67.07 66.31 62.44 62.11 61.60 61.14 62.10 63.07 63.39 63.48 63.55 63.72 62.86 62.31 62.18 62.49 62.01 62.24 61.99 60.71 59.30 60.11
46.11 45.26 44.60 44.49 45.46 47.62 50.24 53.20 59.39 64.54 65.43 64.88 62.52 63.26 62.15 63.21 63.57 63.91 63.15 63.22 62.58 62.98 62.57 61.73 61.51 62.10 61.49 61.94 61.88 61.18 60.30 58.38
41.51 42.08 43.07 43.35 43.87 44.71 46.98 49.10 51.51 55.22 60.18 65.10 63.65 62.29 62.38 60.63 61.21 62.36 62.04 62.43 62.77 62.71 62.43 61.45 61.02 61.87 62.44 61.45 60.38 60.41 59.74 58.82
39.07 40.52 41.45 41.52 42.31 43.45 45.80 47.24 48.59 51.49 53.78 55.85 63.82 63.26 61.87 59.90 59.54 61.05 61.57 61.45 61.59 62.00 62.02 61.45 61.35 61.10 59.78 59.56 59.61 59.89 59.31 58.51
37.19 37.38 38.33 39.66 40.18 41.34 43.90 45.49 46.65 48.01 51.29 52.79 55.02 63.57 62.54 61.78 61.18 61.14 61.04 61.11 60.95 61.24 61.73 61.42 60.81 59.75 57.97 57.75 58.87 58.75 58.59 58.39
36.82 37.66 38.32 38.52 39.38 40.68 41.44 43.21 45.04 46.49 48.52 50.52 53.53 56.16 63.73 62.67 62.73 61.95 61.08 61.01 61.32 61.60 61.81 61.26 60.58 58.61 58.46 58.60 58.33 57.61 57.75 57.83
36.56 37.42 38.48 38.77 39.01 39.76 40.69 41.89 43.32 44.42 45.65 47.84 50.46 56.23 61.06 61.98 61.71 61.49 61.55 61.24 61.21 60.23 61.41 60.67 59.59 58.59 58.96 58.00 56.93 56.67 57.31 57.61
36.39 36.82 37.63 38.56 39.09 39.74 39.98 41.32 41.79 42.91 43.83 46.07 49.70 55.63 58.84 62.65 61.36 60.81 60.98 60.93 60.66 59.82 61.02 60.44 58.71 58.13 58.24 57.46 56.55 56.51 56.63 57.43
35.25 35.90 37.37 37.94 38.65 38.68 39.08 39.81 40.35 41.12 42.51 44.93 47.68 50.66 59.80 62.00 61.18 60.64 60.70 60.09 59.76 59.46 60.54 59.84 58.73 57.99 57.45 56.93 56.47 56.61 56.25 56.67
34.56 35.09 35.74 36.34 36.77 37.67 37.69 38.41 39.20 40.34 41.73 43.34 45.06 47.08 50.72 61.21 60.48 60.17 59.40 58.99 59.54 59.66 60.31 59.81 59.42 58.64 57.75 56.87 56.27 56.49 56.21 55.87
33.39 33.67 34.17 34.92 35.75 36.25 36.93 37.45 38.00 39.22 40.41 41.20 42.40 43.77 45.99 48.62 58.41 59.79 59.35 59.06 59.06 59.35 59.87 59.33 58.89 58.72 57.80 57.34 57.18 56.75 56.51 56.92
32.11 31.94 32.76 34.05 34.96 35.45 35.62 36.39 36.89 37.95 38.62 39.09 39.46 41.22 42.92 43.80 48.93 58.30 59.09 59.06 58.83 58.73 59.39 59.47 58.97 58.52 58.15 57.60 57.56 57.25 57.11 57.22
30.86 31.07 31.51 32.93 33.80 34.34 34.64 35.02 35.60 36.04 36.61 37.01 37.74 39.15 41.09 41.25 42.81 44.91 54.99 58.15 58.23 58.11 58.47 58.62 58.53 58.32 58.47 57.97 57.91 57.29 56.95 56.81
29.60 30.22 30.72 31.46 32.87 32.79 33.22 33.41 33.96 34.42 33.83 34.24 36.39 37.62 38.09 38.72 39.10 39.44 39.15 41.69 52.52 57.51 57.41 57.33 56.41 47.46 38.94 44.54 54.03 57.19 56.67 56.07
27.67 29.09 29.60 30.60 31.83 33.45 31.94 32.30 32.93 32.50 32.27 32.60 33.41 35.49 36.12 36.54 37.40 37.45 36.70 35.69 37.04 38.53 42.00 44.73 40.89 38.76 37.41 38.65 42.55 56.83 56.15 55.93
26.05 27.44 28.60 29.45 31.15 32.35 33.35 31.66 31.18 30.49 30.03 30.69 31.77 32.56 33.61 35.05 35.44 35.02 35.91 36.10 34.16 33.68 34.64 36.40 37.18 36.29 37.59 38.51 37.62 49.76 44.49 41.34

GFSFLT1_sfc_wetblb_120.txt.gz
Wetbulb
49.41 47.61 47.00 54.64 62.30 65.44 66.77 67.35 66.67 65.34 64.91 64.87 64.79 64.40 64.29 64.45 64.52 64.44 64.03 64.96 64.23 63.89 63.52 62.27 62.73 63.01 62.59 62.05 61.71 61.56 60.95 60.44
48.47 51.98 51.48 47.11 48.04 47.09 62.21 66.23 66.85 66.43 66.03 64.57 64.68 63.90 64.81 64.93 64.80 64.92 64.55 64.72 64.23 63.48 63.26 61.85 62.89 63.11 62.35 61.75 61.84 60.77 60.13 60.77
49.48 48.26 48.06 47.21 47.25 48.49 50.83 60.48 65.48 66.27 66.56 65.93 65.38 65.16 65.47 65.40 65.48 64.98 65.14 64.98 64.23 63.90 63.61 62.44 62.81 62.86 62.81 61.98 61.72 60.23 60.45 60.68
45.59 45.20 44.69 43.85 43.95 44.74 47.79 51.05 61.55 65.98 66.77 66.34 62.98 63.07 61.68 62.58 62.86 63.84 64.66 65.32 64.56 64.33 63.43 62.97 62.90 63.24 62.79 62.40 62.14 61.03 59.32 59.98
40.35 41.23 42.62 41.42 42.02 44.16 46.19 49.05 52.76 60.25 65.42 65.33 64.02 63.75 62.93 63.79 64.18 64.26 64.43 65.04 65.01 64.38 63.41 62.64 63.05 63.29 62.93 62.44 62.55 61.82 60.48 58.03
37.15 38.03 39.78 41.35 41.43 42.60 44.84 49.01 51.36 53.57 56.01 64.06 63.23 63.24 63.18 60.97 62.01 62.81 64.07 62.76 63.18 63.62 62.76 62.21 62.63 62.66 62.65 61.61 61.85 61.70 61.17 59.81
38.43 39.19 39.64 40.00 41.55 41.99 43.88 46.35 48.42 50.82 53.25 54.66 58.60 62.44 60.15 60.02 60.58 61.66 62.37 62.15 62.06 62.23 62.28 61.81 61.83 62.31 62.24 62.26 61.87 60.93 60.06 60.08
37.27 37.81 38.62 39.70 40.06 41.03 42.89 44.22 45.65 47.24 49.36 50.85 53.02 55.22 59.19 60.88 61.13 62.01 61.40 61.42 61.45 61.58 62.14 62.01 61.88 62.05 62.37 61.95 61.01 60.27 60.21 59.57
36.98 37.63 38.05 38.54 39.48 40.34 40.95 41.92 42.92 44.41 46.05 47.40 49.86 52.36 55.81 59.42 62.37 61.42 61.73 61.52 61.77 62.35 62.58 62.65 62.48 61.85 61.27 60.57 60.26 59.96 59.99 59.41
36.02 37.22 37.56 38.02 38.43 39.09 39.89 40.46 41.50 42.55 43.70 45.70 48.04 50.02 52.90 56.33 60.47 61.63 61.30 60.96 59.73 60.21 62.18 62.20 61.66 61.05 59.90 59.38 59.81 59.04 58.53 58.31
35.47 36.13 36.78 37.76 38.23 38.64 38.97 39.72 40.05 40.97 42.19 43.61 45.64 47.33 49.40 51.61 57.42 62.40 60.68 60.74 60.35 60.91 61.36 61.53 61.09 60.23 59.63 59.33 59.01 58.38 57.61 57.27
34.67 35.31 36.40 37.00 37.53 37.59 37.66 37.70 38.32 39.28 40.59 42.06 43.41 44.67 46.66 49.22 57.96 60.87 61.21 59.83 60.06 59.84 60.91 60.76 60.64 59.52 59.13 58.59 58.17 57.21 56.61 55.91
32.98 33.64 34.67 35.06 35.63 36.06 36.34 36.65 36.89 38.13 39.67 40.60 41.54 42.72 44.13 45.68 47.91 53.05 60.11 59.75 59.63 59.14 59.68 60.52 59.86 59.11 58.71 58.01 56.85 56.37 55.75 55.25
32.26 32.34 32.56 33.60 34.04 34.54 35.06 35.55 36.03 36.62 37.62 38.50 39.45 39.90 41.33 42.34 44.34 47.12 54.86 59.41 59.67 59.53 59.84 59.94 59.53 58.63 57.97 57.96 57.38 56.43 56.11 55.55
30.46 30.44 31.29 32.34 33.21 33.25 33.69 34.06 35.04 35.81 36.06 36.00 36.78 38.21 39.05 40.40 41.95 42.54 44.18 47.96 58.33 58.97 59.57 59.81 59.59 59.03 58.22 57.96 57.26 56.27 55.65 55.73
29.01 29.01 29.57 30.98 32.10 32.25 32.48 33.04 33.40 34.31 34.60 34.78 35.01 37.04 38.11 38.36 39.80 40.65 41.33 40.88 42.98 45.04 58.56 59.08 59.30 58.91 58.47 58.01 57.30 56.73 56.35 55.93
26.79 28.05 28.52 29.02 30.61 32.27 30.97 30.74 31.42 32.41 32.24 32.31 34.24 35.25 35.95 36.42 36.87 37.96 38.74 39.00 39.27 38.88 40.56 44.79 51.20 44.28 40.25 44.40 53.47 56.67 56.81 56.51
24.78 25.35 26.38 27.76 29.18 31.27 31.11 29.35 30.70 30.08 30.07 30.77 31.47 33.01 33.88 34.64 34.97 35.56 35.92 36.02 36.94 36.97 36.64 36.97 36.82 37.45 36.88 42.72 42.59 57.37 56.65 56.43
24.18 24.66 25.17 27.04 28.68 30.16 32.04 29.45 28.29 28.50 28.14 28.64 29.62 30.55 30.96 32.55 33.21 33.14 33.54 34.71 34.30 34.28 34.54 35.12 35.17 35.47 35.82 37.85 40.58 50.25 46.34 40.38

GFSFLT1_sfc_wetblb_123.txt.gz
Wetbulb
50.91 52.53 53.91 54.11 59.40 66.74 68.44 68.17 67.67 67.44 67.09 67.20 67.05 66.84 66.92 67.17 66.53 67.14 66.87 65.95 66.14 66.50 66.38 65.83 66.23 65.41 65.12 64.77 64.24 63.45 63.47 63.29
51.95 53.71 53.76 52.94 54.73 59.83 67.45 67.98 67.93 67.11 65.95 65.55 65.50 64.83 65.95 66.20 66.65 67.35 67.58 67.83 65.91 66.76 66.14 65.35 65.06 64.97 64.49 64.40 63.88 62.30 62.29 62.82
50.33 49.83 49.64 50.03 50.78 52.44 55.33 63.01 68.38 67.62 67.25 66.91 67.16 66.94 66.95 67.08 66.98 66.75 67.36 67.26 67.53 67.49 66.40 65.19 64.83 64.68 64.43 63.92 62.94 61.51 62.10 62.25
43.71 45.34 46.33 47.27 47.83 49.21 52.04 54.75 59.04 67.83 68.76 68.15 67.22 67.74 66.96 65.79 65.68 65.32 65.67 67.12 67.26 67.43 66.81 65.72 64.84 65.17 63.48 62.97 62.72 62.74 60.75 62.18
41.81 42.53 43.77 44.49 45.41 47.94 51.32 55.15 57.65 60.57 65.83 67.53 66.03 65.25 64.23 65.54 65.13 65.23 65.37 66.79 67.30 67.47 66.49 65.60 64.95 65.10 64.94 63.93 64.57 64.99 64.08 60.91
39.63 40.90 42.18 43.18 44.17 45.71 49.48 53.12 54.09 55.07 59.65 63.23 66.23 65.50 67.18 67.60 66.82 65.34 65.26 65.76 66.91 66.72 66.12 65.37 65.12 65.15 64.95 63.94 63.91 64.92 64.06 63.03
39.00 40.15 40.94 41.26 42.84 44.85 47.23 48.93 49.34 51.54 53.25 54.15 56.70 63.90 65.67 64.81 66.01 65.23 64.85 65.39 65.29 65.24 64.96 64.98 64.62 64.26 64.56 64.01 64.88 65.29 64.04 63.16
38.02 37.77 38.60 39.22 40.05 41.53 43.45 44.65 44.76 47.81 48.75 50.01 51.35 53.16 55.57 59.84 65.35 65.12 64.70 64.22 63.48 63.96 64.14 64.00 64.04 64.00 63.87 64.10 63.68 64.99 64.24 63.57
36.99 37.87 37.76 38.12 38.94 39.57 40.73 42.07 42.89 44.58 45.64 47.12 49.18 51.16 52.96 55.17 57.80 61.72 64.17 63.56 64.24 64.22 64.02 64.63 64.57 63.76 63.67 63.92 63.37 63.36 63.32 63.30
35.57 36.81 37.98 38.74 39.50 39.90 39.84 40.48 41.45 43.29 43.58 46.05 46.85 48.76 49.36 50.22 52.81 56.16 61.38 64.44 64.99 65.39 64.52 63.78 64.44 64.35 63.32 62.97 62.31 62.11 61.63 61.34
33.49 35.19 35.90 37.57 38.41 39.27 39.47 39.93 38.56 40.10 41.32 42.90 44.13 45.06 46.44 48.06 50.44 54.32 58.59 62.45 63.81 64.13 64.24 64.67 64.59 64.12 62.45 61.60 60.68 61.14 60.48 60.84
31.94 33.34 34.82 35.51 36.60 37.26 37.33 37.50 38.00 38.09 39.22 40.79 42.03 42.29 43.70 45.34 46.83 47.91 51.00 60.15 62.40 62.38 63.11 63.17 63.15 62.49 61.34 60.13 59.77 60.71 59.86 59.88
31.71 31.98 32.58 33.58 33.99 35.00 35.87 36.21 37.03 37.91 38.32 39.12 39.84 40.94 41.51 42.43 43.45 44.82 46.27 49.00 61.82 61.51 61.87 62.13 62.81 62.24 60.90 59.44 59.16 59.57 58.96 58.46
30.87 30.86 30.92 32.01 32.77 33.24 33.92 34.96 35.52 37.38 37.78 37.91 38.04 38.33 39.36 39.60 41.12 42.30 43.67 44.62 47.66 58.67 60.57 60.67 60.73 60.82 60.28 59.74 59.46 59.39 58.61 58.72
28.70 28.61 29.64 30.63 32.58 31.28 32.60 33.00 34.55 35.61 36.49 36.02 36.16 37.06 37.62 38.17 39.33 40.03 40.78 42.46 43.16 44.09 46.27 57.47 59.84 60.02 59.69 59.51 59.15 58.61 58.11 58.40
26.65 27.01 27.74 28.82 30.48 32.45 31.77 32.16 33.30 34.07 33.97 34.50 34.41 35.41 36.95 37.64 37.49 38.03 38.51 39.00 40.37 41.82 41.40 41.89 42.00 44.30 39.92 40.59 55.33 58.22 57.46 57.14
25.31 25.82 26.36 27.36 29.12 30.83 29.99 30.47 31.46 32.51 32.16 32.20 33.49 34.35 34.57 35.80 36.30 36.88 36.74 36.66 36.61 37.20 37.53 38.78 38.39 38.48 36.33 37.57 40.83 56.68 56.88 56.32
24.49 25.15 25.67 26.35 27.60 30.28 30.68 29.11 30.27 30.10 29.79 30.17 30.76 32.80 32.89 33.18 33.91 34.62 35.55 35.46 34.70 33.80 33.46 35.16 34.68 34.51 35.81 36.83 38.05 49.32 56.50 56.62
24.20 24.08 24.30 25.60 27.13 29.19 31.09 30.82 29.29 28.69 28.05 28.01 29.29 30.37 30.88 32.23 32.78 32.82 33.07 33.68 33.48 32.65 32.71 32.51 32.82 32.70 33.98 35.56 36.06 38.13 36.80 36.42